Wetterdaten: Donnerstag, 04.08.2016
Datum Zeit Temp. A. Temp. A. max Feuchte A. Luftdruck Regen Wind Richtung Richtung Sonnenschein ET UV Solar Taupunkt Windben
04.08.2016 00:00 15,0 C 15,1 C 85 % 1013,9 hPa 0,0 mm 0,1 km/h (0 Bft) S 178 0 min 0,000 mm 0,0 UV-I 0 W/m 12,5 C 1,6 km/h (1 Bft)
04.08.2016 00:01 14,9 C 15,0 C 85 % 1013,9 hPa 0,0 mm 0,0 km/h (0 Bft) S 178 0 min 0,000 mm 0,0 UV-I 0 W/m 12,4 C 0,0 km/h (0 Bft)
04.08.2016 00:02 14,9 C 14,9 C 85 % 1013,9 hPa 0,0 mm 0,1 km/h (0 Bft) S 178 0 min 0,000 mm 0,0 UV-I 0 W/m 12,4 C 1,6 km/h (1 Bft)
04.08.2016 00:03 14,9 C 14,9 C 85 % 1013,9 hPa 0,0 mm 0,8 km/h (0 Bft) S 178 0 min 0,000 mm 0,0 UV-I 0 W/m 12,4 C 1,6 km/h (1 Bft)
04.08.2016 00:04 14,9 C 14,9 C 85 % 1013,9 hPa 0,0 mm 1,7 km/h (1 Bft) S 174 0 min 0,000 mm 0,0 UV-I 0 W/m 12,4 C 3,2 km/h (1 Bft)
04.08.2016 00:05 14,9 C 14,9 C 86 % 1013,9 hPa 0,0 mm 0,3 km/h (0 Bft) S-SW 192 0 min 0,000 mm 0,0 UV-I 0 W/m 12,6 C 1,6 km/h (1 Bft)
04.08.2016 00:06 15,0 C 15,0 C 85 % 1013,9 hPa 0,0 mm 0,1 km/h (0 Bft) S-SW 192 0 min 0,000 mm 0,0 UV-I 0 W/m 12,5 C 1,6 km/h (1 Bft)
04.08.2016 00:07 15,0 C 15,0 C 85 % 1013,9 hPa 0,0 mm 0,3 km/h (0 Bft) S-SW 192 0 min 0,000 mm 0,0 UV-I 0 W/m 12,5 C 1,6 km/h (1 Bft)
04.08.2016 00:09 15,1 C 15,1 C 85 % 1013,8 hPa 0,0 mm 1,0 km/h (0 Bft) S 191 0 min 0,000 mm 0,0 UV-I 0 W/m 12,6 C 3,2 km/h (1 Bft)
04.08.2016 00:10 15,2 C 15,2 C 85 % 1013,8 hPa 0,0 mm 0,4 km/h (0 Bft) S 191 0 min 0,000 mm 0,0 UV-I 0 W/m 12,7 C 1,6 km/h (1 Bft)
04.08.2016 00:11 15,3 C 15,3 C 84 % 1013,8 hPa 0,0 mm 0,5 km/h (0 Bft) S 191 0 min 0,000 mm 0,0 UV-I 0 W/m 12,6 C 1,6 km/h (1 Bft)
04.08.2016 00:12 15,4 C 15,4 C 84 % 1013,9 hPa 0,0 mm 0,6 km/h (0 Bft) S 191 0 min 0,000 mm 0,0 UV-I 0 W/m 12,7 C 1,6 km/h (1 Bft)
04.08.2016 00:13 15,4 C 15,4 C 83 % 1013,9 hPa 0,0 mm 0,5 km/h (0 Bft) S 191 0 min 0,000 mm 0,0 UV-I 0 W/m 12,5 C 1,6 km/h (1 Bft)
04.08.2016 00:14 15,6 C 15,6 C 82 % 1013,9 hPa 0,0 mm 0,3 km/h (0 Bft) S 191 0 min 0,000 mm 0,0 UV-I 0 W/m 12,5 C 1,6 km/h (1 Bft)
04.08.2016 00:15 15,7 C 15,7 C 82 % 1013,9 hPa 0,0 mm 2,4 km/h (1 Bft) S-SW 192 0 min 0,000 mm 0,0 UV-I 0 W/m 12,6 C 4,8 km/h (1 Bft)
04.08.2016 00:16 15,8 C 15,8 C 82 % 1013,9 hPa 0,0 mm 0,4 km/h (0 Bft) S-SW 192 0 min 0,000 mm 0,0 UV-I 0 W/m 12,7 C 1,6 km/h (1 Bft)
04.08.2016 00:17 15,9 C 15,9 C 82 % 1013,9 hPa 0,0 mm 0,9 km/h (0 Bft) S-SW 192 0 min 0,000 mm 0,0 UV-I 0 W/m 12,8 C 3,2 km/h (1 Bft)
04.08.2016 00:18 15,9 C 15,9 C 82 % 1014,0 hPa 0,0 mm 0,7 km/h (0 Bft) S-SW 192 0 min 0,000 mm 0,0 UV-I 0 W/m 12,8 C 3,2 km/h (1 Bft)
04.08.2016 00:19 15,9 C 15,9 C 81 % 1013,9 hPa 0,0 mm 0,3 km/h (0 Bft) S-SW 192 0 min 0,000 mm 0,0 UV-I 0 W/m 12,6 C 1,6 km/h (1 Bft)
04.08.2016 00:20 16,0 C 16,0 C 81 % 1013,9 hPa 0,0 mm 0,3 km/h (0 Bft) S-SW 192 0 min 0,000 mm 0,0 UV-I 0 W/m 12,7 C 1,6 km/h (1 Bft)
04.08.2016 00:21 16,1 C 16,1 C 81 % 1013,9 hPa 0,0 mm 1,5 km/h (1 Bft) S-SW 192 0 min 0,000 mm 0,0 UV-I 0 W/m 12,8 C 3,2 km/h (1 Bft)
04.08.2016 00:22 16,1 C 16,1 C 81 % 1014,0 hPa 0,0 mm 1,5 km/h (1 Bft) S 191 0 min 0,000 mm 0,0 UV-I 0 W/m 12,8 C 3,2 km/h (1 Bft)
04.08.2016 00:23 16,1 C 16,1 C 81 % 1013,9 hPa 0,0 mm 0,7 km/h (0 Bft) S-SW 192 0 min 0,000 mm 0,0 UV-I 0 W/m 12,8 C 1,6 km/h (1 Bft)
04.08.2016 00:24 16,1 C 16,1 C 80 % 1013,9 hPa 0,0 mm 1,4 km/h (1 Bft) W-SW 253 0 min 0,000 mm 0,0 UV-I 0 W/m 12,6 C 3,2 km/h (1 Bft)
04.08.2016 00:25 16,1 C 16,1 C 81 % 1013,9 hPa 0,0 mm 3,0 km/h (1 Bft) S 186 0 min 0,000 mm 0,0 UV-I 0 W/m 12,8 C 6,4 km/h (2 Bft)
04.08.2016 00:26 16,2 C 16,2 C 80 % 1013,9 hPa 0,0 mm 1,7 km/h (1 Bft) S 186 0 min 0,000 mm 0,0 UV-I 0 W/m 12,7 C 3,2 km/h (1 Bft)
04.08.2016 00:27 16,1 C 16,2 C 80 % 1013,9 hPa 0,0 mm 0,3 km/h (0 Bft) S 186 0 min 0,000 mm 0,0 UV-I 0 W/m 12,6 C 1,6 km/h (1 Bft)
04.08.2016 00:28 16,1 C 16,1 C 80 % 1013,9 hPa 0,0 mm 0,0 km/h (0 Bft) S 186 0 min 0,000 mm 0,0 UV-I 0 W/m 12,6 C 0,0 km/h (0 Bft)
04.08.2016 00:29 16,1 C 16,1 C 80 % 1013,9 hPa 0,0 mm 0,0 km/h (0 Bft) S 186 0 min 0,000 mm 0,0 UV-I 0 W/m 12,6 C 0,0 km/h (0 Bft)
04.08.2016 00:30 16,1 C 16,1 C 80 % 1013,9 hPa 0,0 mm 0,9 km/h (0 Bft) S 186 0 min 0,000 mm 0,0 UV-I 0 W/m 12,6 C 3,2 km/h (1 Bft)
04.08.2016 00:31 16,1 C 16,1 C 80 % 1013,9 hPa 0,0 mm 0,2 km/h (0 Bft) S 186 0 min 0,000 mm 0,0 UV-I 0 W/m 12,6 C 1,6 km/h (1 Bft)
04.08.2016 00:32 16,0 C 16,1 C 80 % 1013,9 hPa 0,0 mm 0,2 km/h (0 Bft) S 186 0 min 0,000 mm 0,0 UV-I 0 W/m 12,5 C 1,6 km/h (1 Bft)
04.08.2016 00:33 15,9 C 16,0 C 80 % 1014,0 hPa 0,0 mm 0,5 km/h (0 Bft) S 186 0 min 0,000 mm 0,0 UV-I 0 W/m 12,5 C 1,6 km/h (1 Bft)
04.08.2016 00:34 15,9 C 15,9 C 80 % 1014,0 hPa 0,0 mm 0,7 km/h (0 Bft) S 186 0 min 0,000 mm 0,0 UV-I 0 W/m 12,5 C 1,6 km/h (1 Bft)
04.08.2016 00:35 15,9 C 15,9 C 80 % 1013,9 hPa 0,0 mm 0,5 km/h (0 Bft) S 186 0 min 0,000 mm 0,0 UV-I 0 W/m 12,5 C 1,6 km/h (1 Bft)
04.08.2016 00:36 15,9 C 15,9 C 80 % 1013,9 hPa 0,0 mm 1,5 km/h (1 Bft) W 277 0 min 0,000 mm 0,0 UV-I 0 W/m 12,5 C 3,2 km/h (1 Bft)
04.08.2016 00:37 15,8 C 15,9 C 80 % 1013,9 hPa 0,0 mm 1,3 km/h (1 Bft) W 276 0 min 0,000 mm 0,0 UV-I 0 W/m 12,4 C 3,2 km/h (1 Bft)
04.08.2016 00:38 15,8 C 15,8 C 80 % 1013,9 hPa 0,0 mm 1,0 km/h (0 Bft) W 276 0 min 0,000 mm 0,0 UV-I 0 W/m 12,4 C 1,6 km/h (1 Bft)
04.08.2016 00:39 15,8 C 15,8 C 80 % 1013,9 hPa 0,0 mm 0,6 km/h (0 Bft) W 276 0 min 0,000 mm 0,0 UV-I 0 W/m 12,4 C 1,6 km/h (1 Bft)
04.08.2016 00:40 15,7 C 15,8 C 80 % 1013,9 hPa 0,0 mm 0,2 km/h (0 Bft) W 276 0 min 0,000 mm 0,0 UV-I 0 W/m 12,3 C 1,6 km/h (1 Bft)
04.08.2016 00:41 15,7 C 15,7 C 81 % 1013,9 hPa 0,0 mm 0,0 km/h (0 Bft) W 276 0 min 0,000 mm 0,0 UV-I 0 W/m 12,4 C 0,0 km/h (0 Bft)
04.08.2016 00:42 15,7 C 15,7 C 81 % 1013,9 hPa 0,0 mm 0,0 km/h (0 Bft) W 276 0 min 0,000 mm 0,0 UV-I 0 W/m 12,4 C 0,0 km/h (0 Bft)
04.08.2016 00:43 15,7 C 15,7 C 82 % 1013,9 hPa 0,0 mm 0,0 km/h (0 Bft) W 276 0 min 0,000 mm 0,0 UV-I 0 W/m 12,6 C 0,0 km/h (0 Bft)
04.08.2016 00:44 15,7 C 15,7 C 81 % 1013,9 hPa 0,0 mm 0,3 km/h (0 Bft) W 276 0 min 0,000 mm 0,0 UV-I 0 W/m 12,4 C 1,6 km/h (1 Bft)
04.08.2016 00:45 15,7 C 15,7 C 81 % 1013,9 hPa 0,0 mm 0,7 km/h (0 Bft) W 276 0 min 0,000 mm 0,0 UV-I 0 W/m 12,4 C 1,6 km/h (1 Bft)
04.08.2016 00:46 15,6 C 15,7 C 81 % 1013,9 hPa 0,0 mm 0,7 km/h (0 Bft) W 276 0 min 0,000 mm 0,0 UV-I 0 W/m 12,3 C 1,6 km/h (1 Bft)
04.08.2016 00:47 15,6 C 15,6 C 81 % 1013,9 hPa 0,0 mm 0,3 km/h (0 Bft) W 276 0 min 0,000 mm 0,0 UV-I 0 W/m 12,3 C 1,6 km/h (1 Bft)
04.08.2016 00:48 15,6 C 15,6 C 81 % 1013,9 hPa 0,0 mm 0,6 km/h (0 Bft) W 276 0 min 0,000 mm 0,0 UV-I 0 W/m 12,3 C 1,6 km/h (1 Bft)
04.08.2016 00:49 15,6 C 15,6 C 81 % 1013,9 hPa 0,0 mm 0,3 km/h (0 Bft) W 276 0 min 0,000 mm 0,0 UV-I 0 W/m 12,3 C 1,6 km/h (1 Bft)
04.08.2016 00:50 15,6 C 15,6 C 80 % 1013,9 hPa 0,0 mm 0,4 km/h (0 Bft) W 276 0 min 0,000 mm 0,0 UV-I 0 W/m 12,2 C 1,6 km/h (1 Bft)
04.08.2016 00:51 15,6 C 15,6 C 81 % 1013,8 hPa 0,0 mm 0,2 km/h (0 Bft) W 276 0 min 0,000 mm 0,0 UV-I 0 W/m 12,3 C 1,6 km/h (1 Bft)
04.08.2016 00:52 15,5 C 15,6 C 81 % 1013,9 hPa 0,0 mm 0,5 km/h (0 Bft) SW 224 0 min 0,000 mm 0,0 UV-I 0 W/m 12,3 C 1,6 km/h (1 Bft)
04.08.2016 00:53 15,4 C 15,5 C 81 % 1013,9 hPa 0,0 mm 1,0 km/h (0 Bft) SW 233 0 min 0,000 mm 0,0 UV-I 0 W/m 12,2 C 3,2 km/h (1 Bft)
04.08.2016 00:54 15,4 C 15,4 C 81 % 1013,9 hPa 0,0 mm 2,5 km/h (1 Bft) W 268 0 min 0,000 mm 0,0 UV-I 0 W/m 12,2 C 6,4 km/h (2 Bft)
04.08.2016 00:55 15,5 C 15,5 C 81 % 1013,9 hPa 0,0 mm 1,4 km/h (1 Bft) W 268 0 min 0,000 mm 0,0 UV-I 0 W/m 12,3 C 3,2 km/h (1 Bft)
04.08.2016 00:56 15,6 C 15,6 C 81 % 1013,9 hPa 0,0 mm 0,1 km/h (0 Bft) W 268 0 min 0,000 mm 0,0 UV-I 0 W/m 12,3 C 1,6 km/h (1 Bft)
04.08.2016 00:57 15,5 C 15,6 C 81 % 1013,9 hPa 0,0 mm 2,1 km/h (1 Bft) W-NW 299 0 min 0,000 mm 0,0 UV-I 0 W/m 12,3 C 4,8 km/h (1 Bft)
04.08.2016 00:58 15,4 C 15,5 C 81 % 1013,9 hPa 0,0 mm 1,5 km/h (1 Bft) W-NW 299 0 min 0,000 mm 0,0 UV-I 0 W/m 12,2 C 3,2 km/h (1 Bft)
04.08.2016 00:59 15,4 C 15,4 C 81 % 1013,9 hPa 0,0 mm 1,2 km/h (1 Bft) W-NW 299 0 min 0,000 mm 0,0 UV-I 0 W/m 12,2 C 1,6 km/h (1 Bft)
04.08.2016 01:00 15,3 C 15,4 C 81 % 1013,9 hPa 0,0 mm 0,4 km/h (0 Bft) W-NW 299 0 min 0,025 mm 0,0 UV-I 0 W/m 12,1 C 1,6 km/h (1 Bft)
04.08.2016 01:01 15,3 C 15,4 C 82 % 1013,9 hPa 0,0 mm 0,9 km/h (0 Bft) W-NW 299 0 min 0,000 mm 0,0 UV-I 0 W/m 12,2 C 1,6 km/h (1 Bft)
04.08.2016 01:02 15,2 C 15,3 C 82 % 1013,9 hPa 0,0 mm 0,0 km/h (0 Bft) W-NW 299 0 min 0,000 mm 0,0 UV-I 0 W/m 12,1 C 0,0 km/h (0 Bft)
04.08.2016 01:03 15,1 C 15,2 C 82 % 1013,9 hPa 0,0 mm 0,0 km/h (0 Bft) W-NW 299 0 min 0,000 mm 0,0 UV-I 0 W/m 12,0 C 0,0 km/h (0 Bft)
04.08.2016 01:04 15,1 C 15,1 C 82 % 1014,0 hPa 0,0 mm 0,4 km/h (0 Bft) W-NW 299 0 min 0,000 mm 0,0 UV-I 0 W/m 12,0 C 1,6 km/h (1 Bft)
04.08.2016 01:05 15,0 C 15,1 C 83 % 1013,9 hPa 0,0 mm 1,0 km/h (0 Bft) W-NW 299 0 min 0,000 mm 0,0 UV-I 0 W/m 12,1 C 3,2 km/h (1 Bft)
04.08.2016 01:06 15,0 C 15,0 C 83 % 1013,9 hPa 0,0 mm 0,5 km/h (0 Bft) W-NW 299 0 min 0,000 mm 0,0 UV-I 0 W/m 12,1 C 1,6 km/h (1 Bft)
04.08.2016 01:07 14,9 C 15,0 C 83 % 1013,9 hPa 0,0 mm 0,8 km/h (0 Bft) W-NW 299 0 min 0,000 mm 0,0 UV-I 0 W/m 12,0 C 1,6 km/h (1 Bft)
04.08.2016 01:08 14,9 C 14,9 C 83 % 1013,9 hPa 0,0 mm 1,5 km/h (1 Bft) W-NW 299 0 min 0,000 mm 0,0 UV-I 0 W/m 12,0 C 3,2 km/h (1 Bft)
04.08.2016 01:09 14,9 C 14,9 C 83 % 1013,9 hPa 0,0 mm 2,4 km/h (1 Bft) W 265 0 min 0,000 mm 0,0 UV-I 0 W/m 12,0 C 3,2 km/h (1 Bft)
04.08.2016 01:10 14,9 C 14,9 C 83 % 1013,9 hPa 0,0 mm 1,3 km/h (1 Bft) W 265 0 min 0,000 mm 0,0 UV-I 0 W/m 12,0 C 3,2 km/h (1 Bft)
04.08.2016 01:11 14,9 C 14,9 C 83 % 1013,9 hPa 0,0 mm 0,1 km/h (0 Bft) W 265 0 min 0,000 mm 0,0 UV-I 0 W/m 12,0 C 1,6 km/h (1 Bft)
04.08.2016 01:12 15,0 C 15,0 C 83 % 1013,9 hPa 0,0 mm 0,1 km/h (0 Bft) W 265 0 min 0,000 mm 0,0 UV-I 0 W/m 12,1 C 1,6 km/h (1 Bft)
04.08.2016 01:13 15,1 C 15,1 C 83 % 1013,9 hPa 0,0 mm 0,0 km/h (0 Bft) W 265 0 min 0,000 mm 0,0 UV-I 0 W/m 12,2 C 0,0 km/h (0 Bft)
04.08.2016 01:14 15,1 C 15,1 C 82 % 1013,9 hPa 0,0 mm 1,1 km/h (1 Bft) W 265 0 min 0,000 mm 0,0 UV-I 0 W/m 12,0 C 3,2 km/h (1 Bft)
04.08.2016 01:15 15,1 C 15,1 C 82 % 1013,8 hPa 0,0 mm 0,8 km/h (0 Bft) W 265 0 min 0,000 mm 0,0 UV-I 0 W/m 12,0 C 3,2 km/h (1 Bft)
04.08.2016 01:16 15,1 C 15,1 C 81 % 1013,8 hPa 0,0 mm 2,4 km/h (1 Bft) S-SW 198 0 min 0,000 mm 0,0 UV-I 0 W/m 11,9 C 4,8 km/h (1 Bft)
04.08.2016 01:17 15,1 C 15,1 C 81 % 1013,9 hPa 0,0 mm 2,1 km/h (1 Bft) NW 316 0 min 0,000 mm 0,0 UV-I 0 W/m 11,9 C 3,2 km/h (1 Bft)
04.08.2016 01:18 15,1 C 15,1 C 82 % 1013,9 hPa 0,0 mm 1,9 km/h (1 Bft) N-NO 19 0 min 0,000 mm 0,0 UV-I 0 W/m 12,0 C 3,2 km/h (1 Bft)
04.08.2016 01:19 15,0 C 15,1 C 82 % 1013,8 hPa 0,0 mm 2,7 km/h (1 Bft) S 184 0 min 0,000 mm 0,0 UV-I 0 W/m 12,0 C 4,8 km/h (1 Bft)
04.08.2016 01:20 15,0 C 15,0 C 82 % 1013,8 hPa 0,0 mm 0,9 km/h (0 Bft) S 184 0 min 0,000 mm 0,0 UV-I 0 W/m 12,0 C 3,2 km/h (1 Bft)
04.08.2016 01:21 15,0 C 15,0 C 83 % 1013,7 hPa 0,0 mm 0,8 km/h (0 Bft) S 181 0 min 0,000 mm 0,0 UV-I 0 W/m 12,1 C 3,2 km/h (1 Bft)
04.08.2016 01:22 15,0 C 15,0 C 82 % 1013,8 hPa 0,0 mm 1,7 km/h (1 Bft) S 181 0 min 0,000 mm 0,0 UV-I 0 W/m 12,0 C 3,2 km/h (1 Bft)
04.08.2016 01:23 15,1 C 15,1 C 82 % 1013,7 hPa 0,0 mm 2,0 km/h (1 Bft) SO 127 0 min 0,000 mm 0,0 UV-I 0 W/m 12,0 C 3,2 km/h (1 Bft)
04.08.2016 01:24 15,1 C 15,1 C 82 % 1013,8 hPa 0,0 mm 2,3 km/h (1 Bft) O-NO 66 0 min 0,000 mm 0,0 UV-I 0 W/m 12,0 C 3,2 km/h (1 Bft)
04.08.2016 01:25 15,1 C 15,1 C 83 % 1013,8 hPa 0,0 mm 2,1 km/h (1 Bft) O-NO 67 0 min 0,000 mm 0,0 UV-I 0 W/m 12,2 C 3,2 km/h (1 Bft)
04.08.2016 01:26 15,1 C 15,1 C 83 % 1013,7 hPa 0,0 mm 1,7 km/h (1 Bft) O-NO 74 0 min 0,000 mm 0,0 UV-I 0 W/m 12,2 C 3,2 km/h (1 Bft)
04.08.2016 01:27 15,2 C 15,2 C 83 % 1013,8 hPa 0,0 mm 0,3 km/h (0 Bft) O-NO 74 0 min 0,000 mm 0,0 UV-I 0 W/m 12,3 C 1,6 km/h (1 Bft)
04.08.2016 01:28 15,2 C 15,2 C 82 % 1013,8 hPa 0,0 mm 1,4 km/h (1 Bft) NO 43 0 min 0,000 mm 0,0 UV-I 0 W/m 12,1 C 3,2 km/h (1 Bft)
04.08.2016 01:29 15,3 C 15,3 C 81 % 1013,8 hPa 0,0 mm 1,0 km/h (0 Bft) NO 43 0 min 0,000 mm 0,0 UV-I 0 W/m 12,1 C 1,6 km/h (1 Bft)
04.08.2016 01:30 15,3 C 15,3 C 80 % 1013,8 hPa 0,0 mm 0,9 km/h (0 Bft) NO 43 0 min 0,000 mm 0,0 UV-I 0 W/m 11,9 C 3,2 km/h (1 Bft)
04.08.2016 01:31 15,3 C 15,3 C 80 % 1013,7 hPa 0,0 mm 0,1 km/h (0 Bft) NO 43 0 min 0,000 mm 0,0 UV-I 0 W/m 11,9 C 1,6 km/h (1 Bft)
04.08.2016 01:32 15,3 C 15,3 C 80 % 1013,8 hPa 0,0 mm 0,1 km/h (0 Bft) NO 42 0 min 0,000 mm 0,0 UV-I 0 W/m 11,9 C 1,6 km/h (1 Bft)
04.08.2016 01:33 15,3 C 15,3 C 80 % 1013,8 hPa 0,0 mm 0,5 km/h (0 Bft) NO 43 0 min 0,000 mm 0,0 UV-I 0 W/m 11,9 C 1,6 km/h (1 Bft)
04.08.2016 01:34 15,4 C 15,4 C 81 % 1013,7 hPa 0,0 mm 0,3 km/h (0 Bft) NO 43 0 min 0,000 mm 0,0 UV-I 0 W/m 12,2 C 1,6 km/h (1 Bft)
04.08.2016 01:35 15,3 C 15,4 C 80 % 1013,7 hPa 0,0 mm 1,4 km/h (1 Bft) O 101 0 min 0,000 mm 0,0 UV-I 0 W/m 11,9 C 3,2 km/h (1 Bft)
04.08.2016 01:36 15,3 C 15,3 C 80 % 1013,7 hPa 0,0 mm 3,1 km/h (1 Bft) S-SO 148 0 min 0,000 mm 0,0 UV-I 0 W/m 11,9 C 4,8 km/h (1 Bft)
04.08.2016 01:37 15,4 C 15,4 C 80 % 1013,7 hPa 0,0 mm 0,8 km/h (0 Bft) S-SO 148 0 min 0,000 mm 0,0 UV-I 0 W/m 12,0 C 1,6 km/h (1 Bft)
04.08.2016 01:38 15,4 C 15,4 C 80 % 1013,7 hPa 0,0 mm 1,5 km/h (1 Bft) S-SO 168 0 min 0,000 mm 0,0 UV-I 0 W/m 12,0 C 3,2 km/h (1 Bft)
04.08.2016 01:39 15,3 C 15,4 C 79 % 1013,7 hPa 0,0 mm 0,2 km/h (0 Bft) S-SO 168 0 min 0,000 mm 0,0 UV-I 0 W/m 11,7 C 1,6 km/h (1 Bft)
04.08.2016 01:40 15,3 C 15,3 C 80 % 1013,7 hPa 0,0 mm 0,0 km/h (0 Bft) S-SO 168 0 min 0,000 mm 0,0 UV-I 0 W/m 11,9 C 0,0 km/h (0 Bft)
04.08.2016 01:41 15,3 C 15,3 C 79 % 1013,7 hPa 0,0 mm 0,6 km/h (0 Bft) S 169 0 min 0,000 mm 0,0 UV-I 0 W/m 11,7 C 1,6 km/h (1 Bft)
04.08.2016 01:42 15,3 C 15,3 C 79 % 1013,7 hPa 0,0 mm 0,8 km/h (0 Bft) S-SW 209 0 min 0,000 mm 0,0 UV-I 0 W/m 11,7 C 3,2 km/h (1 Bft)
04.08.2016 01:43 15,3 C 15,3 C 80 % 1013,7 hPa 0,0 mm 1,4 km/h (1 Bft) S-SW 209 0 min 0,000 mm 0,0 UV-I 0 W/m 11,9 C 3,2 km/h (1 Bft)
04.08.2016 01:44 15,2 C 15,3 C 80 % 1013,7 hPa 0,0 mm 0,1 km/h (0 Bft) S-SW 209 0 min 0,000 mm 0,0 UV-I 0 W/m 11,8 C 1,6 km/h (1 Bft)
04.08.2016 01:45 15,2 C 15,2 C 80 % 1013,7 hPa 0,0 mm 0,3 km/h (0 Bft) S-SW 209 0 min 0,000 mm 0,0 UV-I 0 W/m 11,8 C 1,6 km/h (1 Bft)
04.08.2016 01:46 15,1 C 15,2 C 81 % 1013,7 hPa 0,0 mm 0,0 km/h (0 Bft) S-SW 209 0 min 0,000 mm 0,0 UV-I 0 W/m 11,9 C 0,0 km/h (0 Bft)
04.08.2016 01:47 15,1 C 15,1 C 82 % 1013,7 hPa 0,0 mm 0,0 km/h (0 Bft) S-SW 209 0 min 0,000 mm 0,0 UV-I 0 W/m 12,0 C 0,0 km/h (0 Bft)
04.08.2016 01:48 14,9 C 15,1 C 83 % 1013,7 hPa 0,0 mm 0,0 km/h (0 Bft) S-SW 209 0 min 0,000 mm 0,0 UV-I 0 W/m 12,0 C 0,0 km/h (0 Bft)
04.08.2016 01:49 14,9 C 14,9 C 82 % 1013,7 hPa 0,0 mm 0,0 km/h (0 Bft) S-SW 209 0 min 0,000 mm 0,0 UV-I 0 W/m 11,9 C 0,0 km/h (0 Bft)
04.08.2016 01:50 14,8 C 14,9 C 82 % 1013,7 hPa 0,0 mm 0,0 km/h (0 Bft) S-SW 209 0 min 0,000 mm 0,0 UV-I 0 W/m 11,8 C 0,0 km/h (0 Bft)
04.08.2016 01:51 14,7 C 14,8 C 82 % 1013,7 hPa 0,0 mm 0,0 km/h (0 Bft) S-SW 209 0 min 0,000 mm 0,0 UV-I 0 W/m 11,7 C 0,0 km/h (0 Bft)
04.08.2016 01:52 14,7 C 14,7 C 82 % 1013,7 hPa 0,0 mm 0,2 km/h (0 Bft) S-SW 209 0 min 0,000 mm 0,0 UV-I 0 W/m 11,7 C 1,6 km/h (1 Bft)
04.08.2016 01:53 14,6 C 14,7 C 82 % 1013,7 hPa 0,0 mm 0,4 km/h (0 Bft) S-SW 209 0 min 0,000 mm 0,0 UV-I 0 W/m 11,6 C 1,6 km/h (1 Bft)
04.08.2016 01:54 14,6 C 14,7 C 83 % 1013,7 hPa 0,0 mm 0,3 km/h (0 Bft) S-SW 209 0 min 0,000 mm 0,0 UV-I 0 W/m 11,7 C 1,6 km/h (1 Bft)
04.08.2016 01:55 14,6 C 14,6 C 83 % 1013,7 hPa 0,0 mm 0,1 km/h (0 Bft) S-SW 209 0 min 0,000 mm 0,0 UV-I 0 W/m 11,7 C 1,6 km/h (1 Bft)
04.08.2016 01:56 14,4 C 14,6 C 83 % 1013,6 hPa 0,0 mm 0,1 km/h (0 Bft) S-SW 209 0 min 0,000 mm 0,0 UV-I 0 W/m 11,5 C 1,6 km/h (1 Bft)
04.08.2016 01:57 14,3 C 14,4 C 83 % 1013,7 hPa 0,0 mm 0,1 km/h (0 Bft) S-SW 209 0 min 0,000 mm 0,0 UV-I 0 W/m 11,5 C 1,6 km/h (1 Bft)
04.08.2016 01:58 14,3 C 14,3 C 83 % 1013,6 hPa 0,0 mm 0,0 km/h (0 Bft) S-SW 209 0 min 0,000 mm 0,0 UV-I 0 W/m 11,5 C 0,0 km/h (0 Bft)
04.08.2016 01:59 14,2 C 14,3 C 84 % 1013,6 hPa 0,0 mm 0,0 km/h (0 Bft) S-SW 209 0 min 0,000 mm 0,0 UV-I 0 W/m 11,5 C 0,0 km/h (0 Bft)
04.08.2016 02:00 14,2 C 14,3 C 83 % 1013,6 hPa 0,0 mm 0,4 km/h (0 Bft) S-SW 209 0 min 0,026 mm 0,0 UV-I 0 W/m 11,4 C 1,6 km/h (1 Bft)
04.08.2016 02:01 14,2 C 14,2 C 83 % 1013,6 hPa 0,0 mm 0,1 km/h (0 Bft) S-SW 209 0 min 0,000 mm 0,0 UV-I 0 W/m 11,4 C 1,6 km/h (1 Bft)
04.08.2016 02:02 14,1 C 14,2 C 84 % 1013,5 hPa 0,0 mm 0,3 km/h (0 Bft) S-SW 209 0 min 0,000 mm 0,0 UV-I 0 W/m 11,4 C 1,6 km/h (1 Bft)
04.08.2016 02:03 14,1 C 14,1 C 84 % 1013,6 hPa 0,0 mm 1,4 km/h (1 Bft) S-SW 209 0 min 0,000 mm 0,0 UV-I 0 W/m 11,4 C 1,6 km/h (1 Bft)
04.08.2016 02:04 14,1 C 14,1 C 84 % 1013,6 hPa 0,0 mm 0,5 km/h (0 Bft) S-SW 209 0 min 0,000 mm 0,0 UV-I 0 W/m 11,4 C 1,6 km/h (1 Bft)
04.08.2016 02:05 14,0 C 14,1 C 84 % 1013,6 hPa 0,0 mm 0,4 km/h (0 Bft) S-SW 209 0 min 0,000 mm 0,0 UV-I 0 W/m 11,3 C 1,6 km/h (1 Bft)
04.08.2016 02:06 14,0 C 14,1 C 84 % 1013,6 hPa 0,0 mm 0,0 km/h (0 Bft) S-SW 209 0 min 0,000 mm 0,0 UV-I 0 W/m 11,3 C 0,0 km/h (0 Bft)
04.08.2016 02:07 14,0 C 14,0 C 84 % 1013,6 hPa 0,0 mm 0,0 km/h (0 Bft) S-SW 209 0 min 0,000 mm 0,0 UV-I 0 W/m 11,3 C 0,0 km/h (0 Bft)
04.08.2016 02:08 13,9 C 14,0 C 84 % 1013,6 hPa 0,0 mm 0,0 km/h (0 Bft) S-SW 209 0 min 0,000 mm 0,0 UV-I 0 W/m 11,2 C 0,0 km/h (0 Bft)
04.08.2016 02:09 13,9 C 14,0 C 84 % 1013,5 hPa 0,0 mm 0,0 km/h (0 Bft) S-SW 209 0 min 0,000 mm 0,0 UV-I 0 W/m 11,2 C 0,0 km/h (0 Bft)
04.08.2016 02:10 14,0 C 14,0 C 84 % 1013,5 hPa 0,0 mm 0,0 km/h (0 Bft) S-SW 209 0 min 0,000 mm 0,0 UV-I 0 W/m 11,3 C 0,0 km/h (0 Bft)
04.08.2016 02:11 14,0 C 14,1 C 85 % 1013,5 hPa 0,0 mm 0,0 km/h (0 Bft) S-SW 209 0 min 0,000 mm 0,0 UV-I 0 W/m 11,5 C 0,0 km/h (0 Bft)
04.08.2016 02:12 14,0 C 14,0 C 84 % 1013,5 hPa 0,0 mm 0,2 km/h (0 Bft) S-SW 209 0 min 0,000 mm 0,0 UV-I 0 W/m 11,3 C 1,6 km/h (1 Bft)
04.08.2016 02:13 14,0 C 14,1 C 85 % 1013,6 hPa 0,0 mm 0,1 km/h (0 Bft) S-SW 209 0 min 0,000 mm 0,0 UV-I 0 W/m 11,5 C 1,6 km/h (1 Bft)
04.08.2016 02:14 14,0 C 14,0 C 85 % 1013,5 hPa 0,0 mm 0,0 km/h (0 Bft) S-SW 209 0 min 0,000 mm 0,0 UV-I 0 W/m 11,5 C 0,0 km/h (0 Bft)
04.08.2016 02:15 14,0 C 14,0 C 85 % 1013,5 hPa 0,0 mm 0,0 km/h (0 Bft) S-SW 209 0 min 0,000 mm 0,0 UV-I 0 W/m 11,5 C 0,0 km/h (0 Bft)
04.08.2016 02:16 14,0 C 14,0 C 85 % 1013,5 hPa 0,0 mm 0,5 km/h (0 Bft) S-SW 209 0 min 0,000 mm 0,0 UV-I 0 W/m 11,5 C 1,6 km/h (1 Bft)
04.08.2016 02:17 13,9 C 14,0 C 85 % 1013,5 hPa 0,0 mm 0,2 km/h (0 Bft) S-SW 209 0 min 0,000 mm 0,0 UV-I 0 W/m 11,4 C 1,6 km/h (1 Bft)
04.08.2016 02:18 13,9 C 13,9 C 85 % 1013,5 hPa 0,0 mm 0,1 km/h (0 Bft) S-SW 209 0 min 0,000 mm 0,0 UV-I 0 W/m 11,4 C 1,6 km/h (1 Bft)
04.08.2016 02:19 13,9 C 13,9 C 85 % 1013,5 hPa 0,0 mm 0,0 km/h (0 Bft) S-SW 209 0 min 0,000 mm 0,0 UV-I 0 W/m 11,4 C 0,0 km/h (0 Bft)
04.08.2016 02:20 13,9 C 13,9 C 85 % 1013,5 hPa 0,0 mm 0,1 km/h (0 Bft) S-SW 209 0 min 0,000 mm 0,0 UV-I 0 W/m 11,4 C 1,6 km/h (1 Bft)
04.08.2016 02:21 14,0 C 14,0 C 84 % 1013,5 hPa 0,0 mm 0,1 km/h (0 Bft) S-SW 209 0 min 0,000 mm 0,0 UV-I 0 W/m 11,3 C 1,6 km/h (1 Bft)
04.08.2016 02:22 14,1 C 14,1 C 84 % 1013,5 hPa 0,0 mm 0,0 km/h (0 Bft) S-SW 209 0 min 0,000 mm 0,0 UV-I 0 W/m 11,4 C 0,0 km/h (0 Bft)
04.08.2016 02:23 14,2 C 14,2 C 85 % 1013,5 hPa 0,0 mm 0,2 km/h (0 Bft) S-SW 209 0 min 0,000 mm 0,0 UV-I 0 W/m 11,7 C 1,6 km/h (1 Bft)
04.08.2016 02:24 14,1 C 14,2 C 85 % 1013,5 hPa 0,0 mm 0,5 km/h (0 Bft) S-SW 209 0 min 0,000 mm 0,0 UV-I 0 W/m 11,6 C 1,6 km/h (1 Bft)
04.08.2016 02:25 14,1 C 14,1 C 85 % 1013,6 hPa 0,0 mm 0,0 km/h (0 Bft) S-SW 209 0 min 0,000 mm 0,0 UV-I 0 W/m 11,6 C 0,0 km/h (0 Bft)
04.08.2016 02:26 14,1 C 14,1 C 85 % 1013,6 hPa 0,0 mm 0,2 km/h (0 Bft) S-SW 209 0 min 0,000 mm 0,0 UV-I 0 W/m 11,6 C 1,6 km/h (1 Bft)
04.08.2016 02:27 14,2 C 14,2 C 84 % 1013,6 hPa 0,0 mm 0,5 km/h (0 Bft) SW 217 0 min 0,000 mm 0,0 UV-I 0 W/m 11,5 C 3,2 km/h (1 Bft)
04.08.2016 02:28 14,2 C 14,2 C 84 % 1013,6 hPa 0,0 mm 0,0 km/h (0 Bft) SW 217 0 min 0,000 mm 0,0 UV-I 0 W/m 11,5 C 0,0 km/h (0 Bft)
04.08.2016 02:29 14,2 C 14,2 C 84 % 1013,6 hPa 0,0 mm 0,0 km/h (0 Bft) SW 217 0 min 0,000 mm 0,0 UV-I 0 W/m 11,5 C 0,0 km/h (0 Bft)
04.08.2016 02:30 14,2 C 14,2 C 85 % 1013,6 hPa 0,0 mm 0,2 km/h (0 Bft) SW 217 0 min 0,000 mm 0,0 UV-I 0 W/m 11,7 C 1,6 km/h (1 Bft)
04.08.2016 02:31 14,2 C 14,2 C 84 % 1013,6 hPa 0,0 mm 0,1 km/h (0 Bft) SW 217 0 min 0,000 mm 0,0 UV-I 0 W/m 11,5 C 1,6 km/h (1 Bft)
04.08.2016 02:32 14,2 C 14,2 C 85 % 1013,6 hPa 0,0 mm 0,1 km/h (0 Bft) SW 218 0 min 0,000 mm 0,0 UV-I 0 W/m 11,7 C 1,6 km/h (1 Bft)
04.08.2016 02:33 14,2 C 14,2 C 84 % 1013,6 hPa 0,0 mm 2,4 km/h (1 Bft) W-NW 291 0 min 0,000 mm 0,0 UV-I 0 W/m 11,5 C 4,8 km/h (1 Bft)
04.08.2016 02:34 14,2 C 14,2 C 84 % 1013,6 hPa 0,0 mm 2,0 km/h (1 Bft) W-NW 292 0 min 0,000 mm 0,0 UV-I 0 W/m 11,5 C 3,2 km/h (1 Bft)
04.08.2016 02:35 14,3 C 14,3 C 84 % 1013,6 hPa 0,0 mm 1,7 km/h (1 Bft) W-NW 292 0 min 0,000 mm 0,0 UV-I 0 W/m 11,6 C 3,2 km/h (1 Bft)
04.08.2016 02:36 14,3 C 14,3 C 83 % 1013,6 hPa 0,0 mm 0,1 km/h (0 Bft) W-NW 292 0 min 0,000 mm 0,0 UV-I 0 W/m 11,5 C 1,6 km/h (1 Bft)
04.08.2016 02:37 14,3 C 14,3 C 84 % 1013,5 hPa 0,0 mm 0,0 km/h (0 Bft) W-NW 292 0 min 0,000 mm 0,0 UV-I 0 W/m 11,6 C 0,0 km/h (0 Bft)
04.08.2016 02:38 14,3 C 14,3 C 84 % 1013,6 hPa 0,0 mm 0,0 km/h (0 Bft) W-NW 292 0 min 0,000 mm 0,0 UV-I 0 W/m 11,6 C 0,0 km/h (0 Bft)
04.08.2016 02:39 14,3 C 14,3 C 83 % 1013,6 hPa 0,0 mm 0,1 km/h (0 Bft) W-NW 292 0 min 0,000 mm 0,0 UV-I 0 W/m 11,5 C 1,6 km/h (1 Bft)
04.08.2016 02:40 14,3 C 14,3 C 83 % 1013,5 hPa 0,0 mm 0,0 km/h (0 Bft) W-NW 292 0 min 0,000 mm 0,0 UV-I 0 W/m 11,5 C 0,0 km/h (0 Bft)
04.08.2016 02:41 14,3 C 14,3 C 83 % 1013,5 hPa 0,0 mm 0,0 km/h (0 Bft) W-NW 292 0 min 0,000 mm 0,0 UV-I 0 W/m 11,5 C 0,0 km/h (0 Bft)
04.08.2016 02:42 14,3 C 14,3 C 83 % 1013,5 hPa 0,0 mm 0,0 km/h (0 Bft) W-NW 292 0 min 0,000 mm 0,0 UV-I 0 W/m 11,5 C 0,0 km/h (0 Bft)
04.08.2016 02:43 14,3 C 14,3 C 83 % 1013,6 hPa 0,0 mm 0,0 km/h (0 Bft) W-NW 292 0 min 0,000 mm 0,0 UV-I 0 W/m 11,5 C 0,0 km/h (0 Bft)
04.08.2016 02:44 14,3 C 14,3 C 83 % 1013,6 hPa 0,0 mm 1,1 km/h (1 Bft) W-NW 292 0 min 0,000 mm 0,0 UV-I 0 W/m 11,5 C 3,2 km/h (1 Bft)
04.08.2016 02:45 14,3 C 14,3 C 83 % 1013,6 hPa 0,0 mm 1,3 km/h (1 Bft) W-NW 292 0 min 0,000 mm 0,0 UV-I 0 W/m 11,5 C 1,6 km/h (1 Bft)
04.08.2016 02:46 14,3 C 14,3 C 83 % 1013,5 hPa 0,0 mm 0,8 km/h (0 Bft) W-NW 292 0 min 0,000 mm 0,0 UV-I 0 W/m 11,5 C 1,6 km/h (1 Bft)
04.08.2016 02:47 14,3 C 14,3 C 83 % 1013,5 hPa 0,0 mm 0,3 km/h (0 Bft) W-NW 292 0 min 0,000 mm 0,0 UV-I 0 W/m 11,5 C 1,6 km/h (1 Bft)
04.08.2016 02:48 14,3 C 14,3 C 82 % 1013,5 hPa 0,0 mm 0,4 km/h (0 Bft) W-NW 292 0 min 0,000 mm 0,0 UV-I 0 W/m 11,3 C 1,6 km/h (1 Bft)
04.08.2016 02:49 14,3 C 14,3 C 83 % 1013,5 hPa 0,0 mm 0,0 km/h (0 Bft) W-NW 292 0 min 0,000 mm 0,0 UV-I 0 W/m 11,5 C 0,0 km/h (0 Bft)
04.08.2016 02:50 14,3 C 14,3 C 83 % 1013,5 hPa 0,0 mm 0,2 km/h (0 Bft) W-NW 292 0 min 0,000 mm 0,0 UV-I 0 W/m 11,5 C 1,6 km/h (1 Bft)
04.08.2016 02:51 14,2 C 14,3 C 83 % 1013,6 hPa 0,0 mm 0,4 km/h (0 Bft) W-NW 292 0 min 0,000 mm 0,0 UV-I 0 W/m 11,4 C 1,6 km/h (1 Bft)
04.08.2016 02:52 14,2 C 14,2 C 83 % 1013,4 hPa 0,0 mm 0,3 km/h (0 Bft) W-NW 292 0 min 0,000 mm 0,0 UV-I 0 W/m 11,4 C 1,6 km/h (1 Bft)
04.08.2016 02:53 14,1 C 14,2 C 83 % 1013,5 hPa 0,0 mm 0,1 km/h (0 Bft) W-NW 292 0 min 0,000 mm 0,0 UV-I 0 W/m 11,3 C 1,6 km/h (1 Bft)
04.08.2016 02:54 14,1 C 14,1 C 83 % 1013,5 hPa 0,0 mm 0,0 km/h (0 Bft) W-NW 292 0 min 0,000 mm 0,0 UV-I 0 W/m 11,3 C 0,0 km/h (0 Bft)
04.08.2016 02:55 14,0 C 14,1 C 83 % 1013,5 hPa 0,0 mm 0,0 km/h (0 Bft) W-NW 292 0 min 0,000 mm 0,0 UV-I 0 W/m 11,2 C 0,0 km/h (0 Bft)
04.08.2016 02:56 14,0 C 14,0 C 84 % 1013,5 hPa 0,0 mm 0,1 km/h (0 Bft) W-NW 292 0 min 0,000 mm 0,0 UV-I 0 W/m 11,3 C 1,6 km/h (1 Bft)
04.08.2016 02:57 13,9 C 14,0 C 84 % 1013,5 hPa 0,0 mm 0,2 km/h (0 Bft) W-NW 292 0 min 0,000 mm 0,0 UV-I 0 W/m 11,2 C 1,6 km/h (1 Bft)
04.08.2016 02:58 13,9 C 14,0 C 84 % 1013,5 hPa 0,0 mm 0,2 km/h (0 Bft) W-NW 292 0 min 0,000 mm 0,0 UV-I 0 W/m 11,2 C 1,6 km/h (1 Bft)
04.08.2016 02:59 13,9 C 13,9 C 84 % 1013,5 hPa 0,0 mm 0,3 km/h (0 Bft) W-NW 292 0 min 0,000 mm 0,0 UV-I 0 W/m 11,2 C 1,6 km/h (1 Bft)
04.08.2016 03:00 13,8 C 13,9 C 85 % 1013,5 hPa 0,0 mm 0,0 km/h (0 Bft) W-NW 292 0 min 0,025 mm 0,0 UV-I 0 W/m 11,3 C 0,0 km/h (0 Bft)
04.08.2016 03:01 13,8 C 13,8 C 84 % 1013,4 hPa 0,0 mm 0,4 km/h (0 Bft) W-NW 292 0 min 0,000 mm 0,0 UV-I 0 W/m 11,1 C 1,6 km/h (1 Bft)
04.08.2016 03:02 13,7 C 13,8 C 85 % 1013,4 hPa 0,0 mm 0,3 km/h (0 Bft) W-NW 292 0 min 0,000 mm 0,0 UV-I 0 W/m 11,2 C 1,6 km/h (1 Bft)
04.08.2016 03:03 13,7 C 13,7 C 85 % 1013,5 hPa 0,0 mm 0,6 km/h (0 Bft) W-NW 292 0 min 0,000 mm 0,0 UV-I 0 W/m 11,2 C 1,6 km/h (1 Bft)
04.08.2016 03:04 13,7 C 13,7 C 85 % 1013,5 hPa 0,0 mm 0,8 km/h (0 Bft) W-NW 292 0 min 0,000 mm 0,0 UV-I 0 W/m 11,2 C 1,6 km/h (1 Bft)
04.08.2016 03:05 13,7 C 13,7 C 85 % 1013,5 hPa 0,0 mm 0,0 km/h (0 Bft) W-NW 292 0 min 0,000 mm 0,0 UV-I 0 W/m 11,2 C 0,0 km/h (0 Bft)
04.08.2016 03:06 13,7 C 13,7 C 85 % 1013,4 hPa 0,0 mm 0,0 km/h (0 Bft) W-NW 292 0 min 0,000 mm 0,0 UV-I 0 W/m 11,2 C 0,0 km/h (0 Bft)
04.08.2016 03:07 13,7 C 13,7 C 85 % 1013,4 hPa 0,0 mm 0,0 km/h (0 Bft) W-NW 292 0 min 0,000 mm 0,0 UV-I 0 W/m 11,2 C 0,0 km/h (0 Bft)
04.08.2016 03:08 13,7 C 13,7 C 85 % 1013,4 hPa 0,0 mm 0,0 km/h (0 Bft) W-NW 292 0 min 0,000 mm 0,0 UV-I 0 W/m 11,2 C 0,0 km/h (0 Bft)
04.08.2016 03:09 13,7 C 13,7 C 85 % 1013,5 hPa 0,0 mm 0,0 km/h (0 Bft) W-NW 292 0 min 0,000 mm 0,0 UV-I 0 W/m 11,2 C 0,0 km/h (0 Bft)
04.08.2016 03:10 13,7 C 13,7 C 85 % 1013,5 hPa 0,0 mm 0,0 km/h (0 Bft) W-NW 292 0 min 0,000 mm 0,0 UV-I 0 W/m 11,2 C 0,0 km/h (0 Bft)
04.08.2016 03:11 13,7 C 13,7 C 85 % 1013,5 hPa 0,0 mm 0,0 km/h (0 Bft) W-NW 292 0 min 0,000 mm 0,0 UV-I 0 W/m 11,2 C 0,0 km/h (0 Bft)
04.08.2016 03:12 13,7 C 13,7 C 85 % 1013,5 hPa 0,0 mm 0,0 km/h (0 Bft) W-NW 292 0 min 0,000 mm 0,0 UV-I 0 W/m 11,2 C 0,0 km/h (0 Bft)
04.08.2016 03:13 13,7 C 13,7 C 85 % 1013,5 hPa 0,0 mm 0,0 km/h (0 Bft) W-NW 292 0 min 0,000 mm 0,0 UV-I 0 W/m 11,2 C 0,0 km/h (0 Bft)
04.08.2016 03:14 13,7 C 13,7 C 85 % 1013,4 hPa 0,0 mm 0,0 km/h (0 Bft) W-NW 292 0 min 0,000 mm 0,0 UV-I 0 W/m 11,2 C 0,0 km/h (0 Bft)
04.08.2016 03:15 13,7 C 13,7 C 86 % 1013,4 hPa 0,0 mm 0,0 km/h (0 Bft) W-NW 292 0 min 0,000 mm 0,0 UV-I 0 W/m 11,4 C 0,0 km/h (0 Bft)
04.08.2016 03:16 13,7 C 13,7 C 86 % 1013,4 hPa 0,0 mm 0,3 km/h (0 Bft) W-NW 292 0 min 0,000 mm 0,0 UV-I 0 W/m 11,4 C 1,6 km/h (1 Bft)
04.08.2016 03:17 13,8 C 13,8 C 86 % 1013,4 hPa 0,0 mm 0,3 km/h (0 Bft) W-NW 292 0 min 0,000 mm 0,0 UV-I 0 W/m 11,5 C 1,6 km/h (1 Bft)
04.08.2016 03:18 13,7 C 13,8 C 86 % 1013,5 hPa 0,0 mm 0,1 km/h (0 Bft) NW 311 0 min 0,000 mm 0,0 UV-I 0 W/m 11,4 C 1,6 km/h (1 Bft)
04.08.2016 03:19 13,8 C 13,8 C 86 % 1013,4 hPa 0,0 mm 1,1 km/h (1 Bft) NW 325 0 min 0,000 mm 0,0 UV-I 0 W/m 11,5 C 4,8 km/h (1 Bft)
04.08.2016 03:20 13,8 C 13,8 C 85 % 1013,4 hPa 0,0 mm 0,0 km/h (0 Bft) NW 325 0 min 0,000 mm 0,0 UV-I 0 W/m 11,3 C 0,0 km/h (0 Bft)
04.08.2016 03:21 13,8 C 13,8 C 85 % 1013,4 hPa 0,0 mm 0,0 km/h (0 Bft) NW 325 0 min 0,000 mm 0,0 UV-I 0 W/m 11,3 C 0,0 km/h (0 Bft)
04.08.2016 03:22 13,8 C 13,8 C 85 % 1013,4 hPa 0,0 mm 0,0 km/h (0 Bft) NW 325 0 min 0,000 mm 0,0 UV-I 0 W/m 11,3 C 0,0 km/h (0 Bft)
04.08.2016 03:23 13,8 C 13,8 C 85 % 1013,4 hPa 0,0 mm 0,0 km/h (0 Bft) NW 325 0 min 0,000 mm 0,0 UV-I 0 W/m 11,3 C 0,0 km/h (0 Bft)
04.08.2016 03:24 13,9 C 13,9 C 84 % 1013,4 hPa 0,0 mm 0,0 km/h (0 Bft) NW 325 0 min 0,000 mm 0,0 UV-I 0 W/m 11,2 C 0,0 km/h (0 Bft)
04.08.2016 03:25 14,0 C 14,0 C 84 % 1013,4 hPa 0,0 mm 0,0 km/h (0 Bft) NW 325 0 min 0,000 mm 0,0 UV-I 0 W/m 11,3 C 0,0 km/h (0 Bft)
04.08.2016 03:26 14,0 C 14,0 C 84 % 1013,3 hPa 0,0 mm 0,0 km/h (0 Bft) NW 325 0 min 0,000 mm 0,0 UV-I 0 W/m 11,3 C 0,0 km/h (0 Bft)
04.08.2016 03:27 14,0 C 14,1 C 84 % 1013,3 hPa 0,0 mm 0,0 km/h (0 Bft) NW 325 0 min 0,000 mm 0,0 UV-I 0 W/m 11,3 C 0,0 km/h (0 Bft)
04.08.2016 03:28 13,9 C 14,0 C 85 % 1013,3 hPa 0,0 mm 0,0 km/h (0 Bft) NW 325 0 min 0,000 mm 0,0 UV-I 0 W/m 11,4 C 0,0 km/h (0 Bft)
04.08.2016 03:29 13,9 C 14,0 C 85 % 1013,3 hPa 0,0 mm 0,0 km/h (0 Bft) NW 325 0 min 0,000 mm 0,0 UV-I 0 W/m 11,4 C 0,0 km/h (0 Bft)
04.08.2016 03:30 14,0 C 14,0 C 85 % 1013,3 hPa 0,0 mm 0,0 km/h (0 Bft) NW 325 0 min 0,000 mm 0,0 UV-I 0 W/m 11,5 C 0,0 km/h (0 Bft)
04.08.2016 03:31 14,0 C 14,0 C 85 % 1013,3 hPa 0,0 mm 0,0 km/h (0 Bft) NW 325 0 min 0,000 mm 0,0 UV-I 0 W/m 11,5 C 0,0 km/h (0 Bft)
04.08.2016 03:32 14,1 C 14,1 C 84 % 1013,2 hPa 0,0 mm 0,0 km/h (0 Bft) NW 325 0 min 0,000 mm 0,0 UV-I 0 W/m 11,4 C 0,0 km/h (0 Bft)
04.08.2016 03:33 14,1 C 14,1 C 84 % 1013,2 hPa 0,0 mm 0,0 km/h (0 Bft) NW 325 0 min 0,000 mm 0,0 UV-I 0 W/m 11,4 C 0,0 km/h (0 Bft)
04.08.2016 03:34 14,2 C 14,2 C 84 % 1013,2 hPa 0,0 mm 0,6 km/h (0 Bft) NW 325 0 min 0,000 mm 0,0 UV-I 0 W/m 11,5 C 1,6 km/h (1 Bft)
04.08.2016 03:35 14,2 C 14,2 C 83 % 1013,2 hPa 0,0 mm 1,3 km/h (1 Bft) NW 324 0 min 0,000 mm 0,0 UV-I 0 W/m 11,4 C 3,2 km/h (1 Bft)
04.08.2016 03:36 14,2 C 14,2 C 83 % 1013,2 hPa 0,0 mm 1,9 km/h (1 Bft) NW 324 0 min 0,000 mm 0,0 UV-I 0 W/m 11,4 C 3,2 km/h (1 Bft)
04.08.2016 03:37 14,2 C 14,2 C 83 % 1013,2 hPa 0,0 mm 1,4 km/h (1 Bft) NW 324 0 min 0,000 mm 0,0 UV-I 0 W/m 11,4 C 3,2 km/h (1 Bft)
04.08.2016 03:38 14,2 C 14,2 C 83 % 1013,3 hPa 0,0 mm 2,7 km/h (1 Bft) W-NW 293 0 min 0,000 mm 0,0 UV-I 0 W/m 11,4 C 6,4 km/h (2 Bft)
04.08.2016 03:39 14,1 C 14,2 C 83 % 1013,2 hPa 0,0 mm 2,0 km/h (1 Bft) W-NW 294 0 min 0,000 mm 0,0 UV-I 0 W/m 11,3 C 3,2 km/h (1 Bft)
04.08.2016 03:40 14,0 C 14,1 C 83 % 1013,2 hPa 0,0 mm 0,5 km/h (0 Bft) W-NW 294 0 min 0,000 mm 0,0 UV-I 0 W/m 11,2 C 1,6 km/h (1 Bft)
04.08.2016 03:41 14,0 C 14,0 C 83 % 1013,2 hPa 0,0 mm 1,4 km/h (1 Bft) W-NW 294 0 min 0,000 mm 0,0 UV-I 0 W/m 11,2 C 3,2 km/h (1 Bft)
04.08.2016 03:42 14,0 C 14,0 C 83 % 1013,2 hPa 0,0 mm 1,2 km/h (1 Bft) W-NW 294 0 min 0,000 mm 0,0 UV-I 0 W/m 11,2 C 1,6 km/h (1 Bft)
04.08.2016 03:43 14,0 C 14,1 C 83 % 1013,2 hPa 0,0 mm 1,3 km/h (1 Bft) W-NW 294 0 min 0,000 mm 0,0 UV-I 0 W/m 11,2 C 1,6 km/h (1 Bft)
04.08.2016 03:44 14,0 C 14,1 C 83 % 1013,2 hPa 0,0 mm 1,0 km/h (0 Bft) W-NW 294 0 min 0,000 mm 0,0 UV-I 0 W/m 11,2 C 1,6 km/h (1 Bft)
04.08.2016 03:45 14,0 C 14,0 C 83 % 1013,2 hPa 0,0 mm 0,0 km/h (0 Bft) W-NW 294 0 min 0,000 mm 0,0 UV-I 0 W/m 11,2 C 0,0 km/h (0 Bft)
04.08.2016 03:46 14,0 C 14,0 C 83 % 1013,2 hPa 0,0 mm 0,0 km/h (0 Bft) W-NW 294 0 min 0,000 mm 0,0 UV-I 0 W/m 11,2 C 0,0 km/h (0 Bft)
04.08.2016 03:47 14,0 C 14,0 C 83 % 1013,2 hPa 0,0 mm 1,1 km/h (1 Bft) W-NW 294 0 min 0,000 mm 0,0 UV-I 0 W/m 11,2 C 3,2 km/h (1 Bft)
04.08.2016 03:48 13,9 C 14,0 C 83 % 1013,2 hPa 0,0 mm 1,5 km/h (1 Bft) W-NW 294 0 min 0,000 mm 0,0 UV-I 0 W/m 11,1 C 3,2 km/h (1 Bft)
04.08.2016 03:49 13,9 C 14,0 C 83 % 1013,2 hPa 0,0 mm 1,5 km/h (1 Bft) W-NW 294 0 min 0,000 mm 0,0 UV-I 0 W/m 11,1 C 3,2 km/h (1 Bft)
04.08.2016 03:50 13,9 C 14,0 C 83 % 1013,1 hPa 0,0 mm 0,5 km/h (0 Bft) W-NW 294 0 min 0,000 mm 0,0 UV-I 0 W/m 11,1 C 1,6 km/h (1 Bft)
04.08.2016 03:51 13,8 C 13,9 C 84 % 1013,1 hPa 0,0 mm 0,0 km/h (0 Bft) W-NW 294 0 min 0,000 mm 0,0 UV-I 0 W/m 11,1 C 0,0 km/h (0 Bft)
04.08.2016 03:52 13,8 C 13,8 C 84 % 1013,1 hPa 0,0 mm 0,1 km/h (0 Bft) W-NW 294 0 min 0,000 mm 0,0 UV-I 0 W/m 11,1 C 1,6 km/h (1 Bft)
04.08.2016 03:53 13,7 C 13,8 C 84 % 1013,2 hPa 0,0 mm 0,0 km/h (0 Bft) W-NW 294 0 min 0,000 mm 0,0 UV-I 0 W/m 11,0 C 0,0 km/h (0 Bft)
04.08.2016 03:54 13,7 C 13,7 C 84 % 1013,1 hPa 0,0 mm 0,0 km/h (0 Bft) W-NW 294 0 min 0,000 mm 0,0 UV-I 0 W/m 11,0 C 0,0 km/h (0 Bft)
04.08.2016 03:55 13,7 C 13,7 C 84 % 1013,1 hPa 0,0 mm 0,3 km/h (0 Bft) W-NW 294 0 min 0,000 mm 0,0 UV-I 0 W/m 11,0 C 1,6 km/h (1 Bft)
04.08.2016 03:56 13,7 C 13,7 C 84 % 1013,1 hPa 0,0 mm 0,3 km/h (0 Bft) W-NW 294 0 min 0,000 mm 0,0 UV-I 0 W/m 11,0 C 1,6 km/h (1 Bft)
04.08.2016 03:57 13,7 C 13,7 C 84 % 1013,1 hPa 0,0 mm 0,0 km/h (0 Bft) W-NW 294 0 min 0,000 mm 0,0 UV-I 0 W/m 11,0 C 0,0 km/h (0 Bft)
04.08.2016 03:58 13,7 C 13,7 C 84 % 1013,1 hPa 0,0 mm 0,0 km/h (0 Bft) W-NW 294 0 min 0,000 mm 0,0 UV-I 0 W/m 11,0 C 0,0 km/h (0 Bft)
04.08.2016 03:59 13,7 C 13,7 C 85 % 1013,1 hPa 0,0 mm 2,2 km/h (1 Bft) W-NW 294 0 min 0,000 mm 0,0 UV-I 0 W/m 11,2 C 4,8 km/h (1 Bft)
04.08.2016 04:00 13,7 C 13,7 C 85 % 1013,1 hPa 0,0 mm 0,8 km/h (0 Bft) W-NW 294 0 min 0,026 mm 0,0 UV-I 0 W/m 11,2 C 1,6 km/h (1 Bft)
04.08.2016 04:01 13,6 C 13,7 C 85 % 1013,1 hPa 0,0 mm 0,3 km/h (0 Bft) W-NW 294 0 min 0,000 mm 0,0 UV-I 0 W/m 11,1 C 1,6 km/h (1 Bft)
04.08.2016 04:02 13,6 C 13,6 C 85 % 1013,1 hPa 0,0 mm 0,5 km/h (0 Bft) W-NW 294 0 min 0,000 mm 0,0 UV-I 0 W/m 11,1 C 1,6 km/h (1 Bft)
04.08.2016 04:03 13,6 C 13,6 C 85 % 1013,1 hPa 0,0 mm 0,6 km/h (0 Bft) W-NW 294 0 min 0,000 mm 0,0 UV-I 0 W/m 11,1 C 1,6 km/h (1 Bft)
04.08.2016 04:04 13,6 C 13,6 C 85 % 1013,1 hPa 0,0 mm 0,0 km/h (0 Bft) W-NW 294 0 min 0,000 mm 0,0 UV-I 0 W/m 11,1 C 0,0 km/h (0 Bft)
04.08.2016 04:05 13,6 C 13,6 C 85 % 1013,1 hPa 0,0 mm 0,3 km/h (0 Bft) W-NW 294 0 min 0,000 mm 0,0 UV-I 0 W/m 11,1 C 1,6 km/h (1 Bft)
04.08.2016 04:06 13,6 C 13,6 C 85 % 1013,1 hPa 0,0 mm 1,1 km/h (1 Bft) W-NW 294 0 min 0,000 mm 0,0 UV-I 0 W/m 11,1 C 1,6 km/h (1 Bft)
04.08.2016 04:07 13,7 C 13,7 C 85 % 1013,1 hPa 0,0 mm 0,0 km/h (0 Bft) W-NW 294 0 min 0,000 mm 0,0 UV-I 0 W/m 11,2 C 0,0 km/h (0 Bft)
04.08.2016 04:08 13,7 C 13,7 C 85 % 1013,0 hPa 0,0 mm 0,1 km/h (0 Bft) W-NW 294 0 min 0,000 mm 0,0 UV-I 0 W/m 11,2 C 1,6 km/h (1 Bft)
04.08.2016 04:09 13,8 C 13,8 C 85 % 1013,0 hPa 0,0 mm 0,4 km/h (0 Bft) W-NW 294 0 min 0,000 mm 0,0 UV-I 0 W/m 11,3 C 1,6 km/h (1 Bft)
04.08.2016 04:10 13,8 C 13,8 C 85 % 1013,1 hPa 0,0 mm 0,0 km/h (0 Bft) W-NW 294 0 min 0,000 mm 0,0 UV-I 0 W/m 11,3 C 0,0 km/h (0 Bft)
04.08.2016 04:11 13,8 C 13,8 C 85 % 1013,1 hPa 0,0 mm 0,8 km/h (0 Bft) W-NW 294 0 min 0,000 mm 0,0 UV-I 0 W/m 11,3 C 3,2 km/h (1 Bft)
04.08.2016 04:12 13,8 C 13,8 C 85 % 1013,1 hPa 0,0 mm 0,0 km/h (0 Bft) W-NW 294 0 min 0,000 mm 0,0 UV-I 0 W/m 11,3 C 0,0 km/h (0 Bft)
04.08.2016 04:13 13,8 C 13,8 C 85 % 1013,1 hPa 0,0 mm 0,0 km/h (0 Bft) W-NW 294 0 min 0,000 mm 0,0 UV-I 0 W/m 11,3 C 0,0 km/h (0 Bft)
04.08.2016 04:14 13,8 C 13,8 C 85 % 1013,1 hPa 0,0 mm 0,0 km/h (0 Bft) W-NW 294 0 min 0,000 mm 0,0 UV-I 0 W/m 11,3 C 0,0 km/h (0 Bft)
04.08.2016 04:15 13,9 C 13,9 C 84 % 1013,1 hPa 0,0 mm 0,0 km/h (0 Bft) W-NW 294 0 min 0,000 mm 0,0 UV-I 0 W/m 11,2 C 0,0 km/h (0 Bft)
04.08.2016 04:16 14,1 C 14,1 C 84 % 1013,1 hPa 0,0 mm 0,0 km/h (0 Bft) W-NW 294 0 min 0,000 mm 0,0 UV-I 0 W/m 11,4 C 0,0 km/h (0 Bft)
04.08.2016 04:17 14,1 C 14,1 C 84 % 1013,1 hPa 0,0 mm 0,0 km/h (0 Bft) W-NW 294 0 min 0,000 mm 0,0 UV-I 0 W/m 11,4 C 0,0 km/h (0 Bft)
04.08.2016 04:18 14,1 C 14,1 C 84 % 1013,1 hPa 0,0 mm 0,0 km/h (0 Bft) W-NW 294 0 min 0,000 mm 0,0 UV-I 0 W/m 11,4 C 0,0 km/h (0 Bft)
04.08.2016 04:19 14,1 C 14,2 C 84 % 1013,1 hPa 0,0 mm 0,0 km/h (0 Bft) W-NW 294 0 min 0,000 mm 0,0 UV-I 0 W/m 11,4 C 0,0 km/h (0 Bft)
04.08.2016 04:20 14,2 C 14,2 C 83 % 1013,1 hPa 0,0 mm 0,0 km/h (0 Bft) W-NW 294 0 min 0,000 mm 0,0 UV-I 0 W/m 11,4 C 0,0 km/h (0 Bft)
04.08.2016 04:21 14,2 C 14,2 C 84 % 1013,1 hPa 0,0 mm 0,0 km/h (0 Bft) W-NW 294 0 min 0,000 mm 0,0 UV-I 0 W/m 11,5 C 0,0 km/h (0 Bft)
04.08.2016 04:22 14,2 C 14,2 C 83 % 1013,1 hPa 0,0 mm 0,0 km/h (0 Bft) W-NW 294 0 min 0,000 mm 0,0 UV-I 0 W/m 11,4 C 0,0 km/h (0 Bft)
04.08.2016 04:23 14,3 C 14,3 C 83 % 1013,0 hPa 0,0 mm 0,0 km/h (0 Bft) W-NW 294 0 min 0,000 mm 0,0 UV-I 0 W/m 11,5 C 0,0 km/h (0 Bft)
04.08.2016 04:24 14,2 C 14,3 C 83 % 1013,0 hPa 0,0 mm 0,0 km/h (0 Bft) W-NW 294 0 min 0,000 mm 0,0 UV-I 0 W/m 11,4 C 0,0 km/h (0 Bft)
04.08.2016 04:25 14,3 C 14,3 C 84 % 1013,0 hPa 0,0 mm 0,0 km/h (0 Bft) W-NW 294 0 min 0,000 mm 0,0 UV-I 0 W/m 11,6 C 0,0 km/h (0 Bft)
04.08.2016 04:26 14,2 C 14,3 C 83 % 1013,0 hPa 0,0 mm 0,0 km/h (0 Bft) W-NW 294 0 min 0,000 mm 0,0 UV-I 0 W/m 11,4 C 0,0 km/h (0 Bft)
04.08.2016 04:27 14,2 C 14,2 C 84 % 1013,0 hPa 0,0 mm 0,0 km/h (0 Bft) W-NW 294 0 min 0,000 mm 0,0 UV-I 0 W/m 11,5 C 0,0 km/h (0 Bft)
04.08.2016 04:28 14,2 C 14,2 C 84 % 1013,0 hPa 0,0 mm 0,0 km/h (0 Bft) W-NW 294 0 min 0,000 mm 0,0 UV-I 0 W/m 11,5 C 0,0 km/h (0 Bft)
04.08.2016 04:29 14,2 C 14,2 C 84 % 1013,0 hPa 0,0 mm 0,0 km/h (0 Bft) W-NW 294 0 min 0,000 mm 0,0 UV-I 0 W/m 11,5 C 0,0 km/h (0 Bft)
04.08.2016 04:30 14,1 C 14,2 C 84 % 1013,0 hPa 0,0 mm 0,0 km/h (0 Bft) W-NW 294 0 min 0,000 mm 0,0 UV-I 0 W/m 11,4 C 0,0 km/h (0 Bft)
04.08.2016 04:31 14,2 C 14,2 C 85 % 1013,0 hPa 0,0 mm 0,0 km/h (0 Bft) W-NW 294 0 min 0,000 mm 0,0 UV-I 0 W/m 11,7 C 0,0 km/h (0 Bft)
04.08.2016 04:32 14,1 C 14,2 C 84 % 1013,0 hPa 0,0 mm 0,0 km/h (0 Bft) W-NW 294 0 min 0,000 mm 0,0 UV-I 0 W/m 11,4 C 0,0 km/h (0 Bft)
04.08.2016 04:33 14,1 C 14,2 C 84 % 1013,0 hPa 0,0 mm 0,0 km/h (0 Bft) W-NW 294 0 min 0,000 mm 0,0 UV-I 0 W/m 11,4 C 0,0 km/h (0 Bft)
04.08.2016 04:34 14,2 C 14,2 C 84 % 1013,0 hPa 0,0 mm 0,0 km/h (0 Bft) W-NW 294 0 min 0,000 mm 0,0 UV-I 0 W/m 11,5 C 0,0 km/h (0 Bft)
04.08.2016 04:35 14,2 C 14,2 C 84 % 1013,0 hPa 0,0 mm 0,0 km/h (0 Bft) W-NW 294 0 min 0,000 mm 0,0 UV-I 0 W/m 11,5 C 0,0 km/h (0 Bft)
04.08.2016 04:36 14,2 C 14,2 C 84 % 1013,0 hPa 0,0 mm 0,0 km/h (0 Bft) W-NW 294 0 min 0,000 mm 0,0 UV-I 0 W/m 11,5 C 0,0 km/h (0 Bft)
04.08.2016 04:37 14,2 C 14,2 C 84 % 1013,0 hPa 0,0 mm 0,0 km/h (0 Bft) W-NW 294 0 min 0,000 mm 0,0 UV-I 0 W/m 11,5 C 0,0 km/h (0 Bft)
04.08.2016 04:38 14,3 C 14,3 C 84 % 1013,0 hPa 0,0 mm 0,0 km/h (0 Bft) W-NW 294 0 min 0,000 mm 0,0 UV-I 0 W/m 11,6 C 0,0 km/h (0 Bft)
04.08.2016 04:39 14,2 C 14,3 C 84 % 1013,0 hPa 0,0 mm 0,0 km/h (0 Bft) W-NW 294 0 min 0,000 mm 0,0 UV-I 0 W/m 11,5 C 0,0 km/h (0 Bft)
04.08.2016 04:40 14,2 C 14,2 C 84 % 1013,0 hPa 0,0 mm 0,0 km/h (0 Bft) W-NW 294 0 min 0,000 mm 0,0 UV-I 0 W/m 11,5 C 0,0 km/h (0 Bft)
04.08.2016 04:41 14,2 C 14,2 C 84 % 1013,0 hPa 0,0 mm 0,0 km/h (0 Bft) W-NW 294 0 min 0,000 mm 0,0 UV-I 0 W/m 11,5 C 0,0 km/h (0 Bft)
04.08.2016 04:42 14,2 C 14,2 C 84 % 1013,0 hPa 0,0 mm 0,0 km/h (0 Bft) W-NW 294 0 min 0,000 mm 0,0 UV-I 0 W/m 11,5 C 0,0 km/h (0 Bft)
04.08.2016 04:43 14,3 C 14,3 C 84 % 1012,9 hPa 0,0 mm 0,0 km/h (0 Bft) W-NW 294 0 min 0,000 mm 0,0 UV-I 0 W/m 11,6 C 0,0 km/h (0 Bft)
04.08.2016 04:44 14,3 C 14,3 C 84 % 1012,9 hPa 0,0 mm 0,0 km/h (0 Bft) W-NW 294 0 min 0,000 mm 0,0 UV-I 0 W/m 11,6 C 0,0 km/h (0 Bft)
04.08.2016 04:45 14,3 C 14,3 C 84 % 1013,0 hPa 0,0 mm 0,0 km/h (0 Bft) W-NW 294 0 min 0,000 mm 0,0 UV-I 0 W/m 11,6 C 0,0 km/h (0 Bft)
04.08.2016 04:46 14,3 C 14,3 C 84 % 1013,0 hPa 0,0 mm 0,0 km/h (0 Bft) W-NW 294 0 min 0,000 mm 0,0 UV-I 0 W/m 11,6 C 0,0 km/h (0 Bft)
04.08.2016 04:47 14,4 C 14,4 C 84 % 1013,0 hPa 0,0 mm 0,0 km/h (0 Bft) W-NW 294 0 min 0,000 mm 0,0 UV-I 0 W/m 11,7 C 0,0 km/h (0 Bft)
04.08.2016 04:48 14,4 C 14,4 C 84 % 1013,0 hPa 0,0 mm 0,0 km/h (0 Bft) W-NW 294 0 min 0,000 mm 0,0 UV-I 0 W/m 11,7 C 0,0 km/h (0 Bft)
04.08.2016 04:49 14,4 C 14,4 C 84 % 1013,0 hPa 0,0 mm 0,0 km/h (0 Bft) W-NW 294 0 min 0,000 mm 0,0 UV-I 0 W/m 11,7 C 0,0 km/h (0 Bft)
04.08.2016 04:50 14,4 C 14,4 C 84 % 1013,0 hPa 0,0 mm 0,0 km/h (0 Bft) W-NW 294 0 min 0,000 mm 0,0 UV-I 0 W/m 11,7 C 0,0 km/h (0 Bft)
04.08.2016 04:51 14,4 C 14,4 C 84 % 1013,0 hPa 0,0 mm 0,0 km/h (0 Bft) W-NW 294 0 min 0,000 mm 0,0 UV-I 0 W/m 11,7 C 0,0 km/h (0 Bft)
04.08.2016 04:52 14,5 C 14,5 C 83 % 1013,0 hPa 0,0 mm 0,0 km/h (0 Bft) W-NW 294 0 min 0,000 mm 0,0 UV-I 0 W/m 11,6 C 0,0 km/h (0 Bft)
04.08.2016 04:53 14,5 C 14,5 C 83 % 1013,0 hPa 0,0 mm 0,0 km/h (0 Bft) W-NW 294 0 min 0,000 mm 0,0 UV-I 0 W/m 11,6 C 0,0 km/h (0 Bft)
04.08.2016 04:54 14,6 C 14,6 C 83 % 1013,0 hPa 0,0 mm 0,0 km/h (0 Bft) W-NW 294 0 min 0,000 mm 0,0 UV-I 0 W/m 11,7 C 0,0 km/h (0 Bft)
04.08.2016 04:55 14,6 C 14,6 C 83 % 1013,0 hPa 0,0 mm 0,0 km/h (0 Bft) W-NW 294 0 min 0,000 mm 0,0 UV-I 0 W/m 11,7 C 0,0 km/h (0 Bft)
04.08.2016 04:56 14,6 C 14,6 C 83 % 1013,0 hPa 0,0 mm 0,0 km/h (0 Bft) W-NW 294 0 min 0,000 mm 0,0 UV-I 0 W/m 11,7 C 0,0 km/h (0 Bft)
04.08.2016 04:57 14,7 C 14,7 C 83 % 1013,0 hPa 0,0 mm 0,0 km/h (0 Bft) W-NW 294 0 min 0,000 mm 0,0 UV-I 0 W/m 11,8 C 0,0 km/h (0 Bft)
04.08.2016 04:58 14,7 C 14,7 C 83 % 1013,0 hPa 0,0 mm 0,0 km/h (0 Bft) W-NW 294 0 min 0,000 mm 0,0 UV-I 0 W/m 11,8 C 0,0 km/h (0 Bft)
04.08.2016 04:59 14,7 C 14,7 C 82 % 1013,0 hPa 0,0 mm 0,0 km/h (0 Bft) W-NW 294 0 min 0,000 mm 0,0 UV-I 0 W/m 11,7 C 0,0 km/h (0 Bft)
04.08.2016 05:00 14,7 C 14,7 C 82 % 1013,1 hPa 0,0 mm 0,0 km/h (0 Bft) W-NW 294 0 min 0,000 mm 0,0 UV-I 0 W/m 11,7 C 0,0 km/h (0 Bft)
04.08.2016 05:01 14,8 C 14,8 C 82 % 1013,0 hPa 0,0 mm 0,0 km/h (0 Bft) W-NW 294 0 min 0,000 mm 0,0 UV-I 0 W/m 11,8 C 0,0 km/h (0 Bft)
04.08.2016 05:02 14,8 C 14,8 C 82 % 1013,0 hPa 0,0 mm 0,0 km/h (0 Bft) W-NW 294 0 min 0,000 mm 0,0 UV-I 0 W/m 11,8 C 0,0 km/h (0 Bft)
04.08.2016 05:03 14,8 C 14,8 C 82 % 1013,0 hPa 0,0 mm 0,0 km/h (0 Bft) W-NW 294 0 min 0,000 mm 0,0 UV-I 0 W/m 11,8 C 0,0 km/h (0 Bft)
04.08.2016 05:04 14,8 C 14,8 C 82 % 1013,0 hPa 0,0 mm 0,0 km/h (0 Bft) W-NW 294 0 min 0,000 mm 0,0 UV-I 0 W/m 11,8 C 0,0 km/h (0 Bft)
04.08.2016 05:05 14,8 C 14,8 C 82 % 1013,0 hPa 0,0 mm 0,0 km/h (0 Bft) W-NW 294 0 min 0,000 mm 0,0 UV-I 0 W/m 11,8 C 0,0 km/h (0 Bft)
04.08.2016 05:06 14,8 C 14,8 C 82 % 1013,1 hPa 0,0 mm 0,0 km/h (0 Bft) W-NW 294 0 min 0,000 mm 0,0 UV-I 0 W/m 11,8 C 0,0 km/h (0 Bft)
04.08.2016 05:07 14,8 C 14,8 C 82 % 1013,0 hPa 0,0 mm 0,0 km/h (0 Bft) W-NW 294 0 min 0,000 mm 0,0 UV-I 0 W/m 11,8 C 0,0 km/h (0 Bft)
04.08.2016 05:08 14,8 C 14,8 C 82 % 1013,1 hPa 0,0 mm 0,0 km/h (0 Bft) W-NW 294 0 min 0,000 mm 0,0 UV-I 0 W/m 11,8 C 0,0 km/h (0 Bft)
04.08.2016 05:09 14,8 C 14,8 C 82 % 1013,1 hPa 0,0 mm 0,0 km/h (0 Bft) W-NW 294 0 min 0,000 mm 0,0 UV-I 0 W/m 11,8 C 0,0 km/h (0 Bft)
04.08.2016 05:10 14,8 C 14,8 C 82 % 1013,0 hPa 0,0 mm 0,0 km/h (0 Bft) W-NW 294 0 min 0,000 mm 0,0 UV-I 0 W/m 11,8 C 0,0 km/h (0 Bft)
04.08.2016 05:11 14,7 C 14,8 C 83 % 1013,0 hPa 0,0 mm 0,0 km/h (0 Bft) W-NW 294 0 min 0,000 mm 0,0 UV-I 0 W/m 11,8 C 0,0 km/h (0 Bft)
04.08.2016 05:12 14,6 C 14,7 C 84 % 1013,0 hPa 0,0 mm 0,0 km/h (0 Bft) W-NW 294 0 min 0,000 mm 0,0 UV-I 0 W/m 11,9 C 0,0 km/h (0 Bft)
04.08.2016 05:13 14,5 C 14,6 C 83 % 1013,0 hPa 0,0 mm 0,0 km/h (0 Bft) W-NW 294 0 min 0,000 mm 0,0 UV-I 0 W/m 11,6 C 0,0 km/h (0 Bft)
04.08.2016 05:14 14,4 C 14,5 C 84 % 1013,0 hPa 0,0 mm 0,0 km/h (0 Bft) W-NW 294 0 min 0,000 mm 0,0 UV-I 0 W/m 11,7 C 0,0 km/h (0 Bft)
04.08.2016 05:15 14,3 C 14,4 C 84 % 1013,0 hPa 0,0 mm 0,0 km/h (0 Bft) W-NW 294 0 min 0,000 mm 0,0 UV-I 0 W/m 11,6 C 0,0 km/h (0 Bft)
04.08.2016 05:16 14,3 C 14,3 C 84 % 1013,0 hPa 0,0 mm 0,0 km/h (0 Bft) W-NW 294 0 min 0,000 mm 0,0 UV-I 0 W/m 11,6 C 0,0 km/h (0 Bft)
04.08.2016 05:17 14,2 C 14,3 C 84 % 1013,0 hPa 0,0 mm 0,0 km/h (0 Bft) W-NW 294 0 min 0,000 mm 0,0 UV-I 0 W/m 11,5 C 0,0 km/h (0 Bft)
04.08.2016 05:18 14,1 C 14,2 C 85 % 1013,0 hPa 0,0 mm 0,0 km/h (0 Bft) W-NW 294 0 min 0,000 mm 0,0 UV-I 0 W/m 11,6 C 0,0 km/h (0 Bft)
04.08.2016 05:19 14,1 C 14,1 C 85 % 1012,9 hPa 0,0 mm 0,0 km/h (0 Bft) W-NW 294 0 min 0,000 mm 0,0 UV-I 0 W/m 11,6 C 0,0 km/h (0 Bft)
04.08.2016 05:20 14,1 C 14,1 C 85 % 1012,9 hPa 0,0 mm 0,0 km/h (0 Bft) W-NW 294 0 min 0,000 mm 0,0 UV-I 0 W/m 11,6 C 0,0 km/h (0 Bft)
04.08.2016 05:21 14,1 C 14,1 C 85 % 1012,9 hPa 0,0 mm 0,0 km/h (0 Bft) W-NW 294 0 min 0,000 mm 0,0 UV-I 0 W/m 11,6 C 0,0 km/h (0 Bft)
04.08.2016 05:22 14,0 C 14,1 C 85 % 1013,0 hPa 0,0 mm 0,0 km/h (0 Bft) W-NW 294 0 min 0,000 mm 0,0 UV-I 0 W/m 11,5 C 0,0 km/h (0 Bft)
04.08.2016 05:23 14,0 C 14,0 C 86 % 1013,0 hPa 0,0 mm 0,0 km/h (0 Bft) W-NW 294 0 min 0,000 mm 0,0 UV-I 0 W/m 11,7 C 0,0 km/h (0 Bft)
04.08.2016 05:24 13,9 C 14,0 C 86 % 1013,0 hPa 0,0 mm 0,0 km/h (0 Bft) W-NW 294 0 min 0,000 mm 0,0 UV-I 0 W/m 11,6 C 0,0 km/h (0 Bft)
04.08.2016 05:25 13,9 C 13,9 C 86 % 1013,0 hPa 0,0 mm 0,0 km/h (0 Bft) W-NW 294 0 min 0,000 mm 0,0 UV-I 0 W/m 11,6 C 0,0 km/h (0 Bft)
04.08.2016 05:26 13,8 C 13,9 C 86 % 1013,0 hPa 0,0 mm 0,0 km/h (0 Bft) W-NW 294 0 min 0,000 mm 0,0 UV-I 0 W/m 11,5 C 0,0 km/h (0 Bft)
04.08.2016 05:27 13,8 C 13,8 C 86 % 1013,0 hPa 0,0 mm 0,0 km/h (0 Bft) W-NW 294 0 min 0,000 mm 0,0 UV-I 0 W/m 11,5 C 0,0 km/h (0 Bft)
04.08.2016 05:28 13,8 C 13,8 C 86 % 1013,0 hPa 0,0 mm 0,0 km/h (0 Bft) W-NW 294 0 min 0,000 mm 0,0 UV-I 0 W/m 11,5 C 0,0 km/h (0 Bft)
04.08.2016 05:29 13,8 C 13,8 C 87 % 1012,9 hPa 0,0 mm 0,0 km/h (0 Bft) W-NW 294 0 min 0,000 mm 0,0 UV-I 0 W/m 11,7 C 0,0 km/h (0 Bft)
04.08.2016 05:30 13,8 C 13,8 C 87 % 1012,9 hPa 0,0 mm 0,0 km/h (0 Bft) W-NW 294 0 min 0,000 mm 0,0 UV-I 0 W/m 11,7 C 0,0 km/h (0 Bft)
04.08.2016 05:31 13,8 C 13,8 C 86 % 1013,0 hPa 0,0 mm 0,0 km/h (0 Bft) W-NW 294 0 min 0,000 mm 0,0 UV-I 0 W/m 11,5 C 0,0 km/h (0 Bft)
04.08.2016 05:32 13,8 C 13,8 C 87 % 1013,0 hPa 0,0 mm 0,0 km/h (0 Bft) W-NW 294 0 min 0,000 mm 0,0 UV-I 0 W/m 11,7 C 0,0 km/h (0 Bft)
04.08.2016 05:33 13,9 C 13,9 C 87 % 1013,0 hPa 0,0 mm 0,0 km/h (0 Bft) N 5 0 min 0,000 mm 0,0 UV-I 0 W/m 11,8 C 0,0 km/h (0 Bft)
04.08.2016 05:34 13,8 C 13,9 C 86 % 1012,9 hPa 0,0 mm 0,0 km/h (0 Bft) N 5 0 min 0,000 mm 0,0 UV-I 0 W/m 11,5 C 0,0 km/h (0 Bft)
04.08.2016 05:35 13,8 C 13,8 C 86 % 1013,0 hPa 0,0 mm 0,0 km/h (0 Bft) N 5 0 min 0,000 mm 0,0 UV-I 0 W/m 11,5 C 0,0 km/h (0 Bft)
04.08.2016 05:36 13,8 C 13,8 C 86 % 1012,9 hPa 0,0 mm 0,0 km/h (0 Bft) N 5 0 min 0,000 mm 0,0 UV-I 0 W/m 11,5 C 0,0 km/h (0 Bft)
04.08.2016 05:37 13,7 C 13,8 C 86 % 1013,0 hPa 0,0 mm 0,0 km/h (0 Bft) N 5 0 min 0,000 mm 0,0 UV-I 0 W/m 11,4 C 0,0 km/h (0 Bft)
04.08.2016 05:38 13,6 C 13,7 C 86 % 1013,0 hPa 0,0 mm 0,0 km/h (0 Bft) N 5 0 min 0,000 mm 0,0 UV-I 0 W/m 11,3 C 0,0 km/h (0 Bft)
04.08.2016 05:39 13,6 C 13,6 C 87 % 1013,0 hPa 0,0 mm 0,0 km/h (0 Bft) N 5 0 min 0,000 mm 0,0 UV-I 0 W/m 11,5 C 0,0 km/h (0 Bft)
04.08.2016 05:40 13,6 C 13,6 C 87 % 1013,0 hPa 0,0 mm 0,0 km/h (0 Bft) N 5 0 min 0,000 mm 0,0 UV-I 0 W/m 11,5 C 0,0 km/h (0 Bft)
04.08.2016 05:41 13,5 C 13,6 C 87 % 1012,9 hPa 0,0 mm 0,0 km/h (0 Bft) N 5 0 min 0,000 mm 0,0 UV-I 0 W/m 11,4 C 0,0 km/h (0 Bft)
04.08.2016 05:42 13,6 C 13,6 C 87 % 1013,0 hPa 0,0 mm 0,0 km/h (0 Bft) N 5 0 min 0,000 mm 0,0 UV-I 0 W/m 11,5 C 0,0 km/h (0 Bft)
04.08.2016 05:43 13,6 C 13,6 C 86 % 1013,0 hPa 0,0 mm 0,0 km/h (0 Bft) N 5 0 min 0,000 mm 0,0 UV-I 0 W/m 11,3 C 0,0 km/h (0 Bft)
04.08.2016 05:44 13,5 C 13,6 C 86 % 1012,9 hPa 0,0 mm 0,0 km/h (0 Bft) N 5 0 min 0,000 mm 0,0 UV-I 0 W/m 11,2 C 0,0 km/h (0 Bft)
04.08.2016 05:45 13,5 C 13,6 C 87 % 1012,9 hPa 0,0 mm 0,0 km/h (0 Bft) N 5 0 min 0,000 mm 0,0 UV-I 0 W/m 11,4 C 0,0 km/h (0 Bft)
04.08.2016 05:46 13,5 C 13,5 C 87 % 1012,9 hPa 0,0 mm 0,0 km/h (0 Bft) N 5 0 min 0,000 mm 0,0 UV-I 0 W/m 11,4 C 0,0 km/h (0 Bft)
04.08.2016 05:47 13,5 C 13,6 C 87 % 1012,8 hPa 0,0 mm 0,0 km/h (0 Bft) N 5 0 min 0,000 mm 0,0 UV-I 0 W/m 11,4 C 0,0 km/h (0 Bft)
04.08.2016 05:48 13,6 C 13,6 C 87 % 1012,8 hPa 0,0 mm 0,0 km/h (0 Bft) N 5 0 min 0,000 mm 0,0 UV-I 0 W/m 11,5 C 0,0 km/h (0 Bft)
04.08.2016 05:49 13,6 C 13,6 C 86 % 1012,8 hPa 0,0 mm 0,0 km/h (0 Bft) N 5 0 min 0,000 mm 0,0 UV-I 0 W/m 11,3 C 0,0 km/h (0 Bft)
04.08.2016 05:50 13,6 C 13,6 C 86 % 1012,8 hPa 0,0 mm 0,0 km/h (0 Bft) N 5 0 min 0,000 mm 0,0 UV-I 0 W/m 11,3 C 0,0 km/h (0 Bft)
04.08.2016 05:51 13,6 C 13,6 C 86 % 1012,8 hPa 0,0 mm 0,0 km/h (0 Bft) N 5 0 min 0,000 mm 0,0 UV-I 0 W/m 11,3 C 0,0 km/h (0 Bft)
04.08.2016 05:52 13,4 C 13,6 C 86 % 1012,8 hPa 0,0 mm 0,0 km/h (0 Bft) N 5 0 min 0,000 mm 0,0 UV-I 0 W/m 11,1 C 0,0 km/h (0 Bft)
04.08.2016 05:53 13,4 C 13,4 C 87 % 1012,8 hPa 0,0 mm 0,0 km/h (0 Bft) N 5 0 min 0,000 mm 0,0 UV-I 0 W/m 11,3 C 0,0 km/h (0 Bft)
04.08.2016 05:54 13,3 C 13,4 C 87 % 1012,8 hPa 0,0 mm 0,0 km/h (0 Bft) N 5 0 min 0,000 mm 0,0 UV-I 0 W/m 11,2 C 0,0 km/h (0 Bft)
04.08.2016 05:55 13,3 C 13,3 C 87 % 1012,7 hPa 0,0 mm 0,0 km/h (0 Bft) N 5 0 min 0,000 mm 0,0 UV-I 0 W/m 11,2 C 0,0 km/h (0 Bft)
04.08.2016 05:56 13,2 C 13,3 C 87 % 1012,7 hPa 0,0 mm 0,0 km/h (0 Bft) N 5 0 min 0,000 mm 0,0 UV-I 0 W/m 11,1 C 0,0 km/h (0 Bft)
04.08.2016 05:57 13,2 C 13,2 C 88 % 1012,7 hPa 0,0 mm 0,0 km/h (0 Bft) N 5 0 min 0,000 mm 0,0 UV-I 0 W/m 11,3 C 0,0 km/h (0 Bft)
04.08.2016 05:58 13,2 C 13,2 C 88 % 1012,7 hPa 0,0 mm 0,0 km/h (0 Bft) N 5 0 min 0,000 mm 0,0 UV-I 0 W/m 11,3 C 0,0 km/h (0 Bft)
04.08.2016 05:59 13,2 C 13,2 C 88 % 1012,7 hPa 0,0 mm 0,0 km/h (0 Bft) N 5 0 min 0,000 mm 0,0 UV-I 5 W/m 11,3 C 0,0 km/h (0 Bft)
04.08.2016 06:00 13,1 C 13,2 C 88 % 1012,7 hPa 0,0 mm 0,0 km/h (0 Bft) N 5 0 min 0,000 mm 0,0 UV-I 5 W/m 11,2 C 0,0 km/h (0 Bft)
04.08.2016 06:01 13,1 C 13,1 C 88 % 1012,7 hPa 0,0 mm 0,0 km/h (0 Bft) N 5 0 min 0,000 mm 0,0 UV-I 5 W/m 11,2 C 0,0 km/h (0 Bft)
04.08.2016 06:02 13,0 C 13,1 C 88 % 1012,7 hPa 0,0 mm 0,0 km/h (0 Bft) N 5 0 min 0,000 mm 0,0 UV-I 5 W/m 11,1 C 0,0 km/h (0 Bft)
04.08.2016 06:03 13,0 C 13,0 C 88 % 1012,7 hPa 0,0 mm 0,0 km/h (0 Bft) N 5 0 min 0,000 mm 0,0 UV-I 5 W/m 11,1 C 0,0 km/h (0 Bft)
04.08.2016 06:04 12,9 C 13,0 C 88 % 1012,7 hPa 0,0 mm 0,0 km/h (0 Bft) N 5 0 min 0,000 mm 0,0 UV-I 5 W/m 11,0 C 0,0 km/h (0 Bft)
04.08.2016 06:05 12,9 C 12,9 C 88 % 1012,7 hPa 0,0 mm 0,0 km/h (0 Bft) N 5 0 min 0,000 mm 0,0 UV-I 7 W/m 11,0 C 0,0 km/h (0 Bft)
04.08.2016 06:06 12,9 C 12,9 C 88 % 1012,7 hPa 0,0 mm 0,0 km/h (0 Bft) N 5 0 min 0,000 mm 0,0 UV-I 7 W/m 11,0 C 0,0 km/h (0 Bft)
04.08.2016 06:07 12,9 C 13,0 C 88 % 1012,7 hPa 0,0 mm 0,0 km/h (0 Bft) N 5 0 min 0,000 mm 0,0 UV-I 7 W/m 11,0 C 0,0 km/h (0 Bft)
04.08.2016 06:08 12,9 C 12,9 C 88 % 1012,7 hPa 0,0 mm 0,0 km/h (0 Bft) N 5 0 min 0,000 mm 0,0 UV-I 7 W/m 11,0 C 0,0 km/h (0 Bft)
04.08.2016 06:09 13,0 C 13,0 C 88 % 1012,7 hPa 0,0 mm 0,0 km/h (0 Bft) N 5 0 min 0,000 mm 0,0 UV-I 7 W/m 11,1 C 0,0 km/h (0 Bft)
04.08.2016 06:10 12,9 C 13,0 C 88 % 1012,7 hPa 0,0 mm 0,0 km/h (0 Bft) N 5 0 min 0,000 mm 0,0 UV-I 9 W/m 11,0 C 0,0 km/h (0 Bft)
04.08.2016 06:11 12,9 C 12,9 C 88 % 1012,7 hPa 0,0 mm 0,0 km/h (0 Bft) N 5 0 min 0,000 mm 0,0 UV-I 9 W/m 11,0 C 0,0 km/h (0 Bft)
04.08.2016 06:12 12,9 C 12,9 C 88 % 1012,7 hPa 0,0 mm 0,0 km/h (0 Bft) N 5 0 min 0,000 mm 0,0 UV-I 9 W/m 11,0 C 0,0 km/h (0 Bft)
04.08.2016 06:13 12,9 C 12,9 C 88 % 1012,7 hPa 0,0 mm 0,0 km/h (0 Bft) N 5 0 min 0,000 mm 0,0 UV-I 11 W/m 11,0 C 0,0 km/h (0 Bft)
04.08.2016 06:14 13,0 C 13,0 C 88 % 1012,7 hPa 0,0 mm 0,0 km/h (0 Bft) N 5 0 min 0,000 mm 0,0 UV-I 11 W/m 11,1 C 0,0 km/h (0 Bft)
04.08.2016 06:15 13,1 C 13,1 C 88 % 1012,7 hPa 0,0 mm 0,0 km/h (0 Bft) N 5 0 min 0,000 mm 0,0 UV-I 11 W/m 11,2 C 0,0 km/h (0 Bft)
04.08.2016 06:16 13,1 C 13,1 C 87 % 1012,7 hPa 0,0 mm 0,0 km/h (0 Bft) N 5 0 min 0,000 mm 0,0 UV-I 11 W/m 11,0 C 0,0 km/h (0 Bft)
04.08.2016 06:17 13,1 C 13,1 C 87 % 1012,7 hPa 0,0 mm 0,0 km/h (0 Bft) N 5 0 min 0,000 mm 0,0 UV-I 11 W/m 11,0 C 0,0 km/h (0 Bft)
04.08.2016 06:18 13,1 C 13,1 C 87 % 1012,7 hPa 0,0 mm 0,0 km/h (0 Bft) N 5 0 min 0,000 mm 0,0 UV-I 12 W/m 11,0 C 0,0 km/h (0 Bft)
04.08.2016 06:19 13,1 C 13,1 C 87 % 1012,7 hPa 0,0 mm 0,0 km/h (0 Bft) N 5 0 min 0,000 mm 0,0 UV-I 12 W/m 11,0 C 0,0 km/h (0 Bft)
04.08.2016 06:20 13,1 C 13,1 C 88 % 1012,7 hPa 0,0 mm 0,0 km/h (0 Bft) N 5 0 min 0,000 mm 0,0 UV-I 12 W/m 11,2 C 0,0 km/h (0 Bft)
04.08.2016 06:21 13,1 C 13,1 C 88 % 1012,7 hPa 0,0 mm 0,0 km/h (0 Bft) N 5 0 min 0,000 mm 0,0 UV-I 12 W/m 11,2 C 0,0 km/h (0 Bft)
04.08.2016 06:22 13,1 C 13,1 C 88 % 1012,7 hPa 0,0 mm 0,0 km/h (0 Bft) N 5 0 min 0,000 mm 0,0 UV-I 14 W/m 11,2 C 0,0 km/h (0 Bft)
04.08.2016 06:23 13,0 C 13,1 C 88 % 1012,8 hPa 0,0 mm 0,0 km/h (0 Bft) N 5 0 min 0,000 mm 0,0 UV-I 14 W/m 11,1 C 0,0 km/h (0 Bft)
04.08.2016 06:24 13,0 C 13,0 C 88 % 1012,7 hPa 0,0 mm 0,0 km/h (0 Bft) N 5 0 min 0,000 mm 0,0 UV-I 14 W/m 11,1 C 0,0 km/h (0 Bft)
04.08.2016 06:25 12,9 C 13,0 C 88 % 1012,8 hPa 0,0 mm 0,0 km/h (0 Bft) N 5 0 min 0,000 mm 0,0 UV-I 16 W/m 11,0 C 0,0 km/h (0 Bft)
04.08.2016 06:26 12,9 C 12,9 C 88 % 1012,7 hPa 0,0 mm 0,0 km/h (0 Bft) N 5 0 min 0,000 mm 0,0 UV-I 16 W/m 11,0 C 0,0 km/h (0 Bft)
04.08.2016 06:27 12,9 C 12,9 C 88 % 1012,8 hPa 0,0 mm 0,0 km/h (0 Bft) N 5 0 min 0,000 mm 0,0 UV-I 18 W/m 11,0 C 0,0 km/h (0 Bft)
04.08.2016 06:28 12,9 C 12,9 C 88 % 1012,8 hPa 0,0 mm 0,0 km/h (0 Bft) N 5 0 min 0,000 mm 0,0 UV-I 16 W/m 11,0 C 0,0 km/h (0 Bft)
04.08.2016 06:29 12,9 C 12,9 C 88 % 1012,8 hPa 0,0 mm 0,0 km/h (0 Bft) N 5 0 min 0,000 mm 0,0 UV-I 16 W/m 11,0 C 0,0 km/h (0 Bft)
04.08.2016 06:30 12,9 C 12,9 C 89 % 1012,8 hPa 0,0 mm 0,0 km/h (0 Bft) N 5 0 min 0,000 mm 0,0 UV-I 16 W/m 11,1 C 0,0 km/h (0 Bft)
04.08.2016 06:31 12,9 C 13,0 C 89 % 1012,7 hPa 0,0 mm 0,0 km/h (0 Bft) N 5 0 min 0,000 mm 0,0 UV-I 16 W/m 11,1 C 0,0 km/h (0 Bft)
04.08.2016 06:32 13,1 C 13,1 C 88 % 1012,7 hPa 0,0 mm 0,0 km/h (0 Bft) N 5 0 min 0,000 mm 0,0 UV-I 18 W/m 11,2 C 0,0 km/h (0 Bft)
04.08.2016 06:33 13,1 C 13,1 C 89 % 1012,8 hPa 0,0 mm 0,0 km/h (0 Bft) N 5 0 min 0,000 mm 0,0 UV-I 18 W/m 11,3 C 0,0 km/h (0 Bft)
04.08.2016 06:34 13,1 C 13,1 C 88 % 1012,8 hPa 0,0 mm 0,0 km/h (0 Bft) N 5 0 min 0,000 mm 0,0 UV-I 21 W/m 11,2 C 0,0 km/h (0 Bft)
04.08.2016 06:35 13,1 C 13,1 C 88 % 1012,7 hPa 0,0 mm 0,0 km/h (0 Bft) N 5 0 min 0,000 mm 0,0 UV-I 21 W/m 11,2 C 0,0 km/h (0 Bft)
04.08.2016 06:36 13,1 C 13,1 C 88 % 1012,7 hPa 0,0 mm 0,0 km/h (0 Bft) N 5 0 min 0,000 mm 0,0 UV-I 21 W/m 11,2 C 0,0 km/h (0 Bft)
04.08.2016 06:37 13,1 C 13,2 C 88 % 1012,7 hPa 0,0 mm 0,0 km/h (0 Bft) N 5 0 min 0,000 mm 0,0 UV-I 19 W/m 11,2 C 0,0 km/h (0 Bft)
04.08.2016 06:38 13,1 C 13,2 C 88 % 1012,8 hPa 0,0 mm 0,0 km/h (0 Bft) N 5 0 min 0,000 mm 0,0 UV-I 21 W/m 11,2 C 0,0 km/h (0 Bft)
04.08.2016 06:39 13,2 C 13,2 C 88 % 1012,7 hPa 0,0 mm 0,0 km/h (0 Bft) N 5 0 min 0,000 mm 0,0 UV-I 26 W/m 11,3 C 0,0 km/h (0 Bft)
04.08.2016 06:40 13,2 C 13,2 C 88 % 1012,7 hPa 0,0 mm 0,0 km/h (0 Bft) N 5 0 min 0,000 mm 0,0 UV-I 28 W/m 11,3 C 0,0 km/h (0 Bft)
04.08.2016 06:41 13,2 C 13,2 C 88 % 1012,7 hPa 0,0 mm 0,0 km/h (0 Bft) N 5 0 min 0,000 mm 0,0 UV-I 30 W/m 11,3 C 0,0 km/h (0 Bft)
04.08.2016 06:42 13,3 C 13,3 C 88 % 1012,7 hPa 0,0 mm 0,0 km/h (0 Bft) N 5 0 min 0,000 mm 0,0 UV-I 32 W/m 11,4 C 0,0 km/h (0 Bft)
04.08.2016 06:43 13,3 C 13,3 C 88 % 1012,7 hPa 0,0 mm 0,0 km/h (0 Bft) N 5 0 min 0,000 mm 0,0 UV-I 30 W/m 11,4 C 0,0 km/h (0 Bft)
04.08.2016 06:44 13,4 C 13,4 C 87 % 1012,7 hPa 0,0 mm 0,0 km/h (0 Bft) N 5 0 min 0,000 mm 0,0 UV-I 28 W/m 11,3 C 0,0 km/h (0 Bft)
04.08.2016 06:45 13,4 C 13,4 C 87 % 1012,7 hPa 0,0 mm 0,0 km/h (0 Bft) N 5 0 min 0,000 mm 0,0 UV-I 32 W/m 11,3 C 0,0 km/h (0 Bft)
04.08.2016 06:46 13,5 C 13,5 C 87 % 1012,7 hPa 0,0 mm 0,0 km/h (0 Bft) N 5 0 min 0,000 mm 0,0 UV-I 33 W/m 11,4 C 0,0 km/h (0 Bft)
04.08.2016 06:47 13,6 C 13,6 C 87 % 1012,7 hPa 0,0 mm 0,0 km/h (0 Bft) N 5 0 min 0,000 mm 0,0 UV-I 32 W/m 11,5 C 0,0 km/h (0 Bft)
04.08.2016 06:48 13,7 C 13,7 C 87 % 1012,7 hPa 0,0 mm 0,0 km/h (0 Bft) N 5 0 min 0,000 mm 0,0 UV-I 35 W/m 11,6 C 0,0 km/h (0 Bft)
04.08.2016 06:49 13,7 C 13,7 C 87 % 1012,7 hPa 0,0 mm 0,0 km/h (0 Bft) N 5 0 min 0,000 mm 0,0 UV-I 33 W/m 11,6 C 0,0 km/h (0 Bft)
04.08.2016 06:50 13,8 C 13,8 C 86 % 1012,7 hPa 0,0 mm 0,0 km/h (0 Bft) N 5 0 min 0,000 mm 0,0 UV-I 32 W/m 11,5 C 0,0 km/h (0 Bft)
04.08.2016 06:51 13,8 C 13,8 C 86 % 1012,7 hPa 0,0 mm 0,0 km/h (0 Bft) N 5 0 min 0,000 mm 0,0 UV-I 32 W/m 11,5 C 0,0 km/h (0 Bft)
04.08.2016 06:52 13,9 C 13,9 C 86 % 1012,7 hPa 0,0 mm 0,0 km/h (0 Bft) N 5 0 min 0,000 mm 0,0 UV-I 32 W/m 11,6 C 0,0 km/h (0 Bft)
04.08.2016 06:53 14,0 C 14,0 C 86 % 1012,7 hPa 0,0 mm 0,0 km/h (0 Bft) N 5 0 min 0,000 mm 0,0 UV-I 32 W/m 11,7 C 0,0 km/h (0 Bft)
04.08.2016 06:54 14,1 C 14,1 C 86 % 1012,7 hPa 0,0 mm 0,0 km/h (0 Bft) N 5 0 min 0,000 mm 0,0 UV-I 32 W/m 11,8 C 0,0 km/h (0 Bft)
04.08.2016 06:55 14,1 C 14,1 C 86 % 1012,7 hPa 0,0 mm 0,0 km/h (0 Bft) N 5 0 min 0,000 mm 0,0 UV-I 32 W/m 11,8 C 0,0 km/h (0 Bft)
04.08.2016 06:56 14,1 C 14,1 C 86 % 1012,7 hPa 0,0 mm 0,0 km/h (0 Bft) N 5 0 min 0,000 mm 0,0 UV-I 32 W/m 11,8 C 0,0 km/h (0 Bft)
04.08.2016 06:57 14,1 C 14,1 C 86 % 1012,7 hPa 0,0 mm 0,0 km/h (0 Bft) N 5 0 min 0,000 mm 0,0 UV-I 42 W/m 11,8 C 0,0 km/h (0 Bft)
04.08.2016 06:58 14,1 C 14,1 C 86 % 1012,7 hPa 0,0 mm 0,0 km/h (0 Bft) N 5 0 min 0,000 mm 0,0 UV-I 63 W/m 11,8 C 0,0 km/h (0 Bft)
04.08.2016 06:59 14,1 C 14,1 C 86 % 1012,7 hPa 0,0 mm 0,0 km/h (0 Bft) N 5 1 min 0,000 mm 0,0 UV-I 84 W/m 11,8 C 0,0 km/h (0 Bft)
04.08.2016 07:00 14,1 C 14,1 C 86 % 1012,7 hPa 0,0 mm 0,0 km/h (0 Bft) N 5 1 min 0,000 mm 0,0 UV-I 95 W/m 11,8 C 0,0 km/h (0 Bft)
04.08.2016 07:01 14,1 C 14,1 C 86 % 1012,7 hPa 0,0 mm 0,0 km/h (0 Bft) N 5 1 min 0,025 mm 0,0 UV-I 102 W/m 11,8 C 0,0 km/h (0 Bft)
04.08.2016 07:02 14,2 C 14,2 C 86 % 1012,7 hPa 0,0 mm 0,0 km/h (0 Bft) N 5 1 min 0,000 mm 0,0 UV-I 105 W/m 11,9 C 0,0 km/h (0 Bft)
04.08.2016 07:03 14,3 C 14,3 C 86 % 1012,7 hPa 0,0 mm 0,0 km/h (0 Bft) N 5 1 min 0,000 mm 0,0 UV-I 111 W/m 12,0 C 0,0 km/h (0 Bft)
04.08.2016 07:04 14,4 C 14,4 C 86 % 1012,7 hPa 0,0 mm 0,0 km/h (0 Bft) N 5 1 min 0,000 mm 0,0 UV-I 114 W/m 12,1 C 0,0 km/h (0 Bft)
04.08.2016 07:05 14,6 C 14,6 C 85 % 1012,7 hPa 0,0 mm 0,0 km/h (0 Bft) N 5 1 min 0,000 mm 0,0 UV-I 116 W/m 12,1 C 0,0 km/h (0 Bft)
04.08.2016 07:06 14,7 C 14,7 C 85 % 1012,7 hPa 0,0 mm 0,0 km/h (0 Bft) N 5 1 min 0,000 mm 0,0 UV-I 118 W/m 12,2 C 0,0 km/h (0 Bft)
04.08.2016 07:07 14,7 C 14,7 C 85 % 1012,7 hPa 0,0 mm 0,0 km/h (0 Bft) N 5 1 min 0,000 mm 0,0 UV-I 120 W/m 12,2 C 0,0 km/h (0 Bft)
04.08.2016 07:08 14,8 C 14,8 C 86 % 1012,7 hPa 0,0 mm 0,0 km/h (0 Bft) N 5 1 min 0,000 mm 0,0 UV-I 121 W/m 12,5 C 0,0 km/h (0 Bft)
04.08.2016 07:09 14,8 C 14,8 C 85 % 1012,7 hPa 0,0 mm 0,0 km/h (0 Bft) N 5 1 min 0,000 mm 0,5 UV-I 121 W/m 12,3 C 0,0 km/h (0 Bft)
04.08.2016 07:10 14,8 C 14,8 C 85 % 1012,7 hPa 0,0 mm 0,0 km/h (0 Bft) N 5 1 min 0,000 mm 0,5 UV-I 125 W/m 12,3 C 0,0 km/h (0 Bft)
04.08.2016 07:11 14,8 C 14,9 C 84 % 1012,7 hPa 0,0 mm 0,0 km/h (0 Bft) N 5 1 min 0,000 mm 0,5 UV-I 125 W/m 12,1 C 0,0 km/h (0 Bft)
04.08.2016 07:12 14,8 C 14,9 C 84 % 1012,7 hPa 0,0 mm 0,0 km/h (0 Bft) N 5 1 min 0,000 mm 0,5 UV-I 127 W/m 12,1 C 0,0 km/h (0 Bft)
04.08.2016 07:13 14,9 C 14,9 C 84 % 1012,7 hPa 0,0 mm 0,0 km/h (0 Bft) N 5 1 min 0,000 mm 0,5 UV-I 127 W/m 12,2 C 0,0 km/h (0 Bft)
04.08.2016 07:14 14,9 C 14,9 C 84 % 1012,7 hPa 0,0 mm 0,0 km/h (0 Bft) N 5 1 min 0,000 mm 0,5 UV-I 127 W/m 12,2 C 0,0 km/h (0 Bft)
04.08.2016 07:15 14,8 C 14,9 C 84 % 1012,7 hPa 0,0 mm 0,0 km/h (0 Bft) N 5 1 min 0,000 mm 0,5 UV-I 127 W/m 12,1 C 0,0 km/h (0 Bft)
04.08.2016 07:16 14,8 C 14,8 C 84 % 1012,7 hPa 0,0 mm 0,0 km/h (0 Bft) N 5 0 min 0,000 mm 0,5 UV-I 91 W/m 12,1 C 0,0 km/h (0 Bft)
04.08.2016 07:17 14,9 C 14,9 C 84 % 1012,7 hPa 0,0 mm 0,0 km/h (0 Bft) N 5 0 min 0,000 mm 0,5 UV-I 74 W/m 12,2 C 0,0 km/h (0 Bft)
04.08.2016 07:18 15,0 C 15,0 C 84 % 1012,7 hPa 0,0 mm 0,0 km/h (0 Bft) N 5 0 min 0,000 mm 0,5 UV-I 88 W/m 12,3 C 0,0 km/h (0 Bft)
04.08.2016 07:19 15,1 C 15,1 C 84 % 1012,7 hPa 0,0 mm 0,0 km/h (0 Bft) N 5 0 min 0,000 mm 0,5 UV-I 77 W/m 12,4 C 0,0 km/h (0 Bft)
04.08.2016 07:20 15,1 C 15,1 C 83 % 1012,7 hPa 0,0 mm 0,0 km/h (0 Bft) N 5 0 min 0,000 mm 0,5 UV-I 62 W/m 12,2 C 0,0 km/h (0 Bft)
04.08.2016 07:21 15,2 C 15,2 C 83 % 1012,8 hPa 0,0 mm 0,0 km/h (0 Bft) N 5 0 min 0,000 mm 0,0 UV-I 51 W/m 12,3 C 0,0 km/h (0 Bft)
04.08.2016 07:22 15,2 C 15,2 C 83 % 1012,8 hPa 0,0 mm 0,0 km/h (0 Bft) N 5 0 min 0,000 mm 0,0 UV-I 42 W/m 12,3 C 0,0 km/h (0 Bft)
04.08.2016 07:23 15,2 C 15,3 C 83 % 1012,8 hPa 0,0 mm 0,0 km/h (0 Bft) N 5 0 min 0,000 mm 0,0 UV-I 46 W/m 12,3 C 0,0 km/h (0 Bft)
04.08.2016 07:24 15,2 C 15,2 C 83 % 1012,8 hPa 0,0 mm 0,0 km/h (0 Bft) N 5 0 min 0,000 mm 0,6 UV-I 62 W/m 12,3 C 0,0 km/h (0 Bft)
04.08.2016 07:25 15,2 C 15,2 C 84 % 1012,8 hPa 0,0 mm 0,0 km/h (0 Bft) N 5 0 min 0,000 mm 0,6 UV-I 72 W/m 12,5 C 0,0 km/h (0 Bft)
04.08.2016 07:26 15,2 C 15,2 C 84 % 1012,8 hPa 0,0 mm 0,0 km/h (0 Bft) N 5 0 min 0,000 mm 0,6 UV-I 60 W/m 12,5 C 0,0 km/h (0 Bft)
04.08.2016 07:27 15,3 C 15,3 C 84 % 1012,7 hPa 0,0 mm 0,0 km/h (0 Bft) N 5 0 min 0,000 mm 0,0 UV-I 49 W/m 12,6 C 0,0 km/h (0 Bft)
04.08.2016 07:28 15,3 C 15,3 C 84 % 1012,7 hPa 0,0 mm 0,0 km/h (0 Bft) N 5 0 min 0,000 mm 0,0 UV-I 47 W/m 12,6 C 0,0 km/h (0 Bft)
04.08.2016 07:29 15,4 C 15,4 C 84 % 1012,7 hPa 0,0 mm 0,0 km/h (0 Bft) N 5 0 min 0,000 mm 0,0 UV-I 53 W/m 12,7 C 0,0 km/h (0 Bft)
04.08.2016 07:30 15,5 C 15,5 C 84 % 1012,8 hPa 0,0 mm 0,0 km/h (0 Bft) N 5 0 min 0,000 mm 0,0 UV-I 51 W/m 12,8 C 0,0 km/h (0 Bft)
04.08.2016 07:31 15,6 C 15,6 C 85 % 1012,8 hPa 0,0 mm 0,0 km/h (0 Bft) N 5 0 min 0,000 mm 0,0 UV-I 46 W/m 13,1 C 0,0 km/h (0 Bft)
04.08.2016 07:32 15,7 C 15,7 C 84 % 1012,8 hPa 0,0 mm 0,0 km/h (0 Bft) N 5 0 min 0,000 mm 0,0 UV-I 51 W/m 13,0 C 0,0 km/h (0 Bft)
04.08.2016 07:33 15,8 C 15,8 C 83 % 1012,8 hPa 0,0 mm 0,0 km/h (0 Bft) N 5 0 min 0,000 mm 0,6 UV-I 60 W/m 12,9 C 0,0 km/h (0 Bft)
04.08.2016 07:34 15,9 C 15,9 C 83 % 1012,8 hPa 0,0 mm 0,0 km/h (0 Bft) N 5 0 min 0,000 mm 0,6 UV-I 100 W/m 13,0 C 0,0 km/h (0 Bft)
04.08.2016 07:35 15,9 C 16,0 C 83 % 1012,8 hPa 0,0 mm 0,0 km/h (0 Bft) N 5 1 min 0,000 mm 0,7 UV-I 142 W/m 13,0 C 0,0 km/h (0 Bft)
04.08.2016 07:36 16,0 C 16,0 C 83 % 1012,8 hPa 0,0 mm 0,0 km/h (0 Bft) N 5 1 min 0,000 mm 0,8 UV-I 178 W/m 13,1 C 0,0 km/h (0 Bft)
04.08.2016 07:37 16,0 C 16,0 C 83 % 1012,8 hPa 0,0 mm 0,0 km/h (0 Bft) N 5 1 min 0,000 mm 0,8 UV-I 207 W/m 13,1 C 0,0 km/h (0 Bft)
04.08.2016 07:38 16,1 C 16,1 C 84 % 1012,8 hPa 0,0 mm 0,0 km/h (0 Bft) N 5 1 min 0,000 mm 0,8 UV-I 209 W/m 13,4 C 0,0 km/h (0 Bft)
04.08.2016 07:39 16,1 C 16,1 C 84 % 1012,8 hPa 0,0 mm 0,0 km/h (0 Bft) N 5 1 min 0,000 mm 0,8 UV-I 186 W/m 13,4 C 0,0 km/h (0 Bft)
04.08.2016 07:40 16,2 C 16,2 C 84 % 1012,8 hPa 0,0 mm 0,0 km/h (0 Bft) N 5 1 min 0,000 mm 0,8 UV-I 220 W/m 13,5 C 0,0 km/h (0 Bft)
04.08.2016 07:41 16,3 C 16,3 C 84 % 1012,8 hPa 0,0 mm 0,0 km/h (0 Bft) N 5 1 min 0,000 mm 0,9 UV-I 220 W/m 13,6 C 0,0 km/h (0 Bft)
04.08.2016 07:42 16,4 C 16,4 C 83 % 1012,8 hPa 0,0 mm 0,0 km/h (0 Bft) N 5 1 min 0,000 mm 0,9 UV-I 218 W/m 13,5 C 0,0 km/h (0 Bft)
04.08.2016 07:43 16,4 C 16,4 C 85 % 1012,8 hPa 0,0 mm 0,0 km/h (0 Bft) N 5 1 min 0,000 mm 0,9 UV-I 218 W/m 13,9 C 0,0 km/h (0 Bft)
04.08.2016 07:44 16,3 C 16,4 C 84 % 1012,8 hPa 0,0 mm 0,0 km/h (0 Bft) N 5 1 min 0,000 mm 0,9 UV-I 225 W/m 13,6 C 0,0 km/h (0 Bft)
04.08.2016 07:45 16,3 C 16,4 C 86 % 1012,8 hPa 0,0 mm 0,0 km/h (0 Bft) N 5 1 min 0,000 mm 1,0 UV-I 230 W/m 14,0 C 0,0 km/h (0 Bft)
04.08.2016 07:46 16,3 C 16,4 C 83 % 1012,8 hPa 0,0 mm 0,0 km/h (0 Bft) N 5 1 min 0,000 mm 1,0 UV-I 207 W/m 13,4 C 0,0 km/h (0 Bft)
04.08.2016 07:47 16,4 C 16,4 C 85 % 1012,8 hPa 0,0 mm 0,0 km/h (0 Bft) N 5 1 min 0,000 mm 0,9 UV-I 181 W/m 13,9 C 0,0 km/h (0 Bft)
04.08.2016 07:48 16,5 C 16,5 C 85 % 1012,8 hPa 0,0 mm 0,0 km/h (0 Bft) N 5 1 min 0,000 mm 0,9 UV-I 179 W/m 14,0 C 0,0 km/h (0 Bft)
04.08.2016 07:49 16,6 C 16,6 C 84 % 1012,7 hPa 0,0 mm 0,0 km/h (0 Bft) N 5 1 min 0,000 mm 1,0 UV-I 188 W/m 13,9 C 0,0 km/h (0 Bft)
04.08.2016 07:50 16,7 C 16,7 C 82 % 1012,7 hPa 0,0 mm 0,0 km/h (0 Bft) N 5 1 min 0,000 mm 1,0 UV-I 237 W/m 13,6 C 0,0 km/h (0 Bft)
04.08.2016 07:51 16,8 C 16,8 C 83 % 1012,8 hPa 0,0 mm 0,0 km/h (0 Bft) N 5 1 min 0,000 mm 1,0 UV-I 200 W/m 13,9 C 0,0 km/h (0 Bft)
04.08.2016 07:52 16,9 C 16,9 C 83 % 1012,8 hPa 0,0 mm 0,0 km/h (0 Bft) N 5 1 min 0,000 mm 1,1 UV-I 260 W/m 14,0 C 0,0 km/h (0 Bft)
04.08.2016 07:53 16,9 C 16,9 C 82 % 1012,8 hPa 0,0 mm 0,0 km/h (0 Bft) N 5 1 min 0,000 mm 1,1 UV-I 264 W/m 13,8 C 0,0 km/h (0 Bft)
04.08.2016 07:54 16,8 C 16,9 C 82 % 1012,8 hPa 0,0 mm 0,0 km/h (0 Bft) N 5 1 min 0,000 mm 1,1 UV-I 265 W/m 13,7 C 0,0 km/h (0 Bft)
04.08.2016 07:55 16,8 C 16,8 C 84 % 1012,8 hPa 0,0 mm 0,0 km/h (0 Bft) N 5 1 min 0,000 mm 1,1 UV-I 237 W/m 14,1 C 0,0 km/h (0 Bft)
04.08.2016 07:56 16,9 C 16,9 C 83 % 1012,8 hPa 0,0 mm 0,0 km/h (0 Bft) N 5 1 min 0,000 mm 1,1 UV-I 237 W/m 14,0 C 0,0 km/h (0 Bft)
04.08.2016 07:57 16,9 C 17,0 C 81 % 1012,8 hPa 0,0 mm 0,0 km/h (0 Bft) N 5 1 min 0,000 mm 1,1 UV-I 190 W/m 13,6 C 0,0 km/h (0 Bft)
04.08.2016 07:58 17,1 C 17,1 C 81 % 1012,7 hPa 0,0 mm 0,0 km/h (0 Bft) N 5 1 min 0,000 mm 1,1 UV-I 204 W/m 13,8 C 0,0 km/h (0 Bft)
04.08.2016 07:59 17,1 C 17,1 C 81 % 1012,8 hPa 0,0 mm 0,0 km/h (0 Bft) N 5 1 min 0,000 mm 1,1 UV-I 264 W/m 13,8 C 0,0 km/h (0 Bft)
04.08.2016 08:00 17,2 C 17,2 C 84 % 1012,8 hPa 0,0 mm 0,0 km/h (0 Bft) N 5 1 min 0,076 mm 1,2 UV-I 279 W/m 14,5 C 0,0 km/h (0 Bft)
04.08.2016 08:01 17,3 C 17,3 C 85 % 1012,8 hPa 0,0 mm 0,0 km/h (0 Bft) N 5 1 min 0,000 mm 1,3 UV-I 281 W/m 14,8 C 0,0 km/h (0 Bft)
04.08.2016 08:02 17,3 C 17,4 C 82 % 1012,8 hPa 0,0 mm 0,0 km/h (0 Bft) N 5 1 min 0,000 mm 1,3 UV-I 283 W/m 14,2 C 0,0 km/h (0 Bft)
04.08.2016 08:03 17,3 C 17,3 C 81 % 1012,8 hPa 0,0 mm 0,0 km/h (0 Bft) N 5 1 min 0,000 mm 1,3 UV-I 271 W/m 14,0 C 0,0 km/h (0 Bft)
04.08.2016 08:04 17,3 C 17,3 C 83 % 1012,8 hPa 0,0 mm 0,0 km/h (0 Bft) N 5 1 min 0,000 mm 1,3 UV-I 255 W/m 14,4 C 0,0 km/h (0 Bft)
04.08.2016 08:05 17,3 C 17,3 C 83 % 1012,8 hPa 0,0 mm 0,0 km/h (0 Bft) N 5 1 min 0,000 mm 1,3 UV-I 232 W/m 14,4 C 0,0 km/h (0 Bft)
04.08.2016 08:06 17,3 C 17,3 C 84 % 1012,8 hPa 0,0 mm 0,0 km/h (0 Bft) N 5 1 min 0,000 mm 1,3 UV-I 258 W/m 14,6 C 0,0 km/h (0 Bft)
04.08.2016 08:07 17,4 C 17,4 C 82 % 1012,8 hPa 0,0 mm 0,0 km/h (0 Bft) N 5 1 min 0,000 mm 1,3 UV-I 258 W/m 14,3 C 0,0 km/h (0 Bft)
04.08.2016 08:08 17,4 C 17,4 C 82 % 1012,8 hPa 0,0 mm 0,0 km/h (0 Bft) N 5 1 min 0,000 mm 1,3 UV-I 269 W/m 14,3 C 0,0 km/h (0 Bft)
04.08.2016 08:09 17,4 C 17,4 C 82 % 1012,8 hPa 0,0 mm 0,0 km/h (0 Bft) N 5 1 min 0,000 mm 1,4 UV-I 295 W/m 14,3 C 0,0 km/h (0 Bft)
04.08.2016 08:10 17,5 C 17,5 C 81 % 1012,8 hPa 0,0 mm 0,0 km/h (0 Bft) N 5 1 min 0,000 mm 1,3 UV-I 279 W/m 14,2 C 0,0 km/h (0 Bft)
04.08.2016 08:11 17,6 C 17,6 C 83 % 1012,8 hPa 0,0 mm 0,0 km/h (0 Bft) N 5 1 min 0,000 mm 1,4 UV-I 287 W/m 14,7 C 0,0 km/h (0 Bft)
04.08.2016 08:12 17,7 C 17,7 C 83 % 1012,8 hPa 0,0 mm 0,0 km/h (0 Bft) N 5 1 min 0,000 mm 1,3 UV-I 241 W/m 14,8 C 0,0 km/h (0 Bft)
04.08.2016 08:13 17,7 C 17,7 C 82 % 1012,8 hPa 0,0 mm 0,0 km/h (0 Bft) N 5 1 min 0,000 mm 1,5 UV-I 308 W/m 14,6 C 0,0 km/h (0 Bft)
04.08.2016 08:14 17,8 C 17,8 C 84 % 1012,8 hPa 0,0 mm 0,0 km/h (0 Bft) N 5 1 min 0,000 mm 1,5 UV-I 281 W/m 15,1 C 0,0 km/h (0 Bft)
04.08.2016 08:15 17,8 C 17,8 C 83 % 1012,8 hPa 0,0 mm 0,0 km/h (0 Bft) N 5 1 min 0,000 mm 1,5 UV-I 315 W/m 14,9 C 0,0 km/h (0 Bft)
04.08.2016 08:16 17,9 C 17,9 C 83 % 1012,8 hPa 0,0 mm 0,0 km/h (0 Bft) N 5 1 min 0,000 mm 1,5 UV-I 315 W/m 15,0 C 0,0 km/h (0 Bft)
04.08.2016 08:17 18,1 C 18,1 C 84 % 1012,8 hPa 0,0 mm 0,0 km/h (0 Bft) N 5 1 min 0,000 mm 1,5 UV-I 313 W/m 15,4 C 0,0 km/h (0 Bft)
04.08.2016 08:18 18,1 C 18,1 C 80 % 1012,8 hPa 0,0 mm 0,0 km/h (0 Bft) N 5 1 min 0,000 mm 1,6 UV-I 332 W/m 14,6 C 0,0 km/h (0 Bft)
04.08.2016 08:19 18,2 C 18,2 C 84 % 1012,8 hPa 0,0 mm 0,0 km/h (0 Bft) N 5 1 min 0,000 mm 1,5 UV-I 311 W/m 15,4 C 0,0 km/h (0 Bft)
04.08.2016 08:20 18,2 C 18,2 C 82 % 1012,8 hPa 0,0 mm 0,0 km/h (0 Bft) N 5 1 min 0,000 mm 1,5 UV-I 283 W/m 15,1 C 0,0 km/h (0 Bft)
04.08.2016 08:21 18,3 C 18,3 C 80 % 1012,8 hPa 0,0 mm 0,0 km/h (0 Bft) N 5 1 min 0,000 mm 1,6 UV-I 309 W/m 14,8 C 0,0 km/h (0 Bft)
04.08.2016 08:22 18,3 C 18,3 C 79 % 1012,8 hPa 0,0 mm 0,0 km/h (0 Bft) N 5 1 min 0,000 mm 1,6 UV-I 315 W/m 14,6 C 0,0 km/h (0 Bft)
04.08.2016 08:23 18,3 C 18,3 C 79 % 1012,8 hPa 0,0 mm 0,0 km/h (0 Bft) N 5 1 min 0,000 mm 1,5 UV-I 301 W/m 14,6 C 0,0 km/h (0 Bft)
04.08.2016 08:24 18,3 C 18,3 C 81 % 1012,8 hPa 0,0 mm 0,0 km/h (0 Bft) N 5 1 min 0,000 mm 1,7 UV-I 322 W/m 15,0 C 0,0 km/h (0 Bft)
04.08.2016 08:25 18,4 C 18,4 C 80 % 1012,8 hPa 0,0 mm 0,0 km/h (0 Bft) N 5 1 min 0,000 mm 1,7 UV-I 348 W/m 14,9 C 0,0 km/h (0 Bft)
04.08.2016 08:26 18,4 C 18,4 C 80 % 1012,8 hPa 0,0 mm 0,0 km/h (0 Bft) N 5 1 min 0,000 mm 1,8 UV-I 376 W/m 14,9 C 0,0 km/h (0 Bft)
04.08.2016 08:27 18,6 C 18,6 C 82 % 1012,9 hPa 0,0 mm 0,0 km/h (0 Bft) N 5 1 min 0,000 mm 1,8 UV-I 374 W/m 15,5 C 0,0 km/h (0 Bft)
04.08.2016 08:28 18,7 C 18,7 C 82 % 1012,9 hPa 0,0 mm 0,0 km/h (0 Bft) N 5 1 min 0,000 mm 1,8 UV-I 385 W/m 15,6 C 0,0 km/h (0 Bft)
04.08.2016 08:29 18,8 C 18,8 C 79 % 1012,9 hPa 0,0 mm 0,0 km/h (0 Bft) N 5 1 min 0,000 mm 1,6 UV-I 385 W/m 15,1 C 0,0 km/h (0 Bft)
04.08.2016 08:30 18,8 C 18,8 C 81 % 1012,9 hPa 0,0 mm 0,0 km/h (0 Bft) N 5 1 min 0,000 mm 1,9 UV-I 385 W/m 15,5 C 0,0 km/h (0 Bft)
04.08.2016 08:31 18,9 C 18,9 C 77 % 1012,9 hPa 0,0 mm 0,0 km/h (0 Bft) N 5 1 min 0,000 mm 1,8 UV-I 369 W/m 14,8 C 0,0 km/h (0 Bft)
04.08.2016 08:32 19,1 C 19,1 C 80 % 1012,9 hPa 0,0 mm 0,0 km/h (0 Bft) N 5 1 min 0,000 mm 1,9 UV-I 380 W/m 15,6 C 0,0 km/h (0 Bft)
04.08.2016 08:33 19,2 C 19,2 C 82 % 1012,8 hPa 0,0 mm 0,1 km/h (0 Bft) N 5 1 min 0,000 mm 1,8 UV-I 311 W/m 16,0 C 1,6 km/h (1 Bft)
04.08.2016 08:34 19,3 C 19,3 C 79 % 1012,8 hPa 0,0 mm 0,1 km/h (0 Bft) N 5 1 min 0,000 mm 1,8 UV-I 336 W/m 15,6 C 1,6 km/h (1 Bft)
04.08.2016 08:35 19,3 C 19,3 C 77 % 1012,9 hPa 0,0 mm 0,0 km/h (0 Bft) N 5 1 min 0,000 mm 1,9 UV-I 341 W/m 15,2 C 0,0 km/h (0 Bft)
04.08.2016 08:36 19,4 C 19,4 C 78 % 1012,8 hPa 0,0 mm 0,1 km/h (0 Bft) N 5 1 min 0,000 mm 1,9 UV-I 373 W/m 15,5 C 1,6 km/h (1 Bft)
04.08.2016 08:37 19,4 C 19,4 C 80 % 1012,8 hPa 0,0 mm 0,3 km/h (0 Bft) N 5 1 min 0,000 mm 2,0 UV-I 369 W/m 15,9 C 1,6 km/h (1 Bft)
04.08.2016 08:38 19,5 C 19,5 C 77 % 1012,8 hPa 0,0 mm 0,0 km/h (0 Bft) N 5 1 min 0,000 mm 2,0 UV-I 392 W/m 15,4 C 0,0 km/h (0 Bft)
04.08.2016 08:39 19,5 C 19,5 C 79 % 1012,8 hPa 0,0 mm 0,0 km/h (0 Bft) N 5 1 min 0,000 mm 2,0 UV-I 394 W/m 15,8 C 0,0 km/h (0 Bft)
04.08.2016 08:40 19,5 C 19,5 C 78 % 1012,8 hPa 0,0 mm 0,0 km/h (0 Bft) N 5 1 min 0,000 mm 2,0 UV-I 369 W/m 15,6 C 0,0 km/h (0 Bft)
04.08.2016 08:41 19,6 C 19,6 C 79 % 1012,8 hPa 0,0 mm 0,0 km/h (0 Bft) N 5 1 min 0,000 mm 2,1 UV-I 399 W/m 15,9 C 0,0 km/h (0 Bft)
04.08.2016 08:42 19,6 C 19,6 C 80 % 1012,8 hPa 0,0 mm 0,0 km/h (0 Bft) N 5 1 min 0,000 mm 2,1 UV-I 401 W/m 16,1 C 0,0 km/h (0 Bft)
04.08.2016 08:43 19,7 C 19,7 C 77 % 1012,8 hPa 0,0 mm 0,0 km/h (0 Bft) N 5 1 min 0,000 mm 2,1 UV-I 403 W/m 15,5 C 0,0 km/h (0 Bft)
04.08.2016 08:44 19,7 C 19,7 C 79 % 1012,8 hPa 0,0 mm 0,0 km/h (0 Bft) N 5 1 min 0,000 mm 2,2 UV-I 408 W/m 16,0 C 0,0 km/h (0 Bft)
04.08.2016 08:45 19,7 C 19,7 C 78 % 1012,8 hPa 0,0 mm 0,0 km/h (0 Bft) N 5 1 min 0,000 mm 2,2 UV-I 411 W/m 15,8 C 0,0 km/h (0 Bft)
04.08.2016 08:46 19,7 C 19,7 C 77 % 1012,8 hPa 0,0 mm 0,0 km/h (0 Bft) N 5 1 min 0,000 mm 2,1 UV-I 366 W/m 15,5 C 0,0 km/h (0 Bft)
04.08.2016 08:47 19,7 C 19,8 C 79 % 1012,8 hPa 0,0 mm 0,0 km/h (0 Bft) N 5 1 min 0,000 mm 2,2 UV-I 373 W/m 16,0 C 0,0 km/h (0 Bft)
04.08.2016 08:48 19,8 C 19,8 C 77 % 1012,8 hPa 0,0 mm 0,0 km/h (0 Bft) N 5 1 min 0,000 mm 2,3 UV-I 410 W/m 15,6 C 0,0 km/h (0 Bft)
04.08.2016 08:49 19,8 C 19,8 C 78 % 1012,8 hPa 0,0 mm 0,0 km/h (0 Bft) N 5 1 min 0,000 mm 2,3 UV-I 422 W/m 15,8 C 0,0 km/h (0 Bft)
04.08.2016 08:50 19,9 C 19,9 C 79 % 1012,9 hPa 0,0 mm 0,0 km/h (0 Bft) N 5 1 min 0,000 mm 2,3 UV-I 427 W/m 16,1 C 0,0 km/h (0 Bft)
04.08.2016 08:51 19,9 C 19,9 C 76 % 1012,9 hPa 0,0 mm 0,0 km/h (0 Bft) N 5 1 min 0,000 mm 2,4 UV-I 429 W/m 15,5 C 0,0 km/h (0 Bft)
04.08.2016 08:52 19,9 C 19,9 C 76 % 1012,9 hPa 0,0 mm 0,0 km/h (0 Bft) N 5 1 min 0,000 mm 2,4 UV-I 434 W/m 15,5 C 0,0 km/h (0 Bft)
04.08.2016 08:53 20,1 C 20,1 C 77 % 1012,9 hPa 0,0 mm 0,0 km/h (0 Bft) N 5 1 min 0,000 mm 2,4 UV-I 438 W/m 15,9 C 0,0 km/h (0 Bft)
04.08.2016 08:54 20,1 C 20,1 C 79 % 1012,9 hPa 0,0 mm 0,0 km/h (0 Bft) N 5 1 min 0,000 mm 2,4 UV-I 438 W/m 16,3 C 0,0 km/h (0 Bft)
04.08.2016 08:55 20,1 C 20,1 C 77 % 1012,9 hPa 0,0 mm 0,0 km/h (0 Bft) N 5 1 min 0,000 mm 2,4 UV-I 448 W/m 15,9 C 0,0 km/h (0 Bft)
04.08.2016 08:56 20,1 C 20,1 C 77 % 1012,8 hPa 0,0 mm 0,0 km/h (0 Bft) N 5 1 min 0,000 mm 2,5 UV-I 450 W/m 15,9 C 0,0 km/h (0 Bft)
04.08.2016 08:57 20,2 C 20,2 C 76 % 1012,8 hPa 0,0 mm 0,0 km/h (0 Bft) N 5 1 min 0,000 mm 2,5 UV-I 454 W/m 15,8 C 0,0 km/h (0 Bft)
04.08.2016 08:58 20,3 C 20,3 C 77 % 1012,8 hPa 0,0 mm 0,0 km/h (0 Bft) N 5 1 min 0,000 mm 2,5 UV-I 448 W/m 16,1 C 0,0 km/h (0 Bft)
04.08.2016 08:59 20,4 C 20,4 C 79 % 1012,8 hPa 0,0 mm 0,0 km/h (0 Bft) N 5 1 min 0,000 mm 2,2 UV-I 373 W/m 16,6 C 0,0 km/h (0 Bft)
04.08.2016 09:00 20,4 C 20,4 C 80 % 1012,8 hPa 0,0 mm 0,0 km/h (0 Bft) N 5 1 min 0,203 mm 2,3 UV-I 350 W/m 16,8 C 0,0 km/h (0 Bft)
04.08.2016 09:01 20,4 C 20,4 C 77 % 1012,8 hPa 0,0 mm 0,0 km/h (0 Bft) N 5 1 min 0,000 mm 2,4 UV-I 350 W/m 16,2 C 0,0 km/h (0 Bft)
04.08.2016 09:02 20,4 C 20,4 C 78 % 1012,9 hPa 0,0 mm 0,0 km/h (0 Bft) N 5 1 min 0,000 mm 2,6 UV-I 469 W/m 16,4 C 0,0 km/h (0 Bft)
04.08.2016 09:03 20,4 C 20,4 C 78 % 1012,8 hPa 0,0 mm 0,0 km/h (0 Bft) N 5 1 min 0,000 mm 2,7 UV-I 461 W/m 16,4 C 0,0 km/h (0 Bft)
04.08.2016 09:04 20,5 C 20,6 C 78 % 1012,8 hPa 0,0 mm 0,0 km/h (0 Bft) N 5 1 min 0,000 mm 2,7 UV-I 468 W/m 16,5 C 0,0 km/h (0 Bft)
04.08.2016 09:05 20,6 C 20,6 C 77 % 1012,8 hPa 0,0 mm 0,0 km/h (0 Bft) N 5 1 min 0,000 mm 2,7 UV-I 468 W/m 16,4 C 0,0 km/h (0 Bft)
04.08.2016 09:06 20,7 C 20,7 C 77 % 1012,8 hPa 0,0 mm 0,0 km/h (0 Bft) N 5 1 min 0,000 mm 2,7 UV-I 483 W/m 16,5 C 0,0 km/h (0 Bft)
04.08.2016 09:07 20,8 C 20,8 C 74 % 1012,8 hPa 0,0 mm 0,0 km/h (0 Bft) N 5 1 min 0,000 mm 2,7 UV-I 489 W/m 16,0 C 0,0 km/h (0 Bft)
04.08.2016 09:08 20,9 C 20,9 C 79 % 1012,8 hPa 0,0 mm 0,0 km/h (0 Bft) N 5 1 min 0,000 mm 2,8 UV-I 476 W/m 17,1 C 0,0 km/h (0 Bft)
04.08.2016 09:09 21,0 C 21,1 C 77 % 1012,8 hPa 0,0 mm 0,0 km/h (0 Bft) N 5 1 min 0,000 mm 2,8 UV-I 490 W/m 16,8 C 0,0 km/h (0 Bft)
04.08.2016 09:10 20,9 C 21,1 C 74 % 1012,8 hPa 0,0 mm 0,0 km/h (0 Bft) N 5 1 min 0,000 mm 2,9 UV-I 496 W/m 16,1 C 0,0 km/h (0 Bft)
04.08.2016 09:11 20,8 C 20,9 C 74 % 1012,8 hPa 0,0 mm 0,0 km/h (0 Bft) N 5 1 min 0,000 mm 2,9 UV-I 501 W/m 16,0 C 0,0 km/h (0 Bft)
04.08.2016 09:12 20,8 C 20,8 C 74 % 1012,8 hPa 0,0 mm 0,0 km/h (0 Bft) N 5 1 min 0,000 mm 2,9 UV-I 510 W/m 16,0 C 0,0 km/h (0 Bft)
04.08.2016 09:13 20,8 C 20,8 C 76 % 1012,8 hPa 0,0 mm 0,0 km/h (0 Bft) N 5 1 min 0,000 mm 2,9 UV-I 483 W/m 16,4 C 0,0 km/h (0 Bft)
04.08.2016 09:14 20,9 C 20,9 C 73 % 1012,7 hPa 0,0 mm 0,0 km/h (0 Bft) N-NO 28 1 min 0,000 mm 2,8 UV-I 483 W/m 15,9 C 0,0 km/h (0 Bft)
04.08.2016 09:15 20,9 C 20,9 C 73 % 1012,7 hPa 0,0 mm 0,0 km/h (0 Bft) N-NO 28 1 min 0,000 mm 2,9 UV-I 497 W/m 15,9 C 0,0 km/h (0 Bft)
04.08.2016 09:16 21,0 C 21,1 C 73 % 1012,7 hPa 0,0 mm 0,0 km/h (0 Bft) N-NO 28 1 min 0,000 mm 2,9 UV-I 483 W/m 16,0 C 0,0 km/h (0 Bft)
04.08.2016 09:17 21,1 C 21,1 C 77 % 1012,7 hPa 0,0 mm 0,0 km/h (0 Bft) N-NO 28 1 min 0,000 mm 2,8 UV-I 475 W/m 16,9 C 0,0 km/h (0 Bft)
04.08.2016 09:18 21,1 C 21,1 C 75 % 1012,7 hPa 0,0 mm 0,0 km/h (0 Bft) N-NO 29 1 min 0,000 mm 2,8 UV-I 468 W/m 16,5 C 0,0 km/h (0 Bft)
04.08.2016 09:19 20,9 C 21,1 C 74 % 1012,7 hPa 0,0 mm 0,0 km/h (0 Bft) N-NO 28 1 min 0,000 mm 3,0 UV-I 526 W/m 16,1 C 0,0 km/h (0 Bft)
04.08.2016 09:20 20,9 C 20,9 C 76 % 1012,6 hPa 0,0 mm 0,0 km/h (0 Bft) N-NO 29 1 min 0,000 mm 3,1 UV-I 513 W/m 16,5 C 0,0 km/h (0 Bft)
04.08.2016 09:21 20,9 C 20,9 C 73 % 1012,7 hPa 0,0 mm 0,0 km/h (0 Bft) N-NO 29 1 min 0,000 mm 2,8 UV-I 452 W/m 15,9 C 0,0 km/h (0 Bft)
04.08.2016 09:22 21,0 C 21,0 C 76 % 1012,6 hPa 0,0 mm 0,0 km/h (0 Bft) N-NO 28 1 min 0,000 mm 2,8 UV-I 404 W/m 16,6 C 0,0 km/h (0 Bft)
04.08.2016 09:23 21,0 C 21,0 C 73 % 1012,6 hPa 0,0 mm 0,0 km/h (0 Bft) N-NO 29 1 min 0,000 mm 3,0 UV-I 448 W/m 16,0 C 0,0 km/h (0 Bft)
04.08.2016 09:24 21,0 C 21,0 C 72 % 1012,7 hPa 0,0 mm 0,0 km/h (0 Bft) N-NO 28 1 min 0,000 mm 3,2 UV-I 534 W/m 15,8 C 0,0 km/h (0 Bft)
04.08.2016 09:25 21,1 C 21,1 C 72 % 1012,6 hPa 0,0 mm 0,0 km/h (0 Bft) N-NO 29 1 min 0,000 mm 3,2 UV-I 557 W/m 15,8 C 0,0 km/h (0 Bft)
04.08.2016 09:26 21,1 C 21,1 C 72 % 1012,6 hPa 0,0 mm 0,0 km/h (0 Bft) N-NO 28 1 min 0,000 mm 3,2 UV-I 563 W/m 15,8 C 0,0 km/h (0 Bft)
04.08.2016 09:27 21,1 C 21,2 C 72 % 1012,6 hPa 0,0 mm 0,0 km/h (0 Bft) N-NO 29 1 min 0,000 mm 2,8 UV-I 563 W/m 15,8 C 0,0 km/h (0 Bft)
04.08.2016 09:28 21,1 C 21,1 C 73 % 1012,6 hPa 0,0 mm 0,0 km/h (0 Bft) N-NO 30 1 min 0,000 mm 3,0 UV-I 478 W/m 16,1 C 0,0 km/h (0 Bft)
04.08.2016 09:29 21,1 C 21,1 C 74 % 1012,6 hPa 0,0 mm 0,0 km/h (0 Bft) NO 42 1 min 0,000 mm 3,1 UV-I 469 W/m 16,3 C 0,0 km/h (0 Bft)
04.08.2016 09:30 21,0 C 21,1 C 72 % 1012,6 hPa 0,0 mm 0,0 km/h (0 Bft) NO 42 1 min 0,000 mm 2,8 UV-I 434 W/m 15,8 C 0,0 km/h (0 Bft)
04.08.2016 09:31 20,9 C 21,0 C 74 % 1012,6 hPa 0,0 mm 0,0 km/h (0 Bft) NO 42 1 min 0,000 mm 2,5 UV-I 343 W/m 16,1 C 0,0 km/h (0 Bft)
04.08.2016 09:32 20,8 C 20,9 C 72 % 1012,6 hPa 0,0 mm 0,0 km/h (0 Bft) NO 42 1 min 0,000 mm 2,9 UV-I 499 W/m 15,6 C 0,0 km/h (0 Bft)
04.08.2016 09:33 20,8 C 20,8 C 73 % 1012,5 hPa 0,0 mm 0,0 km/h (0 Bft) NO 42 1 min 0,000 mm 2,6 UV-I 499 W/m 15,8 C 0,0 km/h (0 Bft)
04.08.2016 09:34 20,7 C 20,8 C 74 % 1012,6 hPa 0,0 mm 0,0 km/h (0 Bft) NO 42 1 min 0,000 mm 2,9 UV-I 436 W/m 15,9 C 0,0 km/h (0 Bft)
04.08.2016 09:35 20,6 C 20,7 C 71 % 1012,5 hPa 0,0 mm 0,0 km/h (0 Bft) NO 42 1 min 0,000 mm 2,7 UV-I 450 W/m 15,2 C 0,0 km/h (0 Bft)
04.08.2016 09:36 20,7 C 20,7 C 73 % 1012,5 hPa 0,0 mm 0,0 km/h (0 Bft) NO 42 1 min 0,000 mm 2,6 UV-I 450 W/m 15,7 C 0,0 km/h (0 Bft)
04.08.2016 09:37 20,6 C 20,7 C 72 % 1012,5 hPa 0,0 mm 0,0 km/h (0 Bft) NO 42 1 min 0,000 mm 3,1 UV-I 522 W/m 15,4 C 0,0 km/h (0 Bft)
04.08.2016 09:38 20,7 C 20,7 C 71 % 1012,6 hPa 0,0 mm 0,0 km/h (0 Bft) NO 42 1 min 0,000 mm 2,8 UV-I 427 W/m 15,2 C 0,0 km/h (0 Bft)
04.08.2016 09:39 20,8 C 20,8 C 72 % 1012,6 hPa 0,0 mm 0,0 km/h (0 Bft) NO 42 1 min 0,000 mm 2,7 UV-I 357 W/m 15,6 C 0,0 km/h (0 Bft)
04.08.2016 09:40 21,1 C 21,1 C 75 % 1012,6 hPa 0,0 mm 0,0 km/h (0 Bft) NO 42 1 min 0,000 mm 3,1 UV-I 446 W/m 16,5 C 0,0 km/h (0 Bft)
04.08.2016 09:41 21,3 C 21,3 C 72 % 1012,6 hPa 0,0 mm 0,0 km/h (0 Bft) NO 42 1 min 0,000 mm 3,1 UV-I 464 W/m 16,0 C 0,0 km/h (0 Bft)
04.08.2016 09:42 21,3 C 21,3 C 69 % 1012,6 hPa 0,0 mm 0,0 km/h (0 Bft) NO 42 1 min 0,000 mm 2,7 UV-I 390 W/m 15,4 C 0,0 km/h (0 Bft)
04.08.2016 09:43 21,3 C 21,3 C 68 % 1012,6 hPa 0,0 mm 0,0 km/h (0 Bft) NO 42 1 min 0,000 mm 2,9 UV-I 325 W/m 15,1 C 0,0 km/h (0 Bft)
04.08.2016 09:44 21,2 C 21,3 C 71 % 1012,6 hPa 0,0 mm 0,0 km/h (0 Bft) NO 42 1 min 0,000 mm 3,0 UV-I 397 W/m 15,7 C 0,0 km/h (0 Bft)
04.08.2016 09:45 21,2 C 21,2 C 71 % 1012,6 hPa 0,0 mm 0,0 km/h (0 Bft) NO 42 1 min 0,000 mm 3,2 UV-I 404 W/m 15,7 C 0,0 km/h (0 Bft)
04.08.2016 09:46 21,1 C 21,2 C 69 % 1012,6 hPa 0,0 mm 0,0 km/h (0 Bft) NO 42 1 min 0,000 mm 2,7 UV-I 378 W/m 15,2 C 0,0 km/h (0 Bft)
04.08.2016 09:47 21,0 C 21,1 C 73 % 1012,6 hPa 0,0 mm 0,0 km/h (0 Bft) NO 42 1 min 0,000 mm 3,0 UV-I 431 W/m 16,0 C 0,0 km/h (0 Bft)
04.08.2016 09:48 20,9 C 21,0 C 73 % 1012,6 hPa 0,0 mm 0,0 km/h (0 Bft) NO 42 1 min 0,000 mm 3,1 UV-I 399 W/m 15,9 C 0,0 km/h (0 Bft)
04.08.2016 09:49 21,0 C 21,1 C 74 % 1012,6 hPa 0,0 mm 0,0 km/h (0 Bft) NO 42 1 min 0,000 mm 3,3 UV-I 497 W/m 16,2 C 0,0 km/h (0 Bft)
04.08.2016 09:50 21,1 C 21,1 C 75 % 1012,6 hPa 0,0 mm 0,0 km/h (0 Bft) NO 42 1 min 0,000 mm 3,7 UV-I 563 W/m 16,5 C 0,0 km/h (0 Bft)
04.08.2016 09:51 21,2 C 21,2 C 74 % 1012,6 hPa 0,0 mm 0,0 km/h (0 Bft) NO 42 1 min 0,000 mm 3,6 UV-I 571 W/m 16,4 C 0,0 km/h (0 Bft)
04.08.2016 09:52 21,2 C 21,2 C 72 % 1012,5 hPa 0,0 mm 0,0 km/h (0 Bft) NO 42 1 min 0,000 mm 3,7 UV-I 570 W/m 15,9 C 0,0 km/h (0 Bft)
04.08.2016 09:53 21,3 C 21,3 C 73 % 1012,6 hPa 0,0 mm 0,0 km/h (0 Bft) NO 42 1 min 0,000 mm 3,6 UV-I 482 W/m 16,3 C 0,0 km/h (0 Bft)
04.08.2016 09:54 21,4 C 21,4 C 70 % 1012,5 hPa 0,0 mm 0,0 km/h (0 Bft) NO 42 1 min 0,000 mm 3,8 UV-I 557 W/m 15,7 C 0,0 km/h (0 Bft)
04.08.2016 09:55 21,7 C 21,7 C 74 % 1012,5 hPa 0,0 mm 0,0 km/h (0 Bft) NO 42 1 min 0,000 mm 3,3 UV-I 527 W/m 16,9 C 0,0 km/h (0 Bft)
04.08.2016 09:56 21,7 C 21,7 C 71 % 1012,6 hPa 0,0 mm 0,0 km/h (0 Bft) NO 42 1 min 0,000 mm 3,5 UV-I 584 W/m 16,2 C 0,0 km/h (0 Bft)
04.08.2016 09:57 21,7 C 21,8 C 72 % 1012,5 hPa 0,0 mm 0,0 km/h (0 Bft) NO 42 1 min 0,000 mm 3,4 UV-I 540 W/m 16,4 C 0,0 km/h (0 Bft)
04.08.2016 09:58 21,8 C 21,8 C 69 % 1012,5 hPa 0,0 mm 0,0 km/h (0 Bft) NO 42 1 min 0,000 mm 3,6 UV-I 541 W/m 15,9 C 0,0 km/h (0 Bft)
04.08.2016 09:59 21,9 C 21,9 C 70 % 1012,5 hPa 0,0 mm 0,0 km/h (0 Bft) NO 42 1 min 0,000 mm 3,5 UV-I 510 W/m 16,2 C 0,0 km/h (0 Bft)
04.08.2016 10:00 22,1 C 22,1 C 72 % 1012,5 hPa 0,0 mm 0,0 km/h (0 Bft) NO 42 1 min 0,280 mm 3,7 UV-I 552 W/m 16,8 C 0,0 km/h (0 Bft)
04.08.2016 10:01 22,3 C 22,3 C 67 % 1012,5 hPa 0,0 mm 3,2 km/h (1 Bft) O-NO 63 1 min 0,000 mm 3,9 UV-I 561 W/m 15,9 C 4,8 km/h (1 Bft)
04.08.2016 10:02 22,2 C 22,3 C 72 % 1012,5 hPa 0,0 mm 1,2 km/h (1 Bft) O-NO 63 1 min 0,000 mm 4,0 UV-I 605 W/m 16,9 C 3,2 km/h (1 Bft)
04.08.2016 10:03 22,1 C 22,2 C 67 % 1012,5 hPa 0,0 mm 0,8 km/h (0 Bft) O-NO 63 1 min 0,000 mm 3,8 UV-I 592 W/m 15,7 C 1,6 km/h (1 Bft)
04.08.2016 10:04 22,1 C 22,2 C 68 % 1012,5 hPa 0,0 mm 0,2 km/h (0 Bft) O-NO 63 1 min 0,000 mm 4,0 UV-I 599 W/m 15,9 C 1,6 km/h (1 Bft)
04.08.2016 10:05 22,1 C 22,1 C 68 % 1012,5 hPa 0,0 mm 0,2 km/h (0 Bft) O-NO 63 1 min 0,000 mm 4,0 UV-I 580 W/m 15,9 C 1,6 km/h (1 Bft)
04.08.2016 10:06 22,1 C 22,1 C 68 % 1012,5 hPa 0,0 mm 2,8 km/h (1 Bft) N-NO 15 1 min 0,000 mm 4,1 UV-I 598 W/m 15,9 C 4,8 km/h (1 Bft)
04.08.2016 10:07 22,3 C 22,3 C 74 % 1012,5 hPa 0,0 mm 2,4 km/h (1 Bft) N-NO 15 1 min 0,000 mm 4,1 UV-I 633 W/m 17,4 C 4,8 km/h (1 Bft)
04.08.2016 10:08 22,4 C 22,4 C 74 % 1012,5 hPa 0,0 mm 2,5 km/h (1 Bft) N 5 1 min 0,000 mm 3,7 UV-I 633 W/m 17,5 C 6,4 km/h (2 Bft)
04.08.2016 10:09 22,6 C 22,6 C 70 % 1012,5 hPa 0,0 mm 2,4 km/h (1 Bft) N-NW 344 1 min 0,000 mm 4,2 UV-I 633 W/m 16,8 C 3,2 km/h (1 Bft)
04.08.2016 10:10 22,7 C 22,7 C 68 % 1012,5 hPa 0,0 mm 2,3 km/h (1 Bft) N-NW 348 1 min 0,000 mm 4,2 UV-I 638 W/m 16,5 C 3,2 km/h (1 Bft)
04.08.2016 10:11 22,8 C 22,8 C 67 % 1012,5 hPa 0,0 mm 3,1 km/h (1 Bft) N 10 1 min 0,000 mm 4,0 UV-I 585 W/m 16,3 C 4,8 km/h (1 Bft)
04.08.2016 10:12 22,8 C 22,8 C 64 % 1012,4 hPa 0,0 mm 3,2 km/h (1 Bft) N 9 1 min 0,000 mm 3,8 UV-I 564 W/m 15,6 C 4,8 km/h (1 Bft)
04.08.2016 10:13 22,8 C 22,8 C 65 % 1012,4 hPa 0,0 mm 4,4 km/h (1 Bft) N 360 1 min 0,000 mm 4,1 UV-I 603 W/m 15,9 C 6,4 km/h (2 Bft)
04.08.2016 10:14 22,8 C 22,8 C 64 % 1012,4 hPa 0,0 mm 2,2 km/h (1 Bft) N 360 1 min 0,000 mm 4,2 UV-I 606 W/m 15,6 C 4,8 km/h (1 Bft)
04.08.2016 10:15 22,8 C 22,8 C 67 % 1012,4 hPa 0,0 mm 1,9 km/h (1 Bft) N 360 1 min 0,000 mm 4,2 UV-I 608 W/m 16,3 C 3,2 km/h (1 Bft)
04.08.2016 10:16 22,8 C 22,8 C 67 % 1012,4 hPa 0,0 mm 2,8 km/h (1 Bft) NW 323 1 min 0,000 mm 4,3 UV-I 622 W/m 16,3 C 4,8 km/h (1 Bft)
04.08.2016 10:17 22,7 C 22,8 C 66 % 1012,4 hPa 0,0 mm 3,1 km/h (1 Bft) NW 306 1 min 0,000 mm 4,3 UV-I 619 W/m 16,0 C 4,8 km/h (1 Bft)
04.08.2016 10:18 22,7 C 22,8 C 68 % 1012,3 hPa 0,0 mm 2,7 km/h (1 Bft) NW 306 1 min 0,000 mm 4,2 UV-I 570 W/m 16,5 C 3,2 km/h (1 Bft)
04.08.2016 10:19 22,7 C 22,8 C 65 % 1012,4 hPa 0,0 mm 1,6 km/h (1 Bft) NW 306 1 min 0,000 mm 4,4 UV-I 636 W/m 15,8 C 3,2 km/h (1 Bft)
04.08.2016 10:20 22,8 C 22,8 C 68 % 1012,4 hPa 0,0 mm 1,0 km/h (0 Bft) NW 306 1 min 0,000 mm 4,4 UV-I 659 W/m 16,6 C 1,6 km/h (1 Bft)
04.08.2016 10:21 22,7 C 22,8 C 67 % 1012,4 hPa 0,0 mm 1,4 km/h (1 Bft) NO 51 1 min 0,000 mm 4,5 UV-I 661 W/m 16,2 C 3,2 km/h (1 Bft)
04.08.2016 10:22 22,5 C 22,7 C 69 % 1012,3 hPa 0,0 mm 4,5 km/h (1 Bft) O 86 1 min 0,000 mm 4,6 UV-I 666 W/m 16,5 C 6,4 km/h (2 Bft)
04.08.2016 10:23 22,3 C 22,5 C 65 % 1012,3 hPa 0,0 mm 2,7 km/h (1 Bft) O 86 1 min 0,000 mm 4,6 UV-I 663 W/m 15,4 C 4,8 km/h (1 Bft)
04.08.2016 10:24 22,3 C 22,3 C 65 % 1012,3 hPa 0,0 mm 2,0 km/h (1 Bft) O 86 1 min 0,000 mm 4,5 UV-I 668 W/m 15,4 C 4,8 km/h (1 Bft)
04.08.2016 10:25 22,4 C 22,4 C 69 % 1012,3 hPa 0,0 mm 2,3 km/h (1 Bft) O 86 1 min 0,000 mm 4,5 UV-I 654 W/m 16,4 C 3,2 km/h (1 Bft)
04.08.2016 10:26 22,4 C 22,4 C 66 % 1012,3 hPa 0,0 mm 0,5 km/h (0 Bft) O 86 1 min 0,000 mm 4,4 UV-I 599 W/m 15,7 C 3,2 km/h (1 Bft)
04.08.2016 10:27 22,4 C 22,4 C 71 % 1012,3 hPa 0,0 mm 0,3 km/h (0 Bft) O 86 1 min 0,000 mm 4,6 UV-I 664 W/m 16,9 C 1,6 km/h (1 Bft)
04.08.2016 10:28 22,5 C 22,5 C 64 % 1012,3 hPa 0,0 mm 0,5 km/h (0 Bft) O 86 1 min 0,000 mm 4,7 UV-I 673 W/m 15,3 C 1,6 km/h (1 Bft)
04.08.2016 10:29 22,6 C 22,6 C 65 % 1012,3 hPa 0,0 mm 0,4 km/h (0 Bft) O 86 1 min 0,000 mm 4,6 UV-I 649 W/m 15,7 C 1,6 km/h (1 Bft)
04.08.2016 10:30 22,7 C 22,7 C 66 % 1012,3 hPa 0,0 mm 2,3 km/h (1 Bft) O 86 1 min 0,000 mm 4,7 UV-I 684 W/m 16,0 C 3,2 km/h (1 Bft)
04.08.2016 10:31 22,6 C 22,7 C 65 % 1012,3 hPa 0,0 mm 1,8 km/h (1 Bft) SO 132 1 min 0,000 mm 4,7 UV-I 691 W/m 15,7 C 4,8 km/h (1 Bft)
04.08.2016 10:32 22,6 C 22,6 C 63 % 1012,3 hPa 0,0 mm 3,6 km/h (1 Bft) O 82 1 min 0,000 mm 4,8 UV-I 691 W/m 15,2 C 4,8 km/h (1 Bft)
04.08.2016 10:33 22,7 C 22,7 C 67 % 1012,3 hPa 0,0 mm 0,7 km/h (0 Bft) O 82 1 min 0,000 mm 4,8 UV-I 689 W/m 16,2 C 3,2 km/h (1 Bft)
04.08.2016 10:34 22,7 C 22,7 C 62 % 1012,2 hPa 0,0 mm 1,3 km/h (1 Bft) O 83 1 min 0,000 mm 4,9 UV-I 691 W/m 15,0 C 1,6 km/h (1 Bft)
04.08.2016 10:35 22,8 C 22,8 C 65 % 1012,2 hPa 0,0 mm 3,4 km/h (1 Bft) O-NO 75 1 min 0,000 mm 4,9 UV-I 693 W/m 15,9 C 6,4 km/h (2 Bft)
04.08.2016 10:36 22,7 C 22,8 C 63 % 1012,2 hPa 0,0 mm 6,2 km/h (2 Bft) O 84 1 min 0,000 mm 4,9 UV-I 694 W/m 15,3 C 8,0 km/h (2 Bft)
04.08.2016 10:37 22,7 C 22,8 C 65 % 1012,2 hPa 0,0 mm 3,7 km/h (1 Bft) O 82 1 min 0,000 mm 4,9 UV-I 698 W/m 15,8 C 4,8 km/h (1 Bft)
04.08.2016 10:38 22,7 C 22,7 C 68 % 1012,2 hPa 0,0 mm 2,1 km/h (1 Bft) O 82 1 min 0,000 mm 4,9 UV-I 698 W/m 16,5 C 3,2 km/h (1 Bft)
04.08.2016 10:39 22,8 C 22,8 C 61 % 1012,2 hPa 0,0 mm 4,0 km/h (1 Bft) O 99 1 min 0,000 mm 4,9 UV-I 701 W/m 14,9 C 4,8 km/h (1 Bft)
04.08.2016 10:40 22,9 C 22,9 C 64 % 1012,2 hPa 0,0 mm 2,9 km/h (1 Bft) NO 55 1 min 0,000 mm 5,0 UV-I 700 W/m 15,7 C 4,8 km/h (1 Bft)
04.08.2016 10:41 23,1 C 23,1 C 65 % 1012,2 hPa 0,0 mm 4,2 km/h (1 Bft) O-NO 77 1 min 0,000 mm 4,9 UV-I 689 W/m 16,2 C 6,4 km/h (2 Bft)
04.08.2016 10:42 23,1 C 23,1 C 61 % 1012,2 hPa 0,0 mm 3,0 km/h (1 Bft) O-NO 62 1 min 0,000 mm 4,8 UV-I 666 W/m 15,2 C 6,4 km/h (2 Bft)
04.08.2016 10:43 23,2 C 23,2 C 61 % 1012,2 hPa 0,0 mm 2,8 km/h (1 Bft) O 99 1 min 0,000 mm 4,9 UV-I 675 W/m 15,3 C 6,4 km/h (2 Bft)
04.08.2016 10:44 23,2 C 23,2 C 64 % 1012,2 hPa 0,0 mm 2,7 km/h (1 Bft) O-NO 61 1 min 0,000 mm 5,0 UV-I 708 W/m 16,0 C 6,4 km/h (2 Bft)
04.08.2016 10:45 23,2 C 23,2 C 61 % 1012,2 hPa 0,0 mm 7,0 km/h (2 Bft) N-NO 30 1 min 0,000 mm 5,1 UV-I 710 W/m 15,3 C 11,3 km/h (2 Bft)
04.08.2016 10:46 23,3 C 23,3 C 63 % 1012,2 hPa 0,0 mm 5,8 km/h (2 Bft) O 88 1 min 0,000 mm 5,1 UV-I 708 W/m 15,9 C 8,0 km/h (2 Bft)
04.08.2016 10:47 23,3 C 23,3 C 61 % 1012,2 hPa 0,0 mm 1,8 km/h (1 Bft) NO 48 1 min 0,000 mm 5,2 UV-I 724 W/m 15,3 C 4,8 km/h (1 Bft)
04.08.2016 10:48 23,4 C 23,5 C 63 % 1012,2 hPa 0,0 mm 2,7 km/h (1 Bft) NO 38 1 min 0,000 mm 5,2 UV-I 722 W/m 15,9 C 4,8 km/h (1 Bft)
04.08.2016 10:49 23,7 C 23,7 C 61 % 1012,2 hPa 0,0 mm 3,6 km/h (1 Bft) N 355 1 min 0,000 mm 5,2 UV-I 722 W/m 15,7 C 4,8 km/h (1 Bft)
04.08.2016 10:50 23,9 C 23,9 C 65 % 1012,2 hPa 0,0 mm 4,2 km/h (1 Bft) N 355 1 min 0,000 mm 5,2 UV-I 726 W/m 16,9 C 6,4 km/h (2 Bft)
04.08.2016 10:51 24,1 C 24,1 C 63 % 1012,2 hPa 0,0 mm 4,1 km/h (1 Bft) N-NO 29 1 min 0,000 mm 5,2 UV-I 726 W/m 16,6 C 6,4 km/h (2 Bft)
04.08.2016 10:52 23,9 C 24,1 C 62 % 1012,2 hPa 0,0 mm 4,4 km/h (1 Bft) NO 49 1 min 0,000 mm 5,2 UV-I 728 W/m 16,2 C 6,4 km/h (2 Bft)
04.08.2016 10:53 23,8 C 23,9 C 65 % 1012,2 hPa 0,0 mm 4,8 km/h (1 Bft) N-NO 16 1 min 0,000 mm 5,2 UV-I 708 W/m 16,8 C 6,4 km/h (2 Bft)
04.08.2016 10:54 23,8 C 23,8 C 63 % 1012,2 hPa 0,0 mm 3,0 km/h (1 Bft) N 10 1 min 0,000 mm 5,3 UV-I 731 W/m 16,3 C 4,8 km/h (1 Bft)
04.08.2016 10:55 23,8 C 23,8 C 61 % 1012,2 hPa 0,0 mm 2,8 km/h (1 Bft) N-NO 25 1 min 0,000 mm 5,3 UV-I 731 W/m 15,8 C 4,8 km/h (1 Bft)
04.08.2016 10:56 23,9 C 23,9 C 61 % 1012,2 hPa 0,0 mm 3,5 km/h (1 Bft) N 360 1 min 0,000 mm 5,3 UV-I 733 W/m 15,9 C 4,8 km/h (1 Bft)
04.08.2016 10:57 24,0 C 24,0 C 58 % 1012,2 hPa 0,0 mm 4,0 km/h (1 Bft) N 360 1 min 0,000 mm 5,4 UV-I 733 W/m 15,2 C 4,8 km/h (1 Bft)
04.08.2016 10:58 23,9 C 24,0 C 60 % 1012,2 hPa 0,0 mm 5,3 km/h (1 Bft) N-NO 30 1 min 0,000 mm 5,4 UV-I 733 W/m 15,7 C 8,0 km/h (2 Bft)
04.08.2016 10:59 23,9 C 24,0 C 59 % 1012,2 hPa 0,0 mm 5,4 km/h (1 Bft) O 79 1 min 0,000 mm 5,4 UV-I 738 W/m 15,4 C 6,4 km/h (2 Bft)
04.08.2016 11:00 23,8 C 23,9 C 59 % 1012,1 hPa 0,0 mm 5,0 km/h (1 Bft) O 84 1 min 0,406 mm 5,4 UV-I 740 W/m 15,3 C 6,4 km/h (2 Bft)
04.08.2016 11:01 23,7 C 23,8 C 57 % 1012,1 hPa 0,0 mm 4,7 km/h (1 Bft) O-NO 68 1 min 0,000 mm 5,4 UV-I 744 W/m 14,7 C 6,4 km/h (2 Bft)
04.08.2016 11:02 23,7 C 23,7 C 59 % 1012,2 hPa 0,0 mm 3,7 km/h (1 Bft) O-NO 68 1 min 0,000 mm 5,4 UV-I 701 W/m 15,2 C 4,8 km/h (1 Bft)
04.08.2016 11:03 23,7 C 23,7 C 61 % 1012,1 hPa 0,0 mm 1,4 km/h (1 Bft) O-NO 68 1 min 0,000 mm 5,4 UV-I 733 W/m 15,7 C 3,2 km/h (1 Bft)
04.08.2016 11:04 23,7 C 23,7 C 62 % 1012,1 hPa 0,0 mm 3,3 km/h (1 Bft) O-NO 68 1 min 0,000 mm 5,5 UV-I 742 W/m 16,0 C 4,8 km/h (1 Bft)
04.08.2016 11:05 23,6 C 23,7 C 60 % 1012,2 hPa 0,0 mm 2,1 km/h (1 Bft) O-NO 68 1 min 0,000 mm 5,5 UV-I 747 W/m 15,4 C 3,2 km/h (1 Bft)
04.08.2016 11:06 23,6 C 23,6 C 62 % 1012,1 hPa 0,0 mm 3,4 km/h (1 Bft) N-NO 28 1 min 0,000 mm 5,6 UV-I 749 W/m 15,9 C 8,0 km/h (2 Bft)
04.08.2016 11:07 23,7 C 23,7 C 59 % 1012,1 hPa 0,0 mm 5,5 km/h (1 Bft) NW 324 1 min 0,000 mm 5,6 UV-I 751 W/m 15,2 C 8,0 km/h (2 Bft)
04.08.2016 11:08 23,8 C 23,8 C 61 % 1012,1 hPa 0,0 mm 4,0 km/h (1 Bft) NO 41 1 min 0,000 mm 5,6 UV-I 752 W/m 15,8 C 4,8 km/h (1 Bft)
04.08.2016 11:09 23,9 C 23,9 C 59 % 1012,1 hPa 0,0 mm 5,2 km/h (1 Bft) NO 46 1 min 0,000 mm 5,6 UV-I 754 W/m 15,4 C 8,0 km/h (2 Bft)
04.08.2016 11:10 24,1 C 24,1 C 56 % 1012,2 hPa 0,0 mm 6,4 km/h (2 Bft) N 350 1 min 0,000 mm 5,6 UV-I 754 W/m 14,8 C 8,0 km/h (2 Bft)
04.08.2016 11:11 24,1 C 24,1 C 57 % 1012,1 hPa 0,0 mm 4,2 km/h (1 Bft) O 90 1 min 0,000 mm 5,6 UV-I 758 W/m 15,0 C 6,4 km/h (2 Bft)
04.08.2016 11:12 24,1 C 24,2 C 57 % 1012,2 hPa 0,0 mm 2,7 km/h (1 Bft) N-NO 25 1 min 0,000 mm 5,7 UV-I 758 W/m 15,0 C 4,8 km/h (1 Bft)
04.08.2016 11:13 24,1 C 24,1 C 62 % 1012,1 hPa 0,0 mm 5,0 km/h (1 Bft) N-NO 15 1 min 0,000 mm 5,7 UV-I 758 W/m 16,4 C 6,4 km/h (2 Bft)
04.08.2016 11:14 24,2 C 24,2 C 58 % 1012,2 hPa 0,0 mm 5,3 km/h (1 Bft) NO 44 1 min 0,000 mm 5,7 UV-I 758 W/m 15,4 C 8,0 km/h (2 Bft)
04.08.2016 11:15 24,3 C 24,3 C 56 % 1012,1 hPa 0,0 mm 8,2 km/h (2 Bft) O 79 1 min 0,000 mm 5,7 UV-I 758 W/m 14,9 C 9,7 km/h (2 Bft)
04.08.2016 11:16 24,2 C 24,3 C 57 % 1012,1 hPa 0,0 mm 5,0 km/h (1 Bft) NO 44 1 min 0,000 mm 5,7 UV-I 761 W/m 15,1 C 8,0 km/h (2 Bft)
04.08.2016 11:17 24,1 C 24,2 C 55 % 1012,2 hPa 0,0 mm 1,4 km/h (1 Bft) O 96 1 min 0,000 mm 5,7 UV-I 763 W/m 14,5 C 1,6 km/h (1 Bft)
04.08.2016 11:18 23,9 C 24,1 C 56 % 1012,1 hPa 0,0 mm 2,0 km/h (1 Bft) O 96 1 min 0,000 mm 5,7 UV-I 763 W/m 14,6 C 4,8 km/h (1 Bft)
04.08.2016 11:19 23,9 C 24,0 C 58 % 1012,1 hPa 0,0 mm 2,7 km/h (1 Bft) O-NO 63 1 min 0,000 mm 5,7 UV-I 758 W/m 15,1 C 4,8 km/h (1 Bft)
04.08.2016 11:20 23,9 C 23,9 C 60 % 1012,1 hPa 0,0 mm 1,5 km/h (1 Bft) O-NO 63 1 min 0,000 mm 5,8 UV-I 765 W/m 15,7 C 3,2 km/h (1 Bft)
04.08.2016 11:21 24,0 C 24,0 C 60 % 1012,1 hPa 0,0 mm 2,2 km/h (1 Bft) NO 36 1 min 0,000 mm 5,8 UV-I 766 W/m 15,7 C 4,8 km/h (1 Bft)
04.08.2016 11:22 23,8 C 24,0 C 62 % 1012,2 hPa 0,0 mm 1,4 km/h (1 Bft) NO 41 1 min 0,000 mm 5,8 UV-I 770 W/m 16,1 C 3,2 km/h (1 Bft)
04.08.2016 11:23 23,8 C 23,8 C 59 % 1012,1 hPa 0,0 mm 3,4 km/h (1 Bft) NO 52 1 min 0,000 mm 5,9 UV-I 772 W/m 15,3 C 4,8 km/h (1 Bft)
04.08.2016 11:24 23,8 C 23,8 C 61 % 1012,1 hPa 0,0 mm 1,3 km/h (1 Bft) NO 52 1 min 0,000 mm 5,9 UV-I 772 W/m 15,8 C 1,6 km/h (1 Bft)
04.08.2016 11:25 23,9 C 23,9 C 60 % 1012,1 hPa 0,0 mm 3,3 km/h (1 Bft) O 83 1 min 0,000 mm 5,9 UV-I 772 W/m 15,7 C 4,8 km/h (1 Bft)
04.08.2016 11:26 23,9 C 23,9 C 63 % 1012,1 hPa 0,0 mm 5,8 km/h (2 Bft) O-NO 58 1 min 0,000 mm 5,9 UV-I 772 W/m 16,4 C 9,7 km/h (2 Bft)
04.08.2016 11:27 24,0 C 24,0 C 54 % 1012,2 hPa 0,0 mm 2,9 km/h (1 Bft) O 89 1 min 0,000 mm 5,9 UV-I 773 W/m 14,1 C 4,8 km/h (1 Bft)
04.08.2016 11:28 24,0 C 24,0 C 56 % 1012,1 hPa 0,0 mm 5,9 km/h (2 Bft) O 83 1 min 0,000 mm 5,9 UV-I 775 W/m 14,7 C 8,0 km/h (2 Bft)
04.08.2016 11:29 24,1 C 24,1 C 57 % 1012,1 hPa 0,0 mm 5,1 km/h (1 Bft) O-SO 103 1 min 0,000 mm 6,0 UV-I 777 W/m 15,0 C 8,0 km/h (2 Bft)
04.08.2016 11:30 24,0 C 24,1 C 56 % 1012,1 hPa 0,0 mm 3,9 km/h (1 Bft) O-SO 113 1 min 0,000 mm 6,0 UV-I 780 W/m 14,7 C 6,4 km/h (2 Bft)
04.08.2016 11:31 23,8 C 24,0 C 61 % 1012,2 hPa 0,0 mm 2,9 km/h (1 Bft) O-SO 113 1 min 0,000 mm 6,0 UV-I 780 W/m 15,8 C 4,8 km/h (1 Bft)
04.08.2016 11:32 23,8 C 23,8 C 54 % 1012,1 hPa 0,0 mm 2,1 km/h (1 Bft) O-SO 113 1 min 0,000 mm 6,0 UV-I 782 W/m 13,9 C 4,8 km/h (1 Bft)
04.08.2016 11:33 23,9 C 23,9 C 62 % 1012,1 hPa 0,0 mm 1,5 km/h (1 Bft) O-SO 113 1 min 0,000 mm 6,0 UV-I 782 W/m 16,2 C 1,6 km/h (1 Bft)
04.08.2016 11:34 23,9 C 23,9 C 60 % 1012,1 hPa 0,0 mm 1,2 km/h (1 Bft) O-SO 113 1 min 0,000 mm 6,0 UV-I 784 W/m 15,7 C 3,2 km/h (1 Bft)
04.08.2016 11:35 24,1 C 24,1 C 56 % 1012,1 hPa 0,0 mm 2,5 km/h (1 Bft) O-SO 107 1 min 0,000 mm 6,1 UV-I 786 W/m 14,8 C 4,8 km/h (1 Bft)
04.08.2016 11:36 24,1 C 24,2 C 61 % 1012,1 hPa 0,0 mm 0,5 km/h (0 Bft) O-SO 107 1 min 0,000 mm 6,1 UV-I 788 W/m 16,1 C 1,6 km/h (1 Bft)
04.08.2016 11:37 24,1 C 24,1 C 57 % 1012,1 hPa 0,0 mm 2,9 km/h (1 Bft) N-NW 346 1 min 0,000 mm 6,0 UV-I 782 W/m 15,0 C 4,8 km/h (1 Bft)
04.08.2016 11:38 24,2 C 24,2 C 56 % 1012,1 hPa 0,0 mm 4,5 km/h (1 Bft) NW 325 1 min 0,000 mm 6,1 UV-I 791 W/m 14,9 C 6,4 km/h (2 Bft)
04.08.2016 11:39 24,3 C 24,3 C 57 % 1012,1 hPa 0,0 mm 4,2 km/h (1 Bft) NW 311 1 min 0,000 mm 6,1 UV-I 791 W/m 15,2 C 6,4 km/h (2 Bft)
04.08.2016 11:40 24,3 C 24,3 C 55 % 1012,0 hPa 0,0 mm 3,0 km/h (1 Bft) NW 309 1 min 0,000 mm 6,1 UV-I 793 W/m 14,7 C 6,4 km/h (2 Bft)
04.08.2016 11:41 24,3 C 24,3 C 53 % 1012,0 hPa 0,0 mm 1,0 km/h (0 Bft) NW 309 1 min 0,000 mm 6,2 UV-I 795 W/m 14,1 C 1,6 km/h (1 Bft)
04.08.2016 11:42 24,3 C 24,3 C 54 % 1012,1 hPa 0,0 mm 0,7 km/h (0 Bft) NW 309 1 min 0,000 mm 6,2 UV-I 795 W/m 14,4 C 1,6 km/h (1 Bft)
04.08.2016 11:43 24,3 C 24,3 C 58 % 1012,0 hPa 0,0 mm 0,1 km/h (0 Bft) NW 309 1 min 0,000 mm 6,2 UV-I 796 W/m 15,5 C 1,6 km/h (1 Bft)
04.08.2016 11:44 24,4 C 24,4 C 54 % 1012,0 hPa 0,0 mm 0,2 km/h (0 Bft) NW 309 1 min 0,000 mm 6,2 UV-I 798 W/m 14,5 C 1,6 km/h (1 Bft)
04.08.2016 11:45 24,4 C 24,4 C 58 % 1012,0 hPa 0,0 mm 0,1 km/h (0 Bft) NO 45 1 min 0,000 mm 6,3 UV-I 800 W/m 15,6 C 1,6 km/h (1 Bft)
04.08.2016 11:46 24,5 C 24,6 C 62 % 1012,0 hPa 0,0 mm 3,9 km/h (1 Bft) N-NW 332 1 min 0,000 mm 6,3 UV-I 803 W/m 16,7 C 4,8 km/h (1 Bft)
04.08.2016 11:47 24,6 C 24,6 C 58 % 1011,9 hPa 0,0 mm 5,7 km/h (1 Bft) N-NO 18 1 min 0,000 mm 6,3 UV-I 802 W/m 15,8 C 8,0 km/h (2 Bft)
04.08.2016 11:48 24,7 C 24,7 C 60 % 1011,9 hPa 0,0 mm 5,3 km/h (1 Bft) N 11 1 min 0,000 mm 6,3 UV-I 805 W/m 16,4 C 6,4 km/h (2 Bft)
04.08.2016 11:49 24,7 C 24,8 C 60 % 1011,9 hPa 0,0 mm 5,1 km/h (1 Bft) O-SO 108 1 min 0,000 mm 6,3 UV-I 805 W/m 16,4 C 9,7 km/h (2 Bft)
04.08.2016 11:50 24,6 C 24,7 C 59 % 1012,0 hPa 0,0 mm 4,7 km/h (1 Bft) O 98 1 min 0,000 mm 6,3 UV-I 807 W/m 16,0 C 6,4 km/h (2 Bft)
04.08.2016 11:51 24,4 C 24,6 C 57 % 1012,0 hPa 0,0 mm 2,4 km/h (1 Bft) O 98 1 min 0,000 mm 6,3 UV-I 807 W/m 15,3 C 4,8 km/h (1 Bft)
04.08.2016 11:52 24,4 C 24,4 C 57 % 1011,9 hPa 0,0 mm 3,2 km/h (1 Bft) O 94 1 min 0,000 mm 6,4 UV-I 810 W/m 15,3 C 4,8 km/h (1 Bft)
04.08.2016 11:53 24,4 C 24,4 C 58 % 1011,9 hPa 0,0 mm 3,0 km/h (1 Bft) O 94 1 min 0,000 mm 6,4 UV-I 812 W/m 15,6 C 3,2 km/h (1 Bft)
04.08.2016 11:54 24,5 C 24,5 C 61 % 1012,0 hPa 0,0 mm 1,2 km/h (1 Bft) O 94 1 min 0,000 mm 6,4 UV-I 816 W/m 16,5 C 4,8 km/h (1 Bft)
04.08.2016 11:55 24,6 C 24,6 C 60 % 1011,9 hPa 0,0 mm 1,1 km/h (1 Bft) O 90 1 min 0,000 mm 6,4 UV-I 816 W/m 16,3 C 1,6 km/h (1 Bft)
04.08.2016 11:56 24,7 C 24,7 C 58 % 1011,9 hPa 0,0 mm 2,6 km/h (1 Bft) O 89 1 min 0,000 mm 6,5 UV-I 816 W/m 15,9 C 6,4 km/h (2 Bft)
04.08.2016 11:57 24,6 C 24,7 C 56 % 1011,9 hPa 0,0 mm 4,5 km/h (1 Bft) O-SO 103 1 min 0,000 mm 6,5 UV-I 817 W/m 15,2 C 6,4 km/h (2 Bft)
04.08.2016 11:58 24,4 C 24,6 C 53 % 1011,9 hPa 0,0 mm 2,4 km/h (1 Bft) O-NO 78 1 min 0,000 mm 6,5 UV-I 817 W/m 14,2 C 4,8 km/h (1 Bft)
04.08.2016 11:59 24,4 C 24,5 C 59 % 1011,9 hPa 0,0 mm 0,9 km/h (0 Bft) O-NO 77 1 min 0,000 mm 6,5 UV-I 819 W/m 15,9 C 1,6 km/h (1 Bft)
04.08.2016 12:00 24,6 C 24,6 C 55 % 1011,9 hPa 0,0 mm 3,9 km/h (1 Bft) N 355 1 min 0,508 mm 6,5 UV-I 817 W/m 14,9 C 6,4 km/h (2 Bft)
04.08.2016 12:01 24,8 C 24,8 C 57 % 1011,9 hPa 0,0 mm 3,6 km/h (1 Bft) N-NO 23 1 min 0,000 mm 6,5 UV-I 817 W/m 15,7 C 4,8 km/h (1 Bft)
04.08.2016 12:02 24,8 C 24,8 C 54 % 1011,9 hPa 0,0 mm 0,7 km/h (0 Bft) N-NO 23 1 min 0,000 mm 6,5 UV-I 819 W/m 14,8 C 3,2 km/h (1 Bft)
04.08.2016 12:03 24,7 C 24,8 C 54 % 1011,9 hPa 0,0 mm 0,6 km/h (0 Bft) N-NO 24 1 min 0,000 mm 6,5 UV-I 819 W/m 14,8 C 1,6 km/h (1 Bft)
04.08.2016 12:04 24,6 C 24,7 C 57 % 1011,9 hPa 0,0 mm 1,7 km/h (1 Bft) W-NW 284 1 min 0,000 mm 6,5 UV-I 823 W/m 15,5 C 3,2 km/h (1 Bft)
04.08.2016 12:05 24,6 C 24,6 C 56 % 1011,9 hPa 0,0 mm 2,1 km/h (1 Bft) N-NW 327 1 min 0,000 mm 6,5 UV-I 821 W/m 15,2 C 4,8 km/h (1 Bft)
04.08.2016 12:06 24,7 C 24,7 C 55 % 1011,9 hPa 0,0 mm 3,5 km/h (1 Bft) NW 315 1 min 0,000 mm 6,6 UV-I 821 W/m 15,0 C 4,8 km/h (1 Bft)
04.08.2016 12:07 24,9 C 24,9 C 59 % 1011,9 hPa 0,0 mm 2,2 km/h (1 Bft) NW 315 1 min 0,000 mm 6,6 UV-I 824 W/m 16,3 C 3,2 km/h (1 Bft)
04.08.2016 12:08 24,9 C 24,9 C 60 % 1011,9 hPa 0,0 mm 2,0 km/h (1 Bft) NW 315 1 min 0,000 mm 6,6 UV-I 824 W/m 16,6 C 3,2 km/h (1 Bft)
04.08.2016 12:09 24,9 C 24,9 C 58 % 1011,9 hPa 0,0 mm 2,3 km/h (1 Bft) N-NO 28 1 min 0,000 mm 6,6 UV-I 826 W/m 16,1 C 4,8 km/h (1 Bft)
04.08.2016 12:10 24,9 C 24,9 C 61 % 1011,9 hPa 0,0 mm 1,3 km/h (1 Bft) N-NO 28 1 min 0,000 mm 6,6 UV-I 828 W/m 16,8 C 1,6 km/h (1 Bft)
04.08.2016 12:11 25,1 C 25,1 C 56 % 1011,9 hPa 0,0 mm 0,3 km/h (0 Bft) N-NO 28 1 min 0,000 mm 6,6 UV-I 826 W/m 15,7 C 1,6 km/h (1 Bft)
04.08.2016 12:12 25,0 C 25,1 C 55 % 1011,9 hPa 0,0 mm 1,9 km/h (1 Bft) NO 51 1 min 0,000 mm 6,7 UV-I 826 W/m 15,3 C 4,8 km/h (1 Bft)
04.08.2016 12:13 25,0 C 25,1 C 55 % 1011,9 hPa 0,0 mm 2,2 km/h (1 Bft) NW 325 1 min 0,000 mm 6,7 UV-I 826 W/m 15,3 C 3,2 km/h (1 Bft)
04.08.2016 12:14 25,1 C 25,1 C 56 % 1011,8 hPa 0,0 mm 3,0 km/h (1 Bft) NW 322 1 min 0,000 mm 6,7 UV-I 828 W/m 15,7 C 4,8 km/h (1 Bft)
04.08.2016 12:15 25,1 C 25,1 C 52 % 1011,9 hPa 0,0 mm 4,1 km/h (1 Bft) W 281 1 min 0,000 mm 6,7 UV-I 830 W/m 14,5 C 6,4 km/h (2 Bft)
04.08.2016 12:16 25,1 C 25,1 C 53 % 1011,8 hPa 0,0 mm 7,7 km/h (2 Bft) N-NW 333 1 min 0,000 mm 6,7 UV-I 830 W/m 14,8 C 12,9 km/h (3 Bft)
04.08.2016 12:17 25,1 C 25,1 C 54 % 1011,9 hPa 0,0 mm 4,8 km/h (1 Bft) N-NW 345 1 min 0,000 mm 6,7 UV-I 831 W/m 15,1 C 6,4 km/h (2 Bft)
04.08.2016 12:18 25,2 C 25,2 C 53 % 1011,8 hPa 0,0 mm 4,7 km/h (1 Bft) N-NW 332 1 min 0,000 mm 6,7 UV-I 830 W/m 14,9 C 8,0 km/h (2 Bft)
04.08.2016 12:19 25,4 C 25,4 C 50 % 1011,8 hPa 0,0 mm 5,4 km/h (1 Bft) N 5 1 min 0,000 mm 6,7 UV-I 833 W/m 14,2 C 8,0 km/h (2 Bft)
04.08.2016 12:20 25,3 C 25,4 C 50 % 1011,8 hPa 0,0 mm 4,0 km/h (1 Bft) N-NW 332 1 min 0,000 mm 6,7 UV-I 833 W/m 14,1 C 4,8 km/h (1 Bft)
04.08.2016 12:21 25,4 C 25,4 C 52 % 1011,8 hPa 0,0 mm 4,8 km/h (1 Bft) NW 306 1 min 0,000 mm 6,7 UV-I 835 W/m 14,8 C 8,0 km/h (2 Bft)
04.08.2016 12:22 25,4 C 25,4 C 57 % 1011,8 hPa 0,0 mm 2,9 km/h (1 Bft) W 273 1 min 0,000 mm 6,7 UV-I 837 W/m 16,2 C 4,8 km/h (1 Bft)
04.08.2016 12:23 25,3 C 25,4 C 48 % 1011,8 hPa 0,0 mm 3,8 km/h (1 Bft) W 271 1 min 0,000 mm 6,8 UV-I 838 W/m 13,5 C 4,8 km/h (1 Bft)
04.08.2016 12:24 25,2 C 25,3 C 49 % 1011,8 hPa 0,0 mm 2,4 km/h (1 Bft) W 272 1 min 0,000 mm 6,8 UV-I 837 W/m 13,7 C 3,2 km/h (1 Bft)
04.08.2016 12:25 25,1 C 25,2 C 53 % 1011,8 hPa 0,0 mm 2,5 km/h (1 Bft) W-NW 288 1 min 0,000 mm 6,8 UV-I 837 W/m 14,8 C 3,2 km/h (1 Bft)
04.08.2016 12:26 25,1 C 25,1 C 50 % 1011,8 hPa 0,0 mm 2,7 km/h (1 Bft) W-NW 289 1 min 0,000 mm 6,8 UV-I 837 W/m 13,9 C 3,2 km/h (1 Bft)
04.08.2016 12:27 25,1 C 25,1 C 51 % 1011,7 hPa 0,0 mm 2,9 km/h (1 Bft) W-NW 295 1 min 0,000 mm 6,8 UV-I 837 W/m 14,2 C 3,2 km/h (1 Bft)
04.08.2016 12:28 25,2 C 25,2 C 55 % 1011,8 hPa 0,0 mm 2,2 km/h (1 Bft) N 9 1 min 0,000 mm 6,8 UV-I 835 W/m 15,5 C 3,2 km/h (1 Bft)
04.08.2016 12:29 25,3 C 25,3 C 56 % 1011,7 hPa 0,0 mm 3,8 km/h (1 Bft) N-NW 327 1 min 0,000 mm 6,8 UV-I 837 W/m 15,9 C 6,4 km/h (2 Bft)
04.08.2016 12:30 25,5 C 25,5 C 56 % 1011,7 hPa 0,0 mm 4,8 km/h (1 Bft) NW 305 1 min 0,000 mm 6,8 UV-I 838 W/m 16,1 C 6,4 km/h (2 Bft)
04.08.2016 12:31 25,6 C 25,6 C 52 % 1011,7 hPa 0,0 mm 6,9 km/h (2 Bft) NW 325 1 min 0,000 mm 6,8 UV-I 840 W/m 15,0 C 11,3 km/h (2 Bft)
04.08.2016 12:32 25,5 C 25,6 C 51 % 1011,7 hPa 0,0 mm 6,2 km/h (2 Bft) N 355 1 min 0,000 mm 6,8 UV-I 838 W/m 14,6 C 8,0 km/h (2 Bft)
04.08.2016 12:33 25,6 C 25,6 C 55 % 1011,7 hPa 0,0 mm 4,2 km/h (1 Bft) NO 34 1 min 0,000 mm 6,9 UV-I 840 W/m 15,9 C 6,4 km/h (2 Bft)
04.08.2016 12:34 25,7 C 25,7 C 52 % 1011,7 hPa 0,0 mm 4,1 km/h (1 Bft) N-NW 346 1 min 0,000 mm 6,9 UV-I 840 W/m 15,1 C 6,4 km/h (2 Bft)
04.08.2016 12:35 25,8 C 25,8 C 50 % 1011,7 hPa 0,0 mm 4,1 km/h (1 Bft) NW 311 1 min 0,000 mm 6,9 UV-I 840 W/m 14,6 C 6,4 km/h (2 Bft)
04.08.2016 12:36 25,8 C 25,8 C 51 % 1011,7 hPa 0,0 mm 2,3 km/h (1 Bft) N-NW 332 1 min 0,000 mm 6,8 UV-I 840 W/m 14,9 C 3,2 km/h (1 Bft)
04.08.2016 12:37 25,7 C 25,8 C 50 % 1011,8 hPa 0,0 mm 3,6 km/h (1 Bft) W-NW 284 1 min 0,000 mm 6,8 UV-I 837 W/m 14,5 C 6,4 km/h (2 Bft)
04.08.2016 12:38 25,6 C 25,7 C 50 % 1011,8 hPa 0,0 mm 6,0 km/h (2 Bft) W-NW 295 1 min 0,000 mm 6,8 UV-I 840 W/m 14,4 C 9,7 km/h (2 Bft)
04.08.2016 12:39 25,4 C 25,6 C 50 % 1011,7 hPa 0,0 mm 4,3 km/h (1 Bft) W-NW 303 1 min 0,000 mm 6,9 UV-I 840 W/m 14,2 C 6,4 km/h (2 Bft)
04.08.2016 12:40 25,4 C 25,4 C 58 % 1011,7 hPa 0,0 mm 4,4 km/h (1 Bft) W-NW 297 1 min 0,000 mm 6,9 UV-I 840 W/m 16,5 C 6,4 km/h (2 Bft)
04.08.2016 12:41 25,4 C 25,4 C 55 % 1011,7 hPa 0,0 mm 3,0 km/h (1 Bft) NW 307 1 min 0,000 mm 6,9 UV-I 842 W/m 15,7 C 4,8 km/h (1 Bft)
04.08.2016 12:42 25,4 C 25,4 C 54 % 1011,7 hPa 0,0 mm 3,2 km/h (1 Bft) W 279 1 min 0,000 mm 6,9 UV-I 844 W/m 15,4 C 6,4 km/h (2 Bft)
04.08.2016 12:43 25,4 C 25,4 C 47 % 1011,7 hPa 0,0 mm 4,2 km/h (1 Bft) NW 308 1 min 0,000 mm 6,9 UV-I 842 W/m 13,3 C 6,4 km/h (2 Bft)
04.08.2016 12:44 25,3 C 25,4 C 55 % 1011,6 hPa 0,0 mm 3,4 km/h (1 Bft) NW 314 1 min 0,000 mm 6,9 UV-I 846 W/m 15,6 C 4,8 km/h (1 Bft)
04.08.2016 12:45 25,3 C 25,4 C 48 % 1011,6 hPa 0,0 mm 2,7 km/h (1 Bft) N-NW 341 1 min 0,000 mm 6,9 UV-I 846 W/m 13,5 C 4,8 km/h (1 Bft)
04.08.2016 12:46 25,3 C 25,3 C 47 % 1011,6 hPa 0,0 mm 2,7 km/h (1 Bft) NW 312 1 min 0,000 mm 6,9 UV-I 844 W/m 13,2 C 4,8 km/h (1 Bft)
04.08.2016 12:47 25,4 C 25,4 C 53 % 1011,6 hPa 0,0 mm 2,1 km/h (1 Bft) N-NW 340 1 min 0,000 mm 6,9 UV-I 846 W/m 15,1 C 3,2 km/h (1 Bft)
04.08.2016 12:48 25,5 C 25,5 C 53 % 1011,6 hPa 0,0 mm 3,8 km/h (1 Bft) N 5 1 min 0,000 mm 6,9 UV-I 846 W/m 15,2 C 4,8 km/h (1 Bft)
04.08.2016 12:49 25,6 C 25,6 C 51 % 1011,6 hPa 0,0 mm 2,1 km/h (1 Bft) N 5 1 min 0,000 mm 6,9 UV-I 846 W/m 14,7 C 3,2 km/h (1 Bft)
04.08.2016 12:50 25,6 C 25,6 C 51 % 1011,5 hPa 0,0 mm 3,0 km/h (1 Bft) NO 42 1 min 0,000 mm 6,9 UV-I 847 W/m 14,7 C 8,0 km/h (2 Bft)
04.08.2016 12:51 25,6 C 25,7 C 52 % 1011,6 hPa 0,0 mm 8,3 km/h (2 Bft) NO 42 1 min 0,000 mm 6,9 UV-I 846 W/m 15,0 C 9,7 km/h (2 Bft)
04.08.2016 12:52 25,6 C 25,6 C 49 % 1011,5 hPa 0,0 mm 3,7 km/h (1 Bft) O 81 1 min 0,000 mm 6,9 UV-I 846 W/m 14,1 C 8,0 km/h (2 Bft)
04.08.2016 12:53 25,6 C 25,6 C 51 % 1011,6 hPa 0,0 mm 5,5 km/h (1 Bft) SO 128 1 min 0,000 mm 7,0 UV-I 849 W/m 14,7 C 6,4 km/h (2 Bft)
04.08.2016 12:54 25,4 C 25,6 C 57 % 1011,6 hPa 0,0 mm 5,0 km/h (1 Bft) O-SO 106 1 min 0,000 mm 7,0 UV-I 851 W/m 16,2 C 6,4 km/h (2 Bft)
04.08.2016 12:55 25,3 C 25,4 C 53 % 1011,6 hPa 0,0 mm 3,7 km/h (1 Bft) S-SO 151 1 min 0,000 mm 6,9 UV-I 849 W/m 15,0 C 4,8 km/h (1 Bft)
04.08.2016 12:56 25,4 C 25,4 C 49 % 1011,5 hPa 0,0 mm 2,3 km/h (1 Bft) S-SO 151 1 min 0,000 mm 7,0 UV-I 851 W/m 13,9 C 3,2 km/h (1 Bft)
04.08.2016 12:57 25,4 C 25,4 C 52 % 1011,5 hPa 0,0 mm 2,6 km/h (1 Bft) S-SO 152 1 min 0,000 mm 7,0 UV-I 851 W/m 14,8 C 3,2 km/h (1 Bft)
04.08.2016 12:58 25,4 C 25,4 C 49 % 1011,5 hPa 0,0 mm 2,3 km/h (1 Bft) S-SO 161 1 min 0,000 mm 7,0 UV-I 851 W/m 13,9 C 6,4 km/h (2 Bft)
04.08.2016 12:59 25,3 C 25,4 C 57 % 1011,5 hPa 0,0 mm 0,5 km/h (0 Bft) S-SO 161 1 min 0,000 mm 7,0 UV-I 851 W/m 16,2 C 1,6 km/h (1 Bft)
04.08.2016 13:00 25,3 C 25,3 C 53 % 1011,6 hPa 0,0 mm 1,5 km/h (1 Bft) NO 34 1 min 0,000 mm 7,0 UV-I 856 W/m 15,0 C 3,2 km/h (1 Bft)
04.08.2016 13:01 25,4 C 25,4 C 55 % 1011,5 hPa 0,0 mm 5,6 km/h (1 Bft) N-NO 32 1 min 0,559 mm 7,0 UV-I 858 W/m 15,7 C 6,4 km/h (2 Bft)
04.08.2016 13:02 25,6 C 25,6 C 52 % 1011,5 hPa 0,0 mm 5,4 km/h (1 Bft) NO 52 1 min 0,000 mm 7,0 UV-I 856 W/m 15,0 C 8,0 km/h (2 Bft)
04.08.2016 13:03 25,6 C 25,6 C 51 % 1011,5 hPa 0,0 mm 3,8 km/h (1 Bft) NO 48 1 min 0,000 mm 6,9 UV-I 854 W/m 14,7 C 4,8 km/h (1 Bft)
04.08.2016 13:04 25,6 C 25,6 C 52 % 1011,5 hPa 0,0 mm 4,1 km/h (1 Bft) O 93 1 min 0,000 mm 7,0 UV-I 856 W/m 15,0 C 4,8 km/h (1 Bft)
04.08.2016 13:05 25,5 C 25,6 C 53 % 1011,6 hPa 0,0 mm 1,9 km/h (1 Bft) O 93 1 min 0,000 mm 7,0 UV-I 854 W/m 15,2 C 4,8 km/h (1 Bft)
04.08.2016 13:06 25,5 C 25,5 C 49 % 1011,6 hPa 0,0 mm 0,3 km/h (0 Bft) O 93 1 min 0,000 mm 7,0 UV-I 856 W/m 14,0 C 1,6 km/h (1 Bft)
04.08.2016 13:07 25,5 C 25,5 C 53 % 1011,5 hPa 0,0 mm 2,4 km/h (1 Bft) O 94 1 min 0,000 mm 7,1 UV-I 861 W/m 15,2 C 9,7 km/h (2 Bft)
04.08.2016 13:08 25,5 C 25,6 C 50 % 1011,5 hPa 0,0 mm 10,7 km/h (2 Bft) O 97 1 min 0,000 mm 7,1 UV-I 867 W/m 14,3 C 14,5 km/h (3 Bft)
04.08.2016 13:09 25,5 C 25,6 C 51 % 1011,5 hPa 0,0 mm 5,8 km/h (2 Bft) S-SO 167 1 min 0,000 mm 7,0 UV-I 872 W/m 14,6 C 6,4 km/h (2 Bft)
04.08.2016 13:10 25,6 C 25,6 C 49 % 1011,5 hPa 0,0 mm 2,9 km/h (1 Bft) O 81 1 min 0,000 mm 7,1 UV-I 875 W/m 14,1 C 4,8 km/h (1 Bft)
04.08.2016 13:11 25,7 C 25,7 C 54 % 1011,5 hPa 0,0 mm 6,6 km/h (2 Bft) O 92 1 min 0,000 mm 7,2 UV-I 893 W/m 15,7 C 9,7 km/h (2 Bft)
04.08.2016 13:12 25,6 C 25,7 C 58 % 1011,5 hPa 0,0 mm 4,6 km/h (1 Bft) O 88 1 min 0,000 mm 7,1 UV-I 902 W/m 16,7 C 6,4 km/h (2 Bft)
04.08.2016 13:13 25,7 C 25,7 C 52 % 1011,5 hPa 0,0 mm 4,5 km/h (1 Bft) O 101 1 min 0,000 mm 4,6 UV-I 902 W/m 15,1 C 6,4 km/h (2 Bft)
04.08.2016 13:14 25,6 C 25,7 C 50 % 1011,4 hPa 0,0 mm 2,2 km/h (1 Bft) O-SO 102 1 min 0,000 mm 7,1 UV-I 905 W/m 14,4 C 3,2 km/h (1 Bft)
04.08.2016 13:15 25,6 C 25,6 C 51 % 1011,4 hPa 0,0 mm 1,1 km/h (1 Bft) O-SO 102 1 min 0,000 mm 7,3 UV-I 918 W/m 14,7 C 1,6 km/h (1 Bft)
04.08.2016 13:16 25,7 C 25,7 C 53 % 1011,4 hPa 0,0 mm 0,7 km/h (0 Bft) S-SO 157 1 min 0,000 mm 7,2 UV-I 935 W/m 15,4 C 3,2 km/h (1 Bft)
04.08.2016 13:17 25,8 C 25,8 C 54 % 1011,4 hPa 0,0 mm 0,4 km/h (0 Bft) S-SO 156 1 min 0,000 mm 3,6 UV-I 935 W/m 15,8 C 1,6 km/h (1 Bft)
04.08.2016 13:18 25,7 C 25,8 C 52 % 1011,4 hPa 0,0 mm 3,3 km/h (1 Bft) O 91 1 min 0,000 mm 4,2 UV-I 626 W/m 15,1 C 4,8 km/h (1 Bft)
04.08.2016 13:19 25,4 C 25,7 C 53 % 1011,4 hPa 0,0 mm 1,7 km/h (1 Bft) O 92 0 min 0,000 mm 3,1 UV-I 167 W/m 15,1 C 3,2 km/h (1 Bft)
04.08.2016 13:20 25,2 C 25,4 C 52 % 1011,3 hPa 0,0 mm 1,3 km/h (1 Bft) O 92 0 min 0,000 mm 3,0 UV-I 156 W/m 14,6 C 3,2 km/h (1 Bft)
04.08.2016 13:21 25,1 C 25,2 C 52 % 1011,4 hPa 0,0 mm 1,9 km/h (1 Bft) O-NO 78 0 min 0,000 mm 3,0 UV-I 155 W/m 14,5 C 4,8 km/h (1 Bft)
04.08.2016 13:22 24,7 C 25,1 C 59 % 1011,3 hPa 0,0 mm 6,1 km/h (2 Bft) N-NO 18 0 min 0,000 mm 3,1 UV-I 172 W/m 16,1 C 9,7 km/h (2 Bft)
04.08.2016 13:23 24,8 C 24,8 C 54 % 1011,3 hPa 0,0 mm 4,5 km/h (1 Bft) NO 51 0 min 0,000 mm 3,6 UV-I 172 W/m 14,8 C 6,4 km/h (2 Bft)
04.08.2016 13:24 25,1 C 25,1 C 55 % 1011,3 hPa 0,0 mm 2,6 km/h (1 Bft) NO 41 0 min 0,000 mm 7,3 UV-I 172 W/m 15,4 C 4,8 km/h (1 Bft)
04.08.2016 13:25 25,2 C 25,2 C 62 % 1011,3 hPa 0,0 mm 2,1 km/h (1 Bft) N-NO 31 1 min 0,000 mm 7,0 UV-I 1000 W/m 17,4 C 4,8 km/h (1 Bft)
04.08.2016 13:26 25,1 C 25,2 C 63 % 1011,3 hPa 0,0 mm 2,9 km/h (1 Bft) N-NO 14 1 min 0,000 mm 4,9 UV-I 1000 W/m 17,5 C 6,4 km/h (2 Bft)
04.08.2016 13:27 25,2 C 25,2 C 53 % 1011,3 hPa 0,0 mm 1,3 km/h (1 Bft) N-NO 14 1 min 0,000 mm 7,4 UV-I 1000 W/m 14,9 C 3,2 km/h (1 Bft)
04.08.2016 13:28 25,3 C 25,3 C 57 % 1011,3 hPa 0,0 mm 1,9 km/h (1 Bft) NW 318 1 min 0,000 mm 3,6 UV-I 1000 W/m 16,2 C 3,2 km/h (1 Bft)
04.08.2016 13:29 25,3 C 25,3 C 52 % 1011,3 hPa 0,0 mm 0,5 km/h (0 Bft) N 360 1 min 0,000 mm 3,6 UV-I 1000 W/m 14,7 C 1,6 km/h (1 Bft)
04.08.2016 13:30 25,2 C 25,3 C 53 % 1011,2 hPa 0,0 mm 0,7 km/h (0 Bft) SO 127 1 min 0,000 mm 3,6 UV-I 1000 W/m 14,9 C 3,2 km/h (1 Bft)
04.08.2016 13:31 25,2 C 25,2 C 55 % 1011,3 hPa 0,0 mm 3,7 km/h (1 Bft) S-SW 205 1 min 0,000 mm 7,1 UV-I 1000 W/m 15,5 C 4,8 km/h (1 Bft)
04.08.2016 13:32 25,2 C 25,2 C 54 % 1011,2 hPa 0,0 mm 1,8 km/h (1 Bft) W-SW 252 1 min 0,000 mm 7,3 UV-I 1000 W/m 15,2 C 3,2 km/h (1 Bft)
04.08.2016 13:33 25,2 C 25,3 C 54 % 1011,2 hPa 0,0 mm 0,6 km/h (0 Bft) W-SW 250 1 min 0,000 mm 4,6 UV-I 1000 W/m 15,2 C 1,6 km/h (1 Bft)
04.08.2016 13:34 25,2 C 25,3 C 55 % 1011,2 hPa 0,0 mm 0,1 km/h (0 Bft) W-SW 250 1 min 0,000 mm 3,5 UV-I 1000 W/m 15,5 C 1,6 km/h (1 Bft)
04.08.2016 13:35 25,3 C 25,3 C 56 % 1011,2 hPa 0,0 mm 1,7 km/h (1 Bft) N-NO 30 1 min 0,000 mm 7,2 UV-I 1000 W/m 15,9 C 4,8 km/h (1 Bft)
04.08.2016 13:36 25,2 C 25,3 C 59 % 1011,2 hPa 0,0 mm 1,1 km/h (1 Bft) N-NO 29 1 min 0,000 mm 3,2 UV-I 1000 W/m 16,6 C 3,2 km/h (1 Bft)
04.08.2016 13:37 25,3 C 25,3 C 57 % 1011,2 hPa 0,0 mm 2,1 km/h (1 Bft) O-SO 119 0 min 0,000 mm 3,3 UV-I 185 W/m 16,2 C 4,8 km/h (1 Bft)
04.08.2016 13:38 25,2 C 25,3 C 59 % 1011,2 hPa 0,0 mm 3,7 km/h (1 Bft) O 92 0 min 0,000 mm 3,4 UV-I 257 W/m 16,6 C 4,8 km/h (1 Bft)
04.08.2016 13:39 25,0 C 25,2 C 62 % 1011,2 hPa 0,0 mm 4,6 km/h (1 Bft) O-NO 71 0 min 0,000 mm 3,3 UV-I 179 W/m 17,2 C 6,4 km/h (2 Bft)
04.08.2016 13:40 24,8 C 25,0 C 59 % 1011,2 hPa 0,0 mm 3,3 km/h (1 Bft) N-NO 24 0 min 0,000 mm 5,5 UV-I 253 W/m 16,2 C 4,8 km/h (1 Bft)
04.08.2016 13:41 24,7 C 24,8 C 67 % 1011,2 hPa 0,0 mm 2,3 km/h (1 Bft) O 96 0 min 0,000 mm 6,7 UV-I 253 W/m 18,1 C 4,8 km/h (1 Bft)
04.08.2016 13:42 24,7 C 24,7 C 55 % 1011,2 hPa 0,0 mm 2,0 km/h (1 Bft) O-SO 112 1 min 0,000 mm 7,1 UV-I 863 W/m 15,0 C 3,2 km/h (1 Bft)
04.08.2016 13:43 24,8 C 24,8 C 62 % 1011,2 hPa 0,0 mm 0,5 km/h (0 Bft) O 94 0 min 0,000 mm 6,8 UV-I 350 W/m 17,0 C 1,6 km/h (1 Bft)
04.08.2016 13:44 25,1 C 25,1 C 56 % 1011,1 hPa 0,0 mm 1,9 km/h (1 Bft) N-NO 25 0 min 0,000 mm 7,1 UV-I 350 W/m 15,7 C 4,8 km/h (1 Bft)
04.08.2016 13:45 25,1 C 25,1 C 60 % 1011,1 hPa 0,0 mm 2,1 km/h (1 Bft) O-NO 73 1 min 0,000 mm 7,1 UV-I 902 W/m 16,8 C 4,8 km/h (1 Bft)
04.08.2016 13:46 25,2 C 25,2 C 60 % 1011,1 hPa 0,0 mm 4,0 km/h (1 Bft) O 88 1 min 0,000 mm 7,2 UV-I 905 W/m 16,9 C 4,8 km/h (1 Bft)
04.08.2016 13:47 25,3 C 25,3 C 58 % 1011,1 hPa 0,0 mm 3,8 km/h (1 Bft) N 355 1 min 0,000 mm 7,2 UV-I 911 W/m 16,4 C 8,0 km/h (2 Bft)
04.08.2016 13:48 25,6 C 25,6 C 52 % 1011,1 hPa 0,0 mm 6,1 km/h (2 Bft) N 350 1 min 0,000 mm 7,0 UV-I 833 W/m 15,0 C 8,0 km/h (2 Bft)
04.08.2016 13:49 25,8 C 25,8 C 50 % 1011,1 hPa 0,0 mm 4,9 km/h (1 Bft) N-NO 29 1 min 0,000 mm 6,7 UV-I 905 W/m 14,6 C 6,4 km/h (2 Bft)
04.08.2016 13:50 26,0 C 26,0 C 56 % 1011,1 hPa 0,0 mm 3,8 km/h (1 Bft) N 9 1 min 0,000 mm 5,2 UV-I 940 W/m 16,5 C 6,4 km/h (2 Bft)
04.08.2016 13:51 26,1 C 26,1 C 50 % 1011,1 hPa 0,0 mm 3,4 km/h (1 Bft) W 262 1 min 0,000 mm 3,2 UV-I 940 W/m 14,8 C 6,4 km/h (2 Bft)
04.08.2016 13:52 26,0 C 26,1 C 53 % 1011,1 hPa 0,0 mm 7,3 km/h (2 Bft) N-NW 330 0 min 0,000 mm 6,4 UV-I 367 W/m 15,7 C 11,3 km/h (2 Bft)
04.08.2016 13:53 25,9 C 26,0 C 52 % 1011,1 hPa 0,0 mm 2,8 km/h (1 Bft) NO 40 0 min 0,000 mm 3,1 UV-I 367 W/m 15,3 C 4,8 km/h (1 Bft)
04.08.2016 13:54 25,8 C 25,9 C 52 % 1011,1 hPa 0,0 mm 5,2 km/h (1 Bft) O 85 0 min 0,000 mm 3,2 UV-I 183 W/m 15,2 C 6,4 km/h (2 Bft)
04.08.2016 13:55 25,6 C 25,8 C 52 % 1011,1 hPa 0,0 mm 3,2 km/h (1 Bft) O-NO 76 0 min 0,000 mm 3,4 UV-I 207 W/m 15,0 C 4,8 km/h (1 Bft)
04.08.2016 13:56 25,4 C 25,6 C 54 % 1011,1 hPa 0,0 mm 1,7 km/h (1 Bft) O-NO 76 1 min 0,000 mm 7,2 UV-I 828 W/m 15,4 C 3,2 km/h (1 Bft)
04.08.2016 13:57 25,3 C 25,4 C 54 % 1011,0 hPa 0,0 mm 2,9 km/h (1 Bft) O-NO 77 1 min 0,000 mm 7,2 UV-I 828 W/m 15,3 C 4,8 km/h (1 Bft)
04.08.2016 13:58 25,3 C 25,3 C 53 % 1011,0 hPa 0,0 mm 1,4 km/h (1 Bft) O-NO 77 1 min 0,000 mm 7,3 UV-I 828 W/m 15,0 C 3,2 km/h (1 Bft)
04.08.2016 13:59 25,4 C 25,5 C 54 % 1011,0 hPa 0,0 mm 2,5 km/h (1 Bft) O-NO 77 1 min 0,000 mm 7,2 UV-I 828 W/m 15,4 C 3,2 km/h (1 Bft)
04.08.2016 14:00 25,6 C 25,6 C 55 % 1011,0 hPa 0,0 mm 3,9 km/h (1 Bft) O-NO 71 1 min 0,000 mm 7,1 UV-I 912 W/m 15,9 C 6,4 km/h (2 Bft)
04.08.2016 14:01 25,7 C 25,7 C 55 % 1011,0 hPa 0,0 mm 4,2 km/h (1 Bft) O-NO 65 1 min 0,432 mm 7,2 UV-I 928 W/m 16,0 C 8,0 km/h (2 Bft)
04.08.2016 14:02 25,8 C 25,8 C 54 % 1011,0 hPa 0,0 mm 6,9 km/h (2 Bft) SO 144 1 min 0,000 mm 3,8 UV-I 928 W/m 15,8 C 11,3 km/h (2 Bft)
04.08.2016 14:03 25,7 C 25,8 C 50 % 1011,0 hPa 0,0 mm 4,4 km/h (1 Bft) O 86 1 min 0,000 mm 6,7 UV-I 928 W/m 14,5 C 8,0 km/h (2 Bft)
04.08.2016 14:04 25,8 C 25,8 C 49 % 1010,9 hPa 0,0 mm 4,1 km/h (1 Bft) N-NW 338 1 min 0,000 mm 7,1 UV-I 928 W/m 14,3 C 8,0 km/h (2 Bft)
04.08.2016 14:05 25,8 C 25,8 C 53 % 1010,9 hPa 0,0 mm 5,9 km/h (2 Bft) N-NW 341 1 min 0,000 mm 7,1 UV-I 933 W/m 15,5 C 8,0 km/h (2 Bft)
04.08.2016 14:06 25,9 C 25,9 C 55 % 1010,9 hPa 0,0 mm 4,0 km/h (1 Bft) N-NW 337 1 min 0,000 mm 7,2 UV-I 953 W/m 16,2 C 6,4 km/h (2 Bft)
04.08.2016 14:07 26,0 C 26,0 C 52 % 1010,9 hPa 0,0 mm 4,4 km/h (1 Bft) N-NW 338 1 min 0,000 mm 7,1 UV-I 935 W/m 15,4 C 6,4 km/h (2 Bft)
04.08.2016 14:08 26,1 C 26,1 C 51 % 1010,9 hPa 0,0 mm 4,4 km/h (1 Bft) NW 308 1 min 0,000 mm 6,1 UV-I 949 W/m 15,2 C 4,8 km/h (1 Bft)
04.08.2016 14:09 26,1 C 26,1 C 50 % 1010,8 hPa 0,0 mm 4,0 km/h (1 Bft) N-NW 327 1 min 0,000 mm 7,1 UV-I 933 W/m 14,8 C 6,4 km/h (2 Bft)
04.08.2016 14:10 26,3 C 26,3 C 50 % 1010,8 hPa 0,0 mm 4,8 km/h (1 Bft) NW 322 1 min 0,000 mm 7,1 UV-I 912 W/m 15,0 C 6,4 km/h (2 Bft)
04.08.2016 14:11 26,4 C 26,4 C 53 % 1010,8 hPa 0,0 mm 3,8 km/h (1 Bft) W 278 1 min 0,000 mm 7,0 UV-I 896 W/m 16,0 C 6,4 km/h (2 Bft)
04.08.2016 14:12 26,7 C 26,7 C 54 % 1010,8 hPa 0,0 mm 1,7 km/h (1 Bft) N-NW 329 1 min 0,000 mm 6,9 UV-I 872 W/m 16,6 C 3,2 km/h (1 Bft)
04.08.2016 14:13 26,7 C 26,7 C 51 % 1010,8 hPa 0,0 mm 1,8 km/h (1 Bft) NO 53 1 min 0,000 mm 6,9 UV-I 867 W/m 15,7 C 4,8 km/h (1 Bft)
04.08.2016 14:14 26,7 C 26,7 C 57 % 1010,8 hPa 0,0 mm 2,3 km/h (1 Bft) O-NO 65 1 min 0,000 mm 6,8 UV-I 865 W/m 17,5 C 4,8 km/h (1 Bft)
04.08.2016 14:15 26,6 C 26,7 C 51 % 1010,8 hPa 0,0 mm 2,0 km/h (1 Bft) N-NO 30 1 min 0,000 mm 6,8 UV-I 861 W/m 15,6 C 4,8 km/h (1 Bft)
04.08.2016 14:16 26,7 C 26,7 C 47 % 1010,8 hPa 0,0 mm 2,6 km/h (1 Bft) S 174 1 min 0,000 mm 6,9 UV-I 861 W/m 14,4 C 4,8 km/h (1 Bft)
04.08.2016 14:17 26,6 C 26,7 C 48 % 1010,8 hPa 0,0 mm 3,6 km/h (1 Bft) N-NO 28 1 min 0,000 mm 6,8 UV-I 853 W/m 14,7 C 6,4 km/h (2 Bft)
04.08.2016 14:18 26,6 C 26,6 C 53 % 1010,8 hPa 0,0 mm 5,8 km/h (2 Bft) S 177 1 min 0,000 mm 6,8 UV-I 838 W/m 16,2 C 8,0 km/h (2 Bft)
04.08.2016 14:19 26,5 C 26,6 C 49 % 1010,7 hPa 0,0 mm 2,5 km/h (1 Bft) O-SO 107 1 min 0,000 mm 6,7 UV-I 831 W/m 14,9 C 4,8 km/h (1 Bft)
04.08.2016 14:20 26,5 C 26,5 C 52 % 1010,7 hPa 0,0 mm 1,0 km/h (0 Bft) N-NO 29 1 min 0,000 mm 6,6 UV-I 828 W/m 15,8 C 4,8 km/h (1 Bft)
04.08.2016 14:21 26,5 C 26,5 C 54 % 1010,8 hPa 0,0 mm 5,8 km/h (2 Bft) NO 47 1 min 0,000 mm 6,6 UV-I 824 W/m 16,4 C 9,7 km/h (2 Bft)
04.08.2016 14:22 26,5 C 26,6 C 50 % 1010,8 hPa 0,0 mm 7,3 km/h (2 Bft) O-NO 66 1 min 0,000 mm 6,7 UV-I 830 W/m 15,2 C 12,9 km/h (3 Bft)
04.08.2016 14:23 26,4 C 26,5 C 58 % 1010,8 hPa 0,0 mm 3,4 km/h (1 Bft) O-NO 78 1 min 0,000 mm 6,6 UV-I 826 W/m 17,5 C 4,8 km/h (1 Bft)
04.08.2016 14:24 26,4 C 26,4 C 49 % 1010,7 hPa 0,0 mm 5,0 km/h (1 Bft) O-NO 78 1 min 0,000 mm 6,6 UV-I 823 W/m 14,8 C 8,0 km/h (2 Bft)
04.08.2016 14:25 26,3 C 26,4 C 49 % 1010,7 hPa 0,0 mm 5,4 km/h (1 Bft) SO 126 1 min 0,000 mm 6,5 UV-I 819 W/m 14,7 C 8,0 km/h (2 Bft)
04.08.2016 14:26 26,3 C 26,3 C 51 % 1010,6 hPa 0,0 mm 5,4 km/h (1 Bft) O 101 1 min 0,000 mm 6,6 UV-I 817 W/m 15,3 C 9,7 km/h (2 Bft)
04.08.2016 14:27 26,3 C 26,3 C 48 % 1010,6 hPa 0,0 mm 1,3 km/h (1 Bft) N 355 1 min 0,000 mm 6,6 UV-I 817 W/m 14,4 C 3,2 km/h (1 Bft)
04.08.2016 14:28 26,3 C 26,3 C 52 % 1010,6 hPa 0,0 mm 2,9 km/h (1 Bft) NO 51 1 min 0,000 mm 6,5 UV-I 812 W/m 15,6 C 4,8 km/h (1 Bft)
04.08.2016 14:29 26,3 C 26,3 C 48 % 1010,6 hPa 0,0 mm 5,3 km/h (1 Bft) NO 53 1 min 0,000 mm 6,5 UV-I 809 W/m 14,4 C 8,0 km/h (2 Bft)
04.08.2016 14:30 26,4 C 26,4 C 49 % 1010,6 hPa 0,0 mm 7,2 km/h (2 Bft) N 355 1 min 0,000 mm 6,5 UV-I 809 W/m 14,8 C 9,7 km/h (2 Bft)
04.08.2016 14:31 26,5 C 26,5 C 49 % 1010,6 hPa 0,0 mm 7,5 km/h (2 Bft) O-NO 65 1 min 0,000 mm 6,5 UV-I 809 W/m 14,9 C 12,9 km/h (3 Bft)
04.08.2016 14:32 26,5 C 26,6 C 50 % 1010,5 hPa 0,0 mm 7,8 km/h (2 Bft) O-NO 65 1 min 0,000 mm 6,5 UV-I 809 W/m 15,2 C 12,9 km/h (3 Bft)
04.08.2016 14:33 26,4 C 26,5 C 50 % 1010,6 hPa 0,0 mm 6,0 km/h (2 Bft) O-NO 70 1 min 0,000 mm 6,4 UV-I 807 W/m 15,1 C 8,0 km/h (2 Bft)
04.08.2016 14:34 26,4 C 26,5 C 51 % 1010,5 hPa 0,0 mm 6,2 km/h (2 Bft) O 80 1 min 0,000 mm 6,4 UV-I 807 W/m 15,4 C 8,0 km/h (2 Bft)
04.08.2016 14:35 26,5 C 26,5 C 53 % 1010,6 hPa 0,0 mm 7,3 km/h (2 Bft) O-NO 77 1 min 0,000 mm 6,4 UV-I 802 W/m 16,1 C 11,3 km/h (2 Bft)
04.08.2016 14:36 26,5 C 26,5 C 55 % 1010,4 hPa 0,0 mm 8,0 km/h (2 Bft) NO 55 1 min 0,000 mm 6,3 UV-I 800 W/m 16,7 C 12,9 km/h (3 Bft)
04.08.2016 14:37 26,4 C 26,5 C 50 % 1010,4 hPa 0,0 mm 9,0 km/h (2 Bft) NO 41 1 min 0,000 mm 6,3 UV-I 802 W/m 15,1 C 14,5 km/h (3 Bft)
04.08.2016 14:38 26,4 C 26,4 C 49 % 1010,4 hPa 0,0 mm 5,8 km/h (2 Bft) N-NO 27 1 min 0,000 mm 6,3 UV-I 800 W/m 14,8 C 8,0 km/h (2 Bft)
04.08.2016 14:39 26,5 C 26,5 C 50 % 1010,5 hPa 0,0 mm 7,0 km/h (2 Bft) O 85 1 min 0,000 mm 6,3 UV-I 802 W/m 15,2 C 12,9 km/h (3 Bft)
04.08.2016 14:40 26,4 C 26,5 C 50 % 1010,5 hPa 0,0 mm 7,8 km/h (2 Bft) O-NO 61 1 min 0,000 mm 6,3 UV-I 798 W/m 15,1 C 12,9 km/h (3 Bft)
04.08.2016 14:41 26,4 C 26,5 C 50 % 1010,5 hPa 0,0 mm 7,9 km/h (2 Bft) NO 36 1 min 0,000 mm 6,3 UV-I 795 W/m 15,1 C 14,5 km/h (3 Bft)
04.08.2016 14:42 26,3 C 26,4 C 53 % 1010,5 hPa 0,0 mm 6,7 km/h (2 Bft) NO 40 1 min 0,000 mm 6,3 UV-I 796 W/m 15,9 C 11,3 km/h (2 Bft)
04.08.2016 14:43 26,4 C 26,4 C 52 % 1010,5 hPa 0,0 mm 4,0 km/h (1 Bft) N 11 1 min 0,000 mm 6,3 UV-I 798 W/m 15,7 C 6,4 km/h (2 Bft)
04.08.2016 14:44 26,6 C 26,6 C 55 % 1010,5 hPa 0,0 mm 5,0 km/h (1 Bft) N-NO 22 1 min 0,000 mm 6,3 UV-I 798 W/m 16,8 C 9,7 km/h (2 Bft)
04.08.2016 14:45 26,6 C 26,6 C 48 % 1010,5 hPa 0,0 mm 4,3 km/h (1 Bft) N-NW 340 1 min 0,000 mm 6,3 UV-I 798 W/m 14,7 C 6,4 km/h (2 Bft)
04.08.2016 14:46 26,5 C 26,6 C 49 % 1010,5 hPa 0,0 mm 4,7 km/h (1 Bft) N-NO 20 1 min 0,000 mm 6,3 UV-I 800 W/m 14,9 C 6,4 km/h (2 Bft)
04.08.2016 14:47 26,6 C 26,6 C 54 % 1010,5 hPa 0,0 mm 4,9 km/h (1 Bft) N 355 1 min 0,000 mm 6,3 UV-I 802 W/m 16,5 C 6,4 km/h (2 Bft)
04.08.2016 14:48 26,7 C 26,7 C 54 % 1010,5 hPa 0,0 mm 4,2 km/h (1 Bft) N 5 1 min 0,000 mm 6,2 UV-I 802 W/m 16,6 C 6,4 km/h (2 Bft)
04.08.2016 14:49 26,8 C 26,8 C 48 % 1010,5 hPa 0,0 mm 3,6 km/h (1 Bft) N-NO 32 1 min 0,000 mm 6,2 UV-I 803 W/m 14,9 C 4,8 km/h (1 Bft)
04.08.2016 14:50 26,9 C 26,9 C 52 % 1010,5 hPa 0,0 mm 3,4 km/h (1 Bft) N 360 1 min 0,000 mm 6,2 UV-I 802 W/m 16,2 C 4,8 km/h (1 Bft)
04.08.2016 14:51 26,9 C 26,9 C 49 % 1010,4 hPa 0,0 mm 6,4 km/h (2 Bft) O-SO 102 1 min 0,000 mm 6,2 UV-I 800 W/m 15,3 C 12,9 km/h (3 Bft)
04.08.2016 14:52 26,8 C 26,9 C 50 % 1010,5 hPa 0,0 mm 6,1 km/h (2 Bft) O-NO 71 1 min 0,000 mm 6,2 UV-I 800 W/m 15,5 C 9,7 km/h (2 Bft)
04.08.2016 14:53 26,7 C 26,8 C 48 % 1010,4 hPa 0,0 mm 3,6 km/h (1 Bft) O-NO 57 1 min 0,000 mm 6,1 UV-I 791 W/m 14,8 C 4,8 km/h (1 Bft)
04.08.2016 14:54 26,8 C 26,8 C 49 % 1010,4 hPa 0,0 mm 6,4 km/h (2 Bft) NO 52 1 min 0,000 mm 6,1 UV-I 791 W/m 15,2 C 9,7 km/h (2 Bft)
04.08.2016 14:55 26,8 C 26,8 C 57 % 1010,4 hPa 0,0 mm 6,0 km/h (2 Bft) O-NO 65 1 min 0,000 mm 6,1 UV-I 791 W/m 17,6 C 11,3 km/h (2 Bft)
04.08.2016 14:56 26,6 C 26,8 C 46 % 1010,4 hPa 0,0 mm 1,5 km/h (1 Bft) O-NO 64 1 min 0,000 mm 6,1 UV-I 788 W/m 14,0 C 4,8 km/h (1 Bft)
04.08.2016 14:57 26,5 C 26,6 C 45 % 1010,3 hPa 0,0 mm 1,4 km/h (1 Bft) W-NW 299 1 min 0,000 mm 6,1 UV-I 788 W/m 13,6 C 3,2 km/h (1 Bft)
04.08.2016 14:58 26,4 C 26,5 C 50 % 1010,3 hPa 0,0 mm 2,9 km/h (1 Bft) W-NW 282 1 min 0,000 mm 6,1 UV-I 788 W/m 15,1 C 4,8 km/h (1 Bft)
04.08.2016 14:59 26,2 C 26,4 C 53 % 1010,3 hPa 0,0 mm 2,2 km/h (1 Bft) SO 126 1 min 0,000 mm 6,1 UV-I 784 W/m 15,8 C 3,2 km/h (1 Bft)
04.08.2016 15:00 26,2 C 26,2 C 48 % 1010,3 hPa 0,0 mm 2,7 km/h (1 Bft) O-NO 66 1 min 0,559 mm 6,0 UV-I 780 W/m 14,3 C 4,8 km/h (1 Bft)
04.08.2016 15:01 26,3 C 26,3 C 48 % 1010,3 hPa 0,0 mm 0,9 km/h (0 Bft) O 79 1 min 0,000 mm 6,0 UV-I 779 W/m 14,4 C 3,2 km/h (1 Bft)
04.08.2016 15:02 26,4 C 26,4 C 55 % 1010,3 hPa 0,0 mm 4,6 km/h (1 Bft) O-NO 75 1 min 0,000 mm 6,0 UV-I 779 W/m 16,6 C 11,3 km/h (2 Bft)
04.08.2016 15:03 26,4 C 26,5 C 55 % 1010,3 hPa 0,0 mm 8,4 km/h (2 Bft) O-NO 60 1 min 0,000 mm 6,0 UV-I 777 W/m 16,6 C 14,5 km/h (3 Bft)
04.08.2016 15:04 26,5 C 26,5 C 52 % 1010,3 hPa 0,0 mm 6,2 km/h (2 Bft) O-NO 60 1 min 0,000 mm 6,0 UV-I 775 W/m 15,8 C 12,9 km/h (3 Bft)
04.08.2016 15:05 26,5 C 26,5 C 50 % 1010,3 hPa 0,0 mm 6,1 km/h (2 Bft) O-SO 105 1 min 0,000 mm 5,9 UV-I 768 W/m 15,2 C 9,7 km/h (2 Bft)
04.08.2016 15:06 26,4 C 26,5 C 56 % 1010,3 hPa 0,0 mm 4,7 km/h (1 Bft) O 90 1 min 0,000 mm 5,9 UV-I 770 W/m 16,9 C 6,4 km/h (2 Bft)
04.08.2016 15:07 26,4 C 26,4 C 48 % 1010,3 hPa 0,0 mm 4,0 km/h (1 Bft) O-NO 63 1 min 0,000 mm 5,9 UV-I 768 W/m 14,5 C 6,4 km/h (2 Bft)
04.08.2016 15:08 26,4 C 26,4 C 48 % 1010,3 hPa 0,0 mm 3,4 km/h (1 Bft) O-SO 112 1 min 0,000 mm 5,8 UV-I 765 W/m 14,5 C 6,4 km/h (2 Bft)
04.08.2016 15:09 26,3 C 26,4 C 48 % 1010,2 hPa 0,0 mm 2,4 km/h (1 Bft) NO 38 1 min 0,000 mm 5,8 UV-I 765 W/m 14,4 C 6,4 km/h (2 Bft)
04.08.2016 15:10 26,4 C 26,4 C 49 % 1010,2 hPa 0,0 mm 4,4 km/h (1 Bft) O-NO 59 1 min 0,000 mm 5,8 UV-I 766 W/m 14,8 C 8,0 km/h (2 Bft)
04.08.2016 15:11 26,4 C 26,4 C 50 % 1010,2 hPa 0,0 mm 8,1 km/h (2 Bft) NO 49 1 min 0,000 mm 5,8 UV-I 765 W/m 15,1 C 12,9 km/h (3 Bft)
04.08.2016 15:12 26,5 C 26,5 C 57 % 1010,2 hPa 0,0 mm 6,2 km/h (2 Bft) NO 36 1 min 0,000 mm 5,8 UV-I 765 W/m 17,3 C 9,7 km/h (2 Bft)
04.08.2016 15:13 26,6 C 26,6 C 54 % 1010,2 hPa 0,0 mm 6,5 km/h (2 Bft) NO 38 1 min 0,000 mm 5,8 UV-I 763 W/m 16,5 C 8,0 km/h (2 Bft)
04.08.2016 15:14 26,7 C 26,7 C 55 % 1010,2 hPa 0,0 mm 5,7 km/h (1 Bft) N-NO 18 1 min 0,000 mm 5,8 UV-I 761 W/m 16,9 C 8,0 km/h (2 Bft)
04.08.2016 15:15 26,7 C 26,7 C 49 % 1010,2 hPa 0,0 mm 4,5 km/h (1 Bft) O 82 1 min 0,000 mm 5,8 UV-I 759 W/m 15,1 C 9,7 km/h (2 Bft)
04.08.2016 15:16 26,7 C 26,7 C 48 % 1010,1 hPa 0,0 mm 5,3 km/h (1 Bft) O 86 1 min 0,000 mm 5,8 UV-I 761 W/m 14,8 C 11,3 km/h (2 Bft)
04.08.2016 15:17 26,7 C 26,7 C 48 % 1010,1 hPa 0,0 mm 6,2 km/h (2 Bft) O-NO 76 1 min 0,000 mm 5,8 UV-I 761 W/m 14,8 C 12,9 km/h (3 Bft)
04.08.2016 15:18 26,7 C 26,7 C 54 % 1010,2 hPa 0,0 mm 10,1 km/h (2 Bft) O-NO 78 1 min 0,000 mm 5,7 UV-I 759 W/m 16,6 C 14,5 km/h (3 Bft)
04.08.2016 15:19 26,7 C 26,7 C 47 % 1010,2 hPa 0,0 mm 8,9 km/h (2 Bft) O 82 1 min 0,000 mm 5,7 UV-I 759 W/m 14,4 C 12,9 km/h (3 Bft)
04.08.2016 15:20 26,7 C 26,7 C 51 % 1010,2 hPa 0,0 mm 10,3 km/h (2 Bft) O-SO 108 1 min 0,000 mm 5,7 UV-I 759 W/m 15,7 C 14,5 km/h (3 Bft)
04.08.2016 15:21 26,6 C 26,7 C 46 % 1010,2 hPa 0,0 mm 1,9 km/h (1 Bft) SO 132 1 min 0,000 mm 5,7 UV-I 761 W/m 14,0 C 4,8 km/h (1 Bft)
04.08.2016 15:22 26,5 C 26,6 C 45 % 1010,1 hPa 0,0 mm 1,3 km/h (1 Bft) O 88 1 min 0,000 mm 5,6 UV-I 770 W/m 13,6 C 3,2 km/h (1 Bft)
04.08.2016 15:23 26,4 C 26,5 C 49 % 1010,1 hPa 0,0 mm 7,5 km/h (2 Bft) O 92 1 min 0,000 mm 5,7 UV-I 782 W/m 14,8 C 12,9 km/h (3 Bft)
04.08.2016 15:24 26,4 C 26,4 C 48 % 1010,1 hPa 0,0 mm 3,2 km/h (1 Bft) N 9 1 min 0,000 mm 5,3 UV-I 782 W/m 14,5 C 4,8 km/h (1 Bft)
04.08.2016 15:25 26,4 C 26,4 C 47 % 1010,1 hPa 0,0 mm 2,7 km/h (1 Bft) O-NO 67 1 min 0,000 mm 2,6 UV-I 782 W/m 14,2 C 4,8 km/h (1 Bft)
04.08.2016 15:26 26,3 C 26,4 C 48 % 1010,1 hPa 0,0 mm 4,1 km/h (1 Bft) N 10 0 min 0,000 mm 2,7 UV-I 142 W/m 14,4 C 4,8 km/h (1 Bft)
04.08.2016 15:27 26,2 C 26,3 C 49 % 1010,1 hPa 0,0 mm 6,7 km/h (2 Bft) S-SO 147 0 min 0,000 mm 5,7 UV-I 142 W/m 14,6 C 11,3 km/h (2 Bft)
04.08.2016 15:28 26,1 C 26,2 C 48 % 1010,1 hPa 0,0 mm 2,5 km/h (1 Bft) O 95 1 min 0,000 mm 5,7 UV-I 777 W/m 14,2 C 6,4 km/h (2 Bft)
04.08.2016 15:29 26,1 C 26,1 C 53 % 1010,1 hPa 0,0 mm 2,4 km/h (1 Bft) O-NO 59 1 min 0,000 mm 5,6 UV-I 768 W/m 15,8 C 4,8 km/h (1 Bft)
04.08.2016 15:30 26,1 C 26,1 C 48 % 1010,0 hPa 0,0 mm 4,5 km/h (1 Bft) O-NO 65 1 min 0,000 mm 5,6 UV-I 766 W/m 14,2 C 8,0 km/h (2 Bft)
04.08.2016 15:31 26,2 C 26,2 C 50 % 1010,0 hPa 0,0 mm 4,6 km/h (1 Bft) NO 47 1 min 0,000 mm 5,6 UV-I 765 W/m 14,9 C 8,0 km/h (2 Bft)
04.08.2016 15:32 26,2 C 26,3 C 49 % 1010,1 hPa 0,0 mm 1,8 km/h (1 Bft) NO 46 1 min 0,000 mm 5,5 UV-I 765 W/m 14,6 C 3,2 km/h (1 Bft)
04.08.2016 15:33 26,3 C 26,3 C 54 % 1010,0 hPa 0,0 mm 4,0 km/h (1 Bft) O-NO 68 1 min 0,000 mm 5,5 UV-I 765 W/m 16,2 C 4,8 km/h (1 Bft)
04.08.2016 15:34 26,4 C 26,4 C 47 % 1010,0 hPa 0,0 mm 3,9 km/h (1 Bft) O-NO 68 1 min 0,000 mm 5,5 UV-I 772 W/m 14,2 C 4,8 km/h (1 Bft)
04.08.2016 15:35 26,4 C 26,4 C 50 % 1010,0 hPa 0,0 mm 2,7 km/h (1 Bft) O-NO 62 1 min 0,000 mm 3,3 UV-I 773 W/m 15,1 C 4,8 km/h (1 Bft)
04.08.2016 15:36 26,5 C 26,5 C 48 % 1010,0 hPa 0,0 mm 1,0 km/h (0 Bft) O-NO 71 1 min 0,000 mm 5,2 UV-I 773 W/m 14,6 C 1,6 km/h (1 Bft)
04.08.2016 15:37 26,6 C 26,6 C 49 % 1010,0 hPa 0,0 mm 3,4 km/h (1 Bft) O-SO 115 1 min 0,000 mm 5,5 UV-I 773 W/m 15,0 C 6,4 km/h (2 Bft)
04.08.2016 15:38 26,6 C 26,6 C 47 % 1010,0 hPa 0,0 mm 6,9 km/h (2 Bft) O 84 1 min 0,000 mm 3,4 UV-I 773 W/m 14,3 C 12,9 km/h (3 Bft)
04.08.2016 15:39 26,4 C 26,6 C 48 % 1010,0 hPa 0,0 mm 7,4 km/h (2 Bft) SO 144 0 min 0,000 mm 4,7 UV-I 267 W/m 14,5 C 11,3 km/h (2 Bft)
04.08.2016 15:40 26,3 C 26,4 C 47 % 1010,0 hPa 0,0 mm 5,0 km/h (1 Bft) O-SO 105 0 min 0,000 mm 2,8 UV-I 153 W/m 14,1 C 6,4 km/h (2 Bft)
04.08.2016 15:41 26,2 C 26,3 C 50 % 1010,0 hPa 0,0 mm 5,9 km/h (2 Bft) O 92 0 min 0,000 mm 2,7 UV-I 144 W/m 14,9 C 11,3 km/h (2 Bft)
04.08.2016 15:42 26,1 C 26,2 C 48 % 1010,0 hPa 0,0 mm 3,4 km/h (1 Bft) O 80 0 min 0,000 mm 5,1 UV-I 144 W/m 14,2 C 4,8 km/h (1 Bft)
04.08.2016 15:43 26,0 C 26,1 C 47 % 1009,9 hPa 0,0 mm 1,8 km/h (1 Bft) O-NO 77 0 min 0,000 mm 4,2 UV-I 144 W/m 13,8 C 3,2 km/h (1 Bft)
04.08.2016 15:44 26,0 C 26,0 C 50 % 1009,9 hPa 0,0 mm 1,3 km/h (1 Bft) O-NO 77 0 min 0,000 mm 3,7 UV-I 144 W/m 14,8 C 3,2 km/h (1 Bft)
04.08.2016 15:45 26,0 C 26,0 C 55 % 1009,9 hPa 0,0 mm 3,5 km/h (1 Bft) O-NO 76 0 min 0,000 mm 5,2 UV-I 144 W/m 16,2 C 4,8 km/h (1 Bft)
04.08.2016 15:46 25,9 C 26,0 C 53 % 1009,9 hPa 0,0 mm 5,4 km/h (1 Bft) SO 124 1 min 0,000 mm 5,1 UV-I 708 W/m 15,6 C 9,7 km/h (2 Bft)
04.08.2016 15:47 25,9 C 25,9 C 50 % 1009,9 hPa 0,0 mm 5,2 km/h (1 Bft) O-NO 64 1 min 0,000 mm 5,1 UV-I 708 W/m 14,7 C 6,4 km/h (2 Bft)
04.08.2016 15:48 26,1 C 26,1 C 51 % 1009,9 hPa 0,0 mm 3,2 km/h (1 Bft) O-NO 64 1 min 0,000 mm 5,0 UV-I 705 W/m 15,2 C 8,0 km/h (2 Bft)
04.08.2016 15:49 26,2 C 26,2 C 51 % 1009,8 hPa 0,0 mm 8,0 km/h (2 Bft) O 94 1 min 0,000 mm 5,0 UV-I 707 W/m 15,2 C 11,3 km/h (2 Bft)
04.08.2016 15:50 26,2 C 26,2 C 52 % 1009,9 hPa 0,0 mm 8,4 km/h (2 Bft) O-NO 76 1 min 0,000 mm 5,0 UV-I 708 W/m 15,6 C 12,9 km/h (3 Bft)
04.08.2016 15:51 26,2 C 26,2 C 50 % 1009,8 hPa 0,0 mm 4,2 km/h (1 Bft) O 90 1 min 0,000 mm 4,9 UV-I 694 W/m 14,9 C 8,0 km/h (2 Bft)
04.08.2016 15:52 26,2 C 26,2 C 53 % 1009,8 hPa 0,0 mm 9,2 km/h (2 Bft) NO 56 1 min 0,000 mm 4,9 UV-I 693 W/m 15,8 C 14,5 km/h (3 Bft)
04.08.2016 15:53 26,2 C 26,2 C 52 % 1009,8 hPa 0,0 mm 8,0 km/h (2 Bft) O-NO 78 1 min 0,000 mm 4,9 UV-I 701 W/m 15,6 C 14,5 km/h (3 Bft)
04.08.2016 15:54 26,2 C 26,2 C 53 % 1009,8 hPa 0,0 mm 5,0 km/h (1 Bft) O-NO 62 1 min 0,000 mm 4,8 UV-I 701 W/m 15,8 C 8,0 km/h (2 Bft)
04.08.2016 15:55 26,2 C 26,2 C 55 % 1009,7 hPa 0,0 mm 2,2 km/h (1 Bft) O-SO 113 1 min 0,000 mm 4,4 UV-I 701 W/m 16,4 C 4,8 km/h (1 Bft)
04.08.2016 15:56 26,2 C 26,2 C 53 % 1009,8 hPa 0,0 mm 2,3 km/h (1 Bft) NO 48 1 min 0,000 mm 2,8 UV-I 701 W/m 15,8 C 6,4 km/h (2 Bft)
04.08.2016 15:57 26,1 C 26,2 C 53 % 1009,7 hPa 0,0 mm 6,0 km/h (2 Bft) O-SO 111 1 min 0,000 mm 4,2 UV-I 715 W/m 15,8 C 9,7 km/h (2 Bft)
04.08.2016 15:58 26,1 C 26,1 C 52 % 1009,8 hPa 0,0 mm 3,8 km/h (1 Bft) O-SO 109 1 min 0,000 mm 4,6 UV-I 656 W/m 15,5 C 11,3 km/h (2 Bft)
04.08.2016 15:59 26,0 C 26,1 C 54 % 1009,7 hPa 0,0 mm 2,3 km/h (1 Bft) O 84 1 min 0,000 mm 4,4 UV-I 656 W/m 16,0 C 4,8 km/h (1 Bft)
04.08.2016 16:00 25,9 C 26,0 C 53 % 1009,8 hPa 0,0 mm 5,1 km/h (1 Bft) O-SO 107 0 min 0,000 mm 2,9 UV-I 193 W/m 15,6 C 8,0 km/h (2 Bft)
04.08.2016 16:01 25,9 C 25,9 C 54 % 1009,7 hPa 0,0 mm 8,2 km/h (2 Bft) O-SO 121 0 min 0,457 mm 3,5 UV-I 193 W/m 15,9 C 12,9 km/h (3 Bft)
04.08.2016 16:02 25,9 C 25,9 C 54 % 1009,7 hPa 0,0 mm 4,0 km/h (1 Bft) O 95 1 min 0,000 mm 4,6 UV-I 684 W/m 15,9 C 4,8 km/h (1 Bft)
04.08.2016 16:03 25,9 C 25,9 C 54 % 1009,7 hPa 0,0 mm 8,0 km/h (2 Bft) O 88 1 min 0,000 mm 4,6 UV-I 689 W/m 15,9 C 11,3 km/h (2 Bft)
04.08.2016 16:04 25,9 C 25,9 C 51 % 1009,7 hPa 0,0 mm 12,1 km/h (2 Bft) N 11 1 min 0,000 mm 3,4 UV-I 689 W/m 15,0 C 16,1 km/h (3 Bft)
04.08.2016 16:05 25,9 C 25,9 C 51 % 1009,6 hPa 0,0 mm 8,6 km/h (2 Bft) NO 42 1 min 0,000 mm 4,6 UV-I 689 W/m 15,0 C 14,5 km/h (3 Bft)
04.08.2016 16:06 25,9 C 25,9 C 54 % 1009,6 hPa 0,0 mm 4,4 km/h (1 Bft) NO 49 1 min 0,000 mm 4,0 UV-I 689 W/m 15,9 C 6,4 km/h (2 Bft)
04.08.2016 16:07 25,9 C 25,9 C 52 % 1009,6 hPa 0,0 mm 7,4 km/h (2 Bft) O-NO 78 1 min 0,000 mm 3,1 UV-I 689 W/m 15,3 C 12,9 km/h (3 Bft)
04.08.2016 16:08 25,9 C 25,9 C 55 % 1009,7 hPa 0,0 mm 7,0 km/h (2 Bft) SO 132 1 min 0,000 mm 2,3 UV-I 689 W/m 16,2 C 11,3 km/h (2 Bft)
04.08.2016 16:09 25,8 C 25,9 C 53 % 1009,7 hPa 0,0 mm 8,5 km/h (2 Bft) O-NO 67 1 min 0,000 mm 2,3 UV-I 689 W/m 15,5 C 12,9 km/h (3 Bft)
04.08.2016 16:10 25,8 C 25,8 C 52 % 1009,6 hPa 0,0 mm 5,8 km/h (2 Bft) NO 55 1 min 0,000 mm 3,7 UV-I 645 W/m 15,2 C 12,9 km/h (3 Bft)
04.08.2016 16:11 25,7 C 25,8 C 51 % 1009,6 hPa 0,0 mm 2,1 km/h (1 Bft) O-SO 108 1 min 0,000 mm 2,4 UV-I 645 W/m 14,8 C 4,8 km/h (1 Bft)
04.08.2016 16:12 25,7 C 25,7 C 52 % 1009,6 hPa 0,0 mm 4,1 km/h (1 Bft) O-SO 105 1 min 0,000 mm 3,5 UV-I 645 W/m 15,1 C 9,7 km/h (2 Bft)
04.08.2016 16:13 25,7 C 25,7 C 58 % 1009,5 hPa 0,0 mm 5,3 km/h (1 Bft) O-NO 72 1 min 0,000 mm 3,3 UV-I 645 W/m 16,8 C 8,0 km/h (2 Bft)
04.08.2016 16:14 25,4 C 25,7 C 54 % 1009,5 hPa 0,0 mm 2,7 km/h (1 Bft) NO 38 1 min 0,000 mm 3,6 UV-I 645 W/m 15,4 C 4,8 km/h (1 Bft)
04.08.2016 16:15 25,5 C 25,5 C 57 % 1009,5 hPa 0,0 mm 4,3 km/h (1 Bft) O-SO 103 1 min 0,000 mm 3,7 UV-I 645 W/m 16,3 C 8,0 km/h (2 Bft)
04.08.2016 16:16 25,5 C 25,5 C 52 % 1009,5 hPa 0,0 mm 4,8 km/h (1 Bft) O 96 0 min 0,000 mm 2,3 UV-I 127 W/m 14,9 C 11,3 km/h (2 Bft)
04.08.2016 16:17 25,6 C 25,6 C 51 % 1009,5 hPa 0,0 mm 4,7 km/h (1 Bft) NO 53 0 min 0,000 mm 2,3 UV-I 95 W/m 14,7 C 9,7 km/h (2 Bft)
04.08.2016 16:18 25,6 C 25,6 C 52 % 1009,5 hPa 0,0 mm 4,8 km/h (1 Bft) O-NO 77 0 min 0,000 mm 2,2 UV-I 74 W/m 15,0 C 9,7 km/h (2 Bft)
04.08.2016 16:19 25,7 C 25,7 C 51 % 1009,5 hPa 0,0 mm 7,9 km/h (2 Bft) O 89 0 min 0,000 mm 2,2 UV-I 69 W/m 14,8 C 12,9 km/h (3 Bft)
04.08.2016 16:20 25,7 C 25,7 C 52 % 1009,5 hPa 0,0 mm 7,0 km/h (2 Bft) S-SO 164 0 min 0,000 mm 2,3 UV-I 114 W/m 15,1 C 11,3 km/h (2 Bft)
04.08.2016 16:21 25,7 C 25,7 C 50 % 1009,4 hPa 0,0 mm 5,6 km/h (1 Bft) O 86 0 min 0,000 mm 2,2 UV-I 67 W/m 14,5 C 11,3 km/h (2 Bft)
04.08.2016 16:22 25,7 C 25,7 C 52 % 1009,4 hPa 0,0 mm 3,8 km/h (1 Bft) NO 50 0 min 0,000 mm 2,1 UV-I 67 W/m 15,1 C 6,4 km/h (2 Bft)
04.08.2016 16:23 25,8 C 25,8 C 51 % 1009,4 hPa 0,0 mm 3,3 km/h (1 Bft) O-NO 70 0 min 0,000 mm 2,1 UV-I 67 W/m 14,9 C 6,4 km/h (2 Bft)
04.08.2016 16:24 25,9 C 25,9 C 52 % 1009,3 hPa 0,0 mm 5,3 km/h (1 Bft) O-NO 65 0 min 0,000 mm 2,1 UV-I 67 W/m 15,3 C 9,7 km/h (2 Bft)
04.08.2016 16:25 25,8 C 25,9 C 52 % 1009,3 hPa 0,0 mm 1,7 km/h (1 Bft) O-NO 66 0 min 0,000 mm 2,1 UV-I 69 W/m 15,2 C 4,8 km/h (1 Bft)
04.08.2016 16:26 25,8 C 25,8 C 52 % 1009,3 hPa 0,0 mm 2,9 km/h (1 Bft) S 186 0 min 0,000 mm 2,1 UV-I 69 W/m 15,2 C 6,4 km/h (2 Bft)
04.08.2016 16:27 25,8 C 25,8 C 51 % 1009,3 hPa 0,0 mm 4,7 km/h (1 Bft) O-SO 102 0 min 0,000 mm 2,1 UV-I 72 W/m 14,9 C 6,4 km/h (2 Bft)
04.08.2016 16:28 25,8 C 25,8 C 57 % 1009,3 hPa 0,0 mm 8,9 km/h (2 Bft) NO 55 0 min 0,000 mm 2,1 UV-I 76 W/m 16,6 C 12,9 km/h (3 Bft)
04.08.2016 16:29 25,8 C 25,8 C 50 % 1009,2 hPa 0,0 mm 7,7 km/h (2 Bft) O-NO 69 0 min 0,000 mm 2,1 UV-I 74 W/m 14,6 C 11,3 km/h (2 Bft)
04.08.2016 16:30 25,8 C 25,9 C 55 % 1009,2 hPa 0,0 mm 10,3 km/h (2 Bft) O 86 0 min 0,000 mm 2,1 UV-I 70 W/m 16,1 C 12,9 km/h (3 Bft)
04.08.2016 16:31 25,8 C 25,8 C 49 % 1009,2 hPa 0,0 mm 7,8 km/h (2 Bft) O 91 0 min 0,000 mm 2,0 UV-I 65 W/m 14,3 C 12,9 km/h (3 Bft)
04.08.2016 16:32 25,8 C 25,8 C 49 % 1009,2 hPa 0,0 mm 7,8 km/h (2 Bft) O-SO 102 0 min 0,000 mm 2,0 UV-I 63 W/m 14,3 C 12,9 km/h (3 Bft)
04.08.2016 16:33 25,9 C 25,9 C 51 % 1009,1 hPa 0,0 mm 4,7 km/h (1 Bft) O-NO 69 0 min 0,000 mm 2,1 UV-I 62 W/m 15,0 C 6,4 km/h (2 Bft)
04.08.2016 16:34 25,9 C 25,9 C 53 % 1009,1 hPa 0,0 mm 5,7 km/h (1 Bft) O 91 0 min 0,000 mm 2,2 UV-I 60 W/m 15,6 C 8,0 km/h (2 Bft)
04.08.2016 16:35 25,9 C 25,9 C 54 % 1009,1 hPa 0,0 mm 4,4 km/h (1 Bft) NO 39 0 min 0,000 mm 2,0 UV-I 62 W/m 15,9 C 6,4 km/h (2 Bft)
04.08.2016 16:36 26,0 C 26,0 C 55 % 1009,1 hPa 0,0 mm 3,4 km/h (1 Bft) O-NO 67 0 min 0,000 mm 2,0 UV-I 63 W/m 16,2 C 4,8 km/h (1 Bft)
04.08.2016 16:37 25,9 C 26,0 C 52 % 1009,1 hPa 0,0 mm 3,6 km/h (1 Bft) NO 42 0 min 0,000 mm 2,0 UV-I 60 W/m 15,3 C 9,7 km/h (2 Bft)
04.08.2016 16:38 25,9 C 25,9 C 52 % 1009,1 hPa 0,0 mm 6,1 km/h (2 Bft) O-NO 71 0 min 0,000 mm 2,0 UV-I 60 W/m 15,3 C 11,3 km/h (2 Bft)
04.08.2016 16:39 25,9 C 25,9 C 51 % 1009,1 hPa 0,0 mm 3,1 km/h (1 Bft) O-NO 65 0 min 0,000 mm 2,0 UV-I 58 W/m 15,0 C 6,4 km/h (2 Bft)
04.08.2016 16:40 25,9 C 25,9 C 55 % 1009,1 hPa 0,0 mm 3,1 km/h (1 Bft) O 99 0 min 0,000 mm 2,0 UV-I 58 W/m 16,2 C 4,8 km/h (1 Bft)
04.08.2016 16:41 25,8 C 25,9 C 51 % 1009,0 hPa 0,0 mm 4,9 km/h (1 Bft) O-NO 69 0 min 0,000 mm 2,0 UV-I 56 W/m 14,9 C 6,4 km/h (2 Bft)
04.08.2016 16:42 25,8 C 25,8 C 51 % 1009,0 hPa 0,0 mm 1,7 km/h (1 Bft) NO 55 0 min 0,000 mm 1,9 UV-I 60 W/m 14,9 C 4,8 km/h (1 Bft)
04.08.2016 16:43 25,8 C 25,8 C 48 % 1009,0 hPa 0,0 mm 3,5 km/h (1 Bft) N-NO 19 0 min 0,000 mm 1,9 UV-I 69 W/m 13,9 C 9,7 km/h (2 Bft)
04.08.2016 16:44 25,8 C 25,8 C 54 % 1009,0 hPa 0,0 mm 5,3 km/h (1 Bft) O-NO 75 0 min 0,000 mm 1,9 UV-I 91 W/m 15,8 C 11,3 km/h (2 Bft)
04.08.2016 16:45 25,7 C 25,8 C 49 % 1009,0 hPa 0,0 mm 5,6 km/h (1 Bft) NO 38 0 min 0,000 mm 1,9 UV-I 86 W/m 14,2 C 9,7 km/h (2 Bft)
04.08.2016 16:46 25,8 C 25,8 C 49 % 1008,9 hPa 0,0 mm 6,2 km/h (2 Bft) O-NO 73 0 min 0,000 mm 0,0 UV-I 54 W/m 14,3 C 11,3 km/h (2 Bft)
04.08.2016 16:47 25,8 C 25,8 C 55 % 1009,0 hPa 0,0 mm 9,0 km/h (2 Bft) SO 132 0 min 0,000 mm 0,0 UV-I 54 W/m 16,1 C 12,9 km/h (3 Bft)
04.08.2016 16:48 25,8 C 25,8 C 49 % 1009,0 hPa 0,0 mm 5,3 km/h (1 Bft) O 96 0 min 0,000 mm 0,0 UV-I 54 W/m 14,3 C 12,9 km/h (3 Bft)
04.08.2016 16:49 25,7 C 25,8 C 50 % 1008,9 hPa 0,0 mm 6,0 km/h (2 Bft) O-NO 72 0 min 0,000 mm 0,0 UV-I 54 W/m 14,5 C 9,7 km/h (2 Bft)
04.08.2016 16:50 25,7 C 25,8 C 49 % 1009,0 hPa 0,0 mm 7,6 km/h (2 Bft) O-NO 78 0 min 0,000 mm 0,0 UV-I 54 W/m 14,2 C 14,5 km/h (3 Bft)
04.08.2016 16:51 25,7 C 25,8 C 50 % 1008,9 hPa 0,0 mm 7,8 km/h (2 Bft) NO 50 0 min 0,000 mm 0,0 UV-I 54 W/m 14,5 C 11,3 km/h (2 Bft)
04.08.2016 16:52 25,8 C 25,8 C 52 % 1008,9 hPa 0,0 mm 4,7 km/h (1 Bft) O-NO 61 0 min 0,000 mm 0,0 UV-I 54 W/m 15,2 C 6,4 km/h (2 Bft)
04.08.2016 16:53 25,7 C 25,8 C 50 % 1008,9 hPa 0,0 mm 4,4 km/h (1 Bft) O-SO 121 0 min 0,000 mm 0,0 UV-I 53 W/m 14,5 C 6,4 km/h (2 Bft)
04.08.2016 16:54 25,7 C 25,7 C 50 % 1008,9 hPa 0,0 mm 4,0 km/h (1 Bft) NO 54 0 min 0,000 mm 0,0 UV-I 53 W/m 14,5 C 12,9 km/h (3 Bft)
04.08.2016 16:55 25,7 C 25,7 C 52 % 1008,9 hPa 0,0 mm 9,2 km/h (2 Bft) O-SO 107 0 min 0,000 mm 0,0 UV-I 53 W/m 15,1 C 12,9 km/h (3 Bft)
04.08.2016 16:56 25,7 C 25,8 C 50 % 1008,9 hPa 0,0 mm 2,9 km/h (1 Bft) O-SO 111 0 min 0,000 mm 0,0 UV-I 54 W/m 14,5 C 6,4 km/h (2 Bft)
04.08.2016 16:57 25,7 C 25,8 C 51 % 1008,9 hPa 0,0 mm 5,0 km/h (1 Bft) O-NO 65 0 min 0,000 mm 0,0 UV-I 54 W/m 14,8 C 8,0 km/h (2 Bft)
04.08.2016 16:58 25,8 C 25,8 C 51 % 1008,9 hPa 0,0 mm 5,6 km/h (1 Bft) O 82 0 min 0,000 mm 0,0 UV-I 53 W/m 14,9 C 8,0 km/h (2 Bft)
04.08.2016 16:59 25,8 C 25,8 C 54 % 1008,9 hPa 0,0 mm 3,9 km/h (1 Bft) SO 137 0 min 0,000 mm 0,0 UV-I 53 W/m 15,8 C 6,4 km/h (2 Bft)
04.08.2016 17:00 25,8 C 25,8 C 49 % 1008,9 hPa 0,0 mm 4,8 km/h (1 Bft) O-SO 109 0 min 0,000 mm 0,0 UV-I 53 W/m 14,3 C 9,7 km/h (2 Bft)
04.08.2016 17:01 25,7 C 25,8 C 50 % 1008,8 hPa 0,0 mm 2,6 km/h (1 Bft) NO 51 0 min 0,152 mm 0,0 UV-I 54 W/m 14,5 C 4,8 km/h (1 Bft)
04.08.2016 17:02 25,8 C 25,8 C 50 % 1008,8 hPa 0,0 mm 4,4 km/h (1 Bft) O-NO 61 0 min 0,000 mm 0,0 UV-I 53 W/m 14,6 C 8,0 km/h (2 Bft)
04.08.2016 17:03 25,8 C 25,8 C 54 % 1008,8 hPa 0,0 mm 3,4 km/h (1 Bft) NO 52 0 min 0,000 mm 0,0 UV-I 53 W/m 15,8 C 8,0 km/h (2 Bft)
04.08.2016 17:04 25,9 C 25,9 C 53 % 1008,8 hPa 0,0 mm 2,7 km/h (1 Bft) NO 56 0 min 0,000 mm 0,0 UV-I 53 W/m 15,6 C 3,2 km/h (1 Bft)
04.08.2016 17:05 25,9 C 25,9 C 57 % 1008,8 hPa 0,0 mm 4,7 km/h (1 Bft) O-NO 68 0 min 0,000 mm 0,0 UV-I 53 W/m 16,7 C 6,4 km/h (2 Bft)
04.08.2016 17:06 25,9 C 25,9 C 54 % 1008,8 hPa 0,0 mm 5,0 km/h (1 Bft) O-SO 111 0 min 0,000 mm 0,0 UV-I 53 W/m 15,9 C 6,4 km/h (2 Bft)
04.08.2016 17:07 25,8 C 25,9 C 50 % 1008,7 hPa 0,0 mm 1,8 km/h (1 Bft) O-NO 63 0 min 0,000 mm 0,0 UV-I 53 W/m 14,6 C 4,8 km/h (1 Bft)
04.08.2016 17:08 25,8 C 25,8 C 53 % 1008,7 hPa 0,0 mm 4,8 km/h (1 Bft) NO 47 0 min 0,000 mm 0,0 UV-I 53 W/m 15,5 C 6,4 km/h (2 Bft)
04.08.2016 17:09 25,8 C 25,8 C 50 % 1008,7 hPa 0,0 mm 5,8 km/h (2 Bft) NO 45 0 min 0,000 mm 0,0 UV-I 51 W/m 14,6 C 8,0 km/h (2 Bft)
04.08.2016 17:10 25,8 C 25,8 C 52 % 1008,7 hPa 0,0 mm 6,8 km/h (2 Bft) O-NO 71 0 min 0,000 mm 0,0 UV-I 51 W/m 15,2 C 11,3 km/h (2 Bft)
04.08.2016 17:11 25,7 C 25,8 C 52 % 1008,7 hPa 0,0 mm 3,4 km/h (1 Bft) O-NO 64 0 min 0,000 mm 0,0 UV-I 51 W/m 15,1 C 6,4 km/h (2 Bft)
04.08.2016 17:12 25,7 C 25,8 C 55 % 1008,6 hPa 0,0 mm 1,9 km/h (1 Bft) S-SO 148 0 min 0,000 mm 0,0 UV-I 51 W/m 16,0 C 4,8 km/h (1 Bft)
04.08.2016 17:13 25,8 C 25,8 C 48 % 1008,7 hPa 0,0 mm 1,9 km/h (1 Bft) S-SO 161 0 min 0,000 mm 0,0 UV-I 51 W/m 13,9 C 3,2 km/h (1 Bft)
04.08.2016 17:14 25,8 C 25,8 C 51 % 1008,7 hPa 0,0 mm 3,5 km/h (1 Bft) O-NO 59 0 min 0,000 mm 0,0 UV-I 51 W/m 14,9 C 8,0 km/h (2 Bft)
04.08.2016 17:15 25,8 C 25,8 C 51 % 1008,6 hPa 0,0 mm 4,3 km/h (1 Bft) NO 42 0 min 0,000 mm 0,0 UV-I 51 W/m 14,9 C 6,4 km/h (2 Bft)
04.08.2016 17:16 25,7 C 25,8 C 58 % 1008,6 hPa 0,0 mm 4,1 km/h (1 Bft) O 96 0 min 0,000 mm 0,0 UV-I 51 W/m 16,8 C 6,4 km/h (2 Bft)
04.08.2016 17:17 25,7 C 25,8 C 49 % 1008,6 hPa 0,0 mm 5,8 km/h (2 Bft) O-NO 65 0 min 0,000 mm 0,0 UV-I 51 W/m 14,2 C 9,7 km/h (2 Bft)
04.08.2016 17:18 25,7 C 25,7 C 52 % 1008,5 hPa 0,0 mm 3,1 km/h (1 Bft) O-NO 69 0 min 0,000 mm 1,6 UV-I 65 W/m 15,1 C 4,8 km/h (1 Bft)
04.08.2016 17:19 25,6 C 25,7 C 49 % 1008,5 hPa 0,0 mm 6,8 km/h (2 Bft) O-NO 69 0 min 0,000 mm 0,0 UV-I 49 W/m 14,1 C 9,7 km/h (2 Bft)
04.08.2016 17:20 25,6 C 25,6 C 50 % 1008,5 hPa 0,0 mm 2,2 km/h (1 Bft) O-NO 57 0 min 0,000 mm 0,0 UV-I 49 W/m 14,4 C 6,4 km/h (2 Bft)
04.08.2016 17:21 25,7 C 25,7 C 49 % 1008,4 hPa 0,0 mm 2,0 km/h (1 Bft) O 93 0 min 0,000 mm 0,0 UV-I 51 W/m 14,2 C 3,2 km/h (1 Bft)
04.08.2016 17:22 25,7 C 25,7 C 48 % 1008,4 hPa 0,0 mm 3,3 km/h (1 Bft) O-SO 123 0 min 0,000 mm 0,0 UV-I 49 W/m 13,9 C 6,4 km/h (2 Bft)
04.08.2016 17:23 25,7 C 25,7 C 49 % 1008,5 hPa 0,0 mm 2,9 km/h (1 Bft) S-SW 194 0 min 0,000 mm 0,0 UV-I 51 W/m 14,2 C 4,8 km/h (1 Bft)
04.08.2016 17:24 25,6 C 25,7 C 46 % 1008,5 hPa 0,0 mm 2,1 km/h (1 Bft) SO 128 0 min 0,000 mm 0,0 UV-I 53 W/m 13,1 C 4,8 km/h (1 Bft)
04.08.2016 17:25 25,6 C 25,6 C 53 % 1008,5 hPa 0,0 mm 2,0 km/h (1 Bft) O-NO 71 0 min 0,000 mm 0,0 UV-I 49 W/m 15,3 C 3,2 km/h (1 Bft)
04.08.2016 17:26 25,5 C 25,6 C 56 % 1008,5 hPa 0,0 mm 3,5 km/h (1 Bft) O-NO 73 0 min 0,000 mm 0,0 UV-I 49 W/m 16,1 C 6,4 km/h (2 Bft)
04.08.2016 17:27 25,5 C 25,5 C 50 % 1008,5 hPa 0,0 mm 3,2 km/h (1 Bft) O-NO 69 0 min 0,000 mm 0,0 UV-I 49 W/m 14,3 C 4,8 km/h (1 Bft)
04.08.2016 17:28 25,4 C 25,5 C 51 % 1008,5 hPa 0,0 mm 2,7 km/h (1 Bft) O-SO 114 0 min 0,000 mm 0,0 UV-I 49 W/m 14,5 C 3,2 km/h (1 Bft)
04.08.2016 17:29 25,5 C 25,5 C 50 % 1008,4 hPa 0,0 mm 2,5 km/h (1 Bft) O-NO 71 0 min 0,000 mm 0,0 UV-I 49 W/m 14,3 C 4,8 km/h (1 Bft)
04.08.2016 17:30 25,4 C 25,5 C 51 % 1008,5 hPa 0,0 mm 4,2 km/h (1 Bft) SO 138 0 min 0,000 mm 0,0 UV-I 49 W/m 14,5 C 6,4 km/h (2 Bft)
04.08.2016 17:31 25,4 C 25,4 C 47 % 1008,5 hPa 0,0 mm 2,7 km/h (1 Bft) O-SO 117 0 min 0,000 mm 0,0 UV-I 49 W/m 13,3 C 8,0 km/h (2 Bft)
04.08.2016 17:32 25,4 C 25,4 C 47 % 1008,4 hPa 0,0 mm 3,4 km/h (1 Bft) O 94 0 min 0,000 mm 0,0 UV-I 49 W/m 13,3 C 4,8 km/h (1 Bft)
04.08.2016 17:33 25,6 C 25,6 C 52 % 1008,4 hPa 0,0 mm 6,2 km/h (2 Bft) NO 40 0 min 0,000 mm 0,0 UV-I 49 W/m 15,0 C 11,3 km/h (2 Bft)
04.08.2016 17:34 25,6 C 25,6 C 50 % 1008,4 hPa 0,0 mm 0,4 km/h (0 Bft) NO 40 0 min 0,000 mm 0,0 UV-I 49 W/m 14,4 C 1,6 km/h (1 Bft)
04.08.2016 17:35 25,6 C 25,6 C 47 % 1008,4 hPa 0,0 mm 3,2 km/h (1 Bft) O 83 0 min 0,000 mm 0,0 UV-I 49 W/m 13,4 C 6,4 km/h (2 Bft)
04.08.2016 17:36 25,5 C 25,6 C 44 % 1008,4 hPa 0,0 mm 2,2 km/h (1 Bft) O-NO 67 0 min 0,000 mm 0,0 UV-I 49 W/m 12,3 C 4,8 km/h (1 Bft)
04.08.2016 17:37 25,5 C 25,6 C 47 % 1008,4 hPa 0,0 mm 1,7 km/h (1 Bft) O-NO 69 0 min 0,000 mm 0,0 UV-I 49 W/m 13,3 C 3,2 km/h (1 Bft)
04.08.2016 17:38 25,5 C 25,6 C 54 % 1008,3 hPa 0,0 mm 1,4 km/h (1 Bft) O-NO 69 0 min 0,000 mm 0,0 UV-I 49 W/m 15,5 C 3,2 km/h (1 Bft)
04.08.2016 17:39 25,6 C 25,6 C 47 % 1008,3 hPa 0,0 mm 4,2 km/h (1 Bft) O 97 0 min 0,000 mm 0,0 UV-I 49 W/m 13,4 C 6,4 km/h (2 Bft)
04.08.2016 17:40 25,6 C 25,6 C 47 % 1008,3 hPa 0,0 mm 3,5 km/h (1 Bft) NO 44 0 min 0,000 mm 0,0 UV-I 51 W/m 13,4 C 6,4 km/h (2 Bft)
04.08.2016 17:41 25,6 C 25,6 C 47 % 1008,3 hPa 0,0 mm 5,6 km/h (1 Bft) O-NO 77 0 min 0,000 mm 0,0 UV-I 49 W/m 13,4 C 11,3 km/h (2 Bft)
04.08.2016 17:42 25,7 C 25,7 C 52 % 1008,2 hPa 0,0 mm 4,1 km/h (1 Bft) NO 56 0 min 0,000 mm 0,0 UV-I 53 W/m 15,1 C 9,7 km/h (2 Bft)
04.08.2016 17:43 25,6 C 25,7 C 50 % 1008,2 hPa 0,0 mm 2,5 km/h (1 Bft) O 85 0 min 0,000 mm 1,4 UV-I 65 W/m 14,4 C 4,8 km/h (1 Bft)
04.08.2016 17:44 25,5 C 25,6 C 53 % 1008,2 hPa 0,0 mm 2,5 km/h (1 Bft) O 92 0 min 0,000 mm 1,4 UV-I 62 W/m 15,2 C 4,8 km/h (1 Bft)
04.08.2016 17:45 25,4 C 25,5 C 49 % 1008,2 hPa 0,0 mm 1,3 km/h (1 Bft) O 86 0 min 0,000 mm 0,0 UV-I 53 W/m 13,9 C 3,2 km/h (1 Bft)
04.08.2016 17:46 25,4 C 25,4 C 49 % 1008,2 hPa 0,0 mm 1,8 km/h (1 Bft) SO 139 0 min 0,000 mm 0,0 UV-I 49 W/m 13,9 C 3,2 km/h (1 Bft)
04.08.2016 17:47 25,4 C 25,4 C 48 % 1008,2 hPa 0,0 mm 5,2 km/h (1 Bft) NO 38 0 min 0,000 mm 0,0 UV-I 49 W/m 13,6 C 8,0 km/h (2 Bft)
04.08.2016 17:48 25,5 C 25,5 C 49 % 1008,2 hPa 0,0 mm 4,1 km/h (1 Bft) N-NO 23 0 min 0,000 mm 0,0 UV-I 49 W/m 14,0 C 6,4 km/h (2 Bft)
04.08.2016 17:49 25,6 C 25,6 C 46 % 1008,1 hPa 0,0 mm 5,2 km/h (1 Bft) O 80 0 min 0,000 mm 0,0 UV-I 51 W/m 13,1 C 9,7 km/h (2 Bft)
04.08.2016 17:50 25,6 C 25,6 C 51 % 1008,2 hPa 0,0 mm 3,2 km/h (1 Bft) NO 53 0 min 0,000 mm 0,0 UV-I 51 W/m 14,7 C 4,8 km/h (1 Bft)
04.08.2016 17:51 25,6 C 25,6 C 47 % 1008,1 hPa 0,0 mm 4,4 km/h (1 Bft) O-NO 69 0 min 0,000 mm 0,0 UV-I 51 W/m 13,4 C 6,4 km/h (2 Bft)
04.08.2016 17:52 25,6 C 25,6 C 49 % 1008,1 hPa 0,0 mm 2,8 km/h (1 Bft) O-NO 70 0 min 0,000 mm 0,0 UV-I 51 W/m 14,1 C 4,8 km/h (1 Bft)
04.08.2016 17:53 25,5 C 25,6 C 48 % 1008,0 hPa 0,0 mm 3,1 km/h (1 Bft) S-SW 202 0 min 0,000 mm 0,0 UV-I 51 W/m 13,7 C 6,4 km/h (2 Bft)
04.08.2016 17:54 25,6 C 25,6 C 48 % 1008,1 hPa 0,0 mm 3,9 km/h (1 Bft) N-NO 28 0 min 0,000 mm 0,0 UV-I 51 W/m 13,8 C 6,4 km/h (2 Bft)
04.08.2016 17:55 25,6 C 25,6 C 45 % 1008,0 hPa 0,0 mm 2,1 km/h (1 Bft) SO 128 0 min 0,000 mm 0,0 UV-I 51 W/m 12,8 C 3,2 km/h (1 Bft)
04.08.2016 17:56 25,6 C 25,7 C 47 % 1008,0 hPa 0,0 mm 3,6 km/h (1 Bft) O-SO 115 0 min 0,000 mm 0,0 UV-I 51 W/m 13,4 C 11,3 km/h (2 Bft)
04.08.2016 17:57 25,6 C 25,6 C 46 % 1008,0 hPa 0,0 mm 6,8 km/h (2 Bft) SO 132 0 min 0,000 mm 0,0 UV-I 51 W/m 13,1 C 14,5 km/h (3 Bft)
04.08.2016 17:58 25,6 C 25,6 C 46 % 1008,0 hPa 0,0 mm 3,1 km/h (1 Bft) NO 56 0 min 0,000 mm 0,0 UV-I 51 W/m 13,1 C 8,0 km/h (2 Bft)
04.08.2016 17:59 25,5 C 25,6 C 46 % 1007,9 hPa 0,0 mm 4,6 km/h (1 Bft) SO 131 0 min 0,000 mm 0,0 UV-I 53 W/m 13,0 C 8,0 km/h (2 Bft)
04.08.2016 18:00 25,5 C 25,5 C 45 % 1007,9 hPa 0,0 mm 3,6 km/h (1 Bft) S-SO 149 0 min 0,000 mm 0,0 UV-I 53 W/m 12,7 C 6,4 km/h (2 Bft)
04.08.2016 18:01 25,5 C 25,5 C 43 % 1007,9 hPa 0,0 mm 1,4 km/h (1 Bft) O-NO 65 0 min 0,076 mm 0,0 UV-I 53 W/m 12,0 C 3,2 km/h (1 Bft)
04.08.2016 18:02 25,5 C 25,5 C 47 % 1007,9 hPa 0,0 mm 4,0 km/h (1 Bft) O-NO 67 0 min 0,000 mm 0,0 UV-I 54 W/m 13,3 C 6,4 km/h (2 Bft)
04.08.2016 18:03 25,4 C 25,5 C 50 % 1007,9 hPa 0,0 mm 4,1 km/h (1 Bft) O-NO 71 0 min 0,000 mm 0,0 UV-I 53 W/m 14,2 C 6,4 km/h (2 Bft)
04.08.2016 18:04 25,4 C 25,4 C 46 % 1007,9 hPa 0,0 mm 3,0 km/h (1 Bft) NO 56 0 min 0,000 mm 0,0 UV-I 53 W/m 12,9 C 6,4 km/h (2 Bft)
04.08.2016 18:05 25,5 C 25,5 C 48 % 1007,9 hPa 0,0 mm 4,5 km/h (1 Bft) O-SO 122 0 min 0,000 mm 0,0 UV-I 53 W/m 13,7 C 11,3 km/h (2 Bft)
04.08.2016 18:06 25,4 C 25,5 C 49 % 1007,9 hPa 0,0 mm 1,4 km/h (1 Bft) O 91 0 min 0,000 mm 0,0 UV-I 53 W/m 13,9 C 4,8 km/h (1 Bft)
04.08.2016 18:07 25,4 C 25,4 C 48 % 1007,9 hPa 0,0 mm 4,0 km/h (1 Bft) NO 54 0 min 0,000 mm 0,0 UV-I 54 W/m 13,6 C 9,7 km/h (2 Bft)
04.08.2016 18:08 25,4 C 25,5 C 47 % 1007,9 hPa 0,0 mm 3,2 km/h (1 Bft) S-SO 161 0 min 0,000 mm 0,0 UV-I 53 W/m 13,3 C 6,4 km/h (2 Bft)
04.08.2016 18:09 25,6 C 25,6 C 43 % 1007,8 hPa 0,0 mm 3,0 km/h (1 Bft) N 355 0 min 0,000 mm 1,2 UV-I 86 W/m 12,1 C 6,4 km/h (2 Bft)
04.08.2016 18:10 25,5 C 25,6 C 47 % 1007,8 hPa 0,0 mm 2,3 km/h (1 Bft) O-SO 107 0 min 0,000 mm 1,1 UV-I 60 W/m 13,3 C 9,7 km/h (2 Bft)
04.08.2016 18:11 25,4 C 25,5 C 46 % 1007,9 hPa 0,0 mm 4,7 km/h (1 Bft) S 176 0 min 0,000 mm 1,1 UV-I 60 W/m 12,9 C 8,0 km/h (2 Bft)
04.08.2016 18:12 25,4 C 25,4 C 45 % 1007,9 hPa 0,0 mm 3,2 km/h (1 Bft) SO 128 0 min 0,000 mm 1,1 UV-I 53 W/m 12,6 C 6,4 km/h (2 Bft)
04.08.2016 18:13 25,4 C 25,4 C 44 % 1007,8 hPa 0,0 mm 5,0 km/h (1 Bft) NO 51 0 min 0,000 mm 0,0 UV-I 63 W/m 12,2 C 9,7 km/h (2 Bft)
04.08.2016 18:14 25,4 C 25,4 C 44 % 1007,8 hPa 0,0 mm 4,8 km/h (1 Bft) O-NO 73 0 min 0,000 mm 1,1 UV-I 72 W/m 12,2 C 6,4 km/h (2 Bft)
04.08.2016 18:15 25,5 C 25,5 C 45 % 1007,8 hPa 0,0 mm 3,7 km/h (1 Bft) O-NO 59 0 min 0,000 mm 1,1 UV-I 62 W/m 12,7 C 6,4 km/h (2 Bft)
04.08.2016 18:16 25,5 C 25,5 C 49 % 1007,8 hPa 0,0 mm 1,9 km/h (1 Bft) O-NO 59 0 min 0,000 mm 1,1 UV-I 62 W/m 14,0 C 3,2 km/h (1 Bft)
04.08.2016 18:17 25,4 C 25,5 C 47 % 1007,8 hPa 0,0 mm 1,9 km/h (1 Bft) SW 234 0 min 0,000 mm 1,1 UV-I 58 W/m 13,3 C 3,2 km/h (1 Bft)
04.08.2016 18:18 25,4 C 25,4 C 46 % 1007,7 hPa 0,0 mm 2,0 km/h (1 Bft) NO 52 0 min 0,000 mm 0,0 UV-I 54 W/m 12,9 C 3,2 km/h (1 Bft)
04.08.2016 18:19 25,4 C 25,4 C 50 % 1007,8 hPa 0,0 mm 6,7 km/h (2 Bft) NO 40 0 min 0,000 mm 0,0 UV-I 54 W/m 14,2 C 12,9 km/h (3 Bft)
04.08.2016 18:20 25,4 C 25,4 C 49 % 1007,7 hPa 0,0 mm 4,1 km/h (1 Bft) O 90 0 min 0,000 mm 0,0 UV-I 53 W/m 13,9 C 6,4 km/h (2 Bft)
04.08.2016 18:21 25,3 C 25,4 C 47 % 1007,8 hPa 0,0 mm 3,4 km/h (1 Bft) O 94 0 min 0,000 mm 0,0 UV-I 53 W/m 13,2 C 4,8 km/h (1 Bft)
04.08.2016 18:22 25,3 C 25,4 C 48 % 1007,7 hPa 0,0 mm 2,0 km/h (1 Bft) N-NO 19 0 min 0,000 mm 0,0 UV-I 53 W/m 13,5 C 3,2 km/h (1 Bft)
04.08.2016 18:23 25,3 C 25,3 C 48 % 1007,7 hPa 0,0 mm 1,0 km/h (0 Bft) N-NO 19 0 min 0,000 mm 0,0 UV-I 53 W/m 13,5 C 1,6 km/h (1 Bft)
04.08.2016 18:24 25,3 C 25,3 C 47 % 1007,7 hPa 0,0 mm 1,2 km/h (1 Bft) NO 40 0 min 0,000 mm 0,0 UV-I 46 W/m 13,2 C 3,2 km/h (1 Bft)
04.08.2016 18:25 25,3 C 25,3 C 49 % 1007,7 hPa 0,0 mm 2,4 km/h (1 Bft) W-SW 246 0 min 0,000 mm 0,0 UV-I 44 W/m 13,8 C 4,8 km/h (1 Bft)
04.08.2016 18:26 25,3 C 25,3 C 50 % 1007,7 hPa 0,0 mm 2,0 km/h (1 Bft) N-NO 22 0 min 0,000 mm 0,0 UV-I 40 W/m 14,1 C 3,2 km/h (1 Bft)
04.08.2016 18:27 25,2 C 25,3 C 48 % 1007,6 hPa 0,0 mm 2,5 km/h (1 Bft) NO 46 0 min 0,000 mm 0,0 UV-I 39 W/m 13,4 C 3,2 km/h (1 Bft)
04.08.2016 18:28 25,1 C 25,2 C 49 % 1007,7 hPa 0,0 mm 4,2 km/h (1 Bft) N 5 0 min 0,000 mm 0,0 UV-I 37 W/m 13,6 C 6,4 km/h (2 Bft)
04.08.2016 18:29 24,9 C 25,1 C 51 % 1007,6 hPa 0,0 mm 5,3 km/h (1 Bft) O 101 0 min 0,000 mm 0,0 UV-I 35 W/m 14,1 C 9,7 km/h (2 Bft)
04.08.2016 18:30 24,9 C 24,9 C 47 % 1007,6 hPa 0,0 mm 3,0 km/h (1 Bft) O-NO 65 0 min 0,000 mm 0,0 UV-I 35 W/m 12,8 C 4,8 km/h (1 Bft)
04.08.2016 18:31 24,8 C 24,9 C 52 % 1007,6 hPa 0,0 mm 5,8 km/h (2 Bft) O-NO 75 0 min 0,000 mm 0,0 UV-I 37 W/m 14,3 C 17,7 km/h (3 Bft)
04.08.2016 18:32 24,8 C 24,8 C 49 % 1007,6 hPa 0,0 mm 1,5 km/h (1 Bft) O-NO 75 0 min 0,000 mm 0,0 UV-I 37 W/m 13,3 C 3,2 km/h (1 Bft)
04.08.2016 18:33 24,7 C 24,8 C 51 % 1007,6 hPa 0,0 mm 1,7 km/h (1 Bft) O 96 0 min 0,000 mm 0,0 UV-I 37 W/m 13,9 C 4,8 km/h (1 Bft)
04.08.2016 18:34 24,5 C 24,7 C 49 % 1007,6 hPa 0,0 mm 3,1 km/h (1 Bft) SO 126 0 min 0,000 mm 0,0 UV-I 37 W/m 13,1 C 4,8 km/h (1 Bft)
04.08.2016 18:35 24,4 C 24,5 C 48 % 1007,6 hPa 0,0 mm 1,9 km/h (1 Bft) O-SO 119 0 min 0,000 mm 0,0 UV-I 39 W/m 12,7 C 3,2 km/h (1 Bft)
04.08.2016 18:36 24,4 C 24,4 C 49 % 1007,6 hPa 0,0 mm 2,3 km/h (1 Bft) O-SO 110 0 min 0,000 mm 0,0 UV-I 46 W/m 13,0 C 3,2 km/h (1 Bft)
04.08.2016 18:37 24,2 C 24,4 C 54 % 1007,5 hPa 0,0 mm 1,9 km/h (1 Bft) O-SO 111 0 min 0,000 mm 0,0 UV-I 47 W/m 14,3 C 4,8 km/h (1 Bft)
04.08.2016 18:38 24,1 C 24,2 C 51 % 1007,5 hPa 0,0 mm 0,7 km/h (0 Bft) O-SO 111 0 min 0,000 mm 0,0 UV-I 46 W/m 13,3 C 1,6 km/h (1 Bft)
04.08.2016 18:39 24,1 C 24,1 C 51 % 1007,5 hPa 0,0 mm 1,2 km/h (1 Bft) O-SO 111 0 min 0,000 mm 0,0 UV-I 46 W/m 13,3 C 1,6 km/h (1 Bft)
04.08.2016 18:40 24,1 C 24,1 C 51 % 1007,5 hPa 0,0 mm 2,1 km/h (1 Bft) O-SO 111 0 min 0,000 mm 0,0 UV-I 46 W/m 13,3 C 3,2 km/h (1 Bft)
04.08.2016 18:41 24,1 C 24,1 C 52 % 1007,5 hPa 0,0 mm 2,2 km/h (1 Bft) SO 143 0 min 0,000 mm 0,0 UV-I 44 W/m 13,6 C 4,8 km/h (1 Bft)
04.08.2016 18:42 24,0 C 24,1 C 53 % 1007,5 hPa 0,0 mm 1,5 km/h (1 Bft) SO 143 0 min 0,000 mm 0,0 UV-I 46 W/m 13,8 C 3,2 km/h (1 Bft)
04.08.2016 18:43 23,9 C 24,0 C 56 % 1007,5 hPa 0,0 mm 2,9 km/h (1 Bft) O-SO 105 0 min 0,000 mm 0,0 UV-I 46 W/m 14,6 C 4,8 km/h (1 Bft)
04.08.2016 18:44 23,8 C 23,9 C 50 % 1007,4 hPa 0,0 mm 1,3 km/h (1 Bft) O-SO 105 0 min 0,000 mm 0,0 UV-I 46 W/m 12,7 C 3,2 km/h (1 Bft)
04.08.2016 18:45 23,8 C 23,9 C 51 % 1007,5 hPa 0,0 mm 2,8 km/h (1 Bft) S 173 0 min 0,000 mm 0,0 UV-I 47 W/m 13,0 C 4,8 km/h (1 Bft)
04.08.2016 18:46 23,9 C 23,9 C 52 % 1007,5 hPa 0,0 mm 1,3 km/h (1 Bft) S 173 0 min 0,000 mm 0,0 UV-I 47 W/m 13,4 C 3,2 km/h (1 Bft)
04.08.2016 18:47 23,9 C 23,9 C 54 % 1007,5 hPa 0,0 mm 1,6 km/h (1 Bft) S-SO 168 0 min 0,000 mm 0,0 UV-I 51 W/m 14,0 C 3,2 km/h (1 Bft)
04.08.2016 18:48 23,9 C 23,9 C 54 % 1007,5 hPa 0,0 mm 2,8 km/h (1 Bft) SO 137 0 min 0,000 mm 0,0 UV-I 53 W/m 14,0 C 3,2 km/h (1 Bft)
04.08.2016 18:49 23,9 C 23,9 C 50 % 1007,5 hPa 0,0 mm 1,5 km/h (1 Bft) SO 137 0 min 0,000 mm 0,0 UV-I 54 W/m 12,8 C 3,2 km/h (1 Bft)
04.08.2016 18:50 23,9 C 23,9 C 49 % 1007,4 hPa 0,0 mm 1,9 km/h (1 Bft) SO 137 0 min 0,000 mm 0,6 UV-I 56 W/m 12,5 C 3,2 km/h (1 Bft)
04.08.2016 18:51 23,9 C 23,9 C 50 % 1007,5 hPa 0,0 mm 1,2 km/h (1 Bft) SO 137 0 min 0,000 mm 0,6 UV-I 60 W/m 12,8 C 1,6 km/h (1 Bft)
04.08.2016 18:52 23,9 C 23,9 C 49 % 1007,4 hPa 0,0 mm 1,3 km/h (1 Bft) SO 137 0 min 0,000 mm 0,7 UV-I 62 W/m 12,5 C 3,2 km/h (1 Bft)
04.08.2016 18:53 23,9 C 23,9 C 50 % 1007,4 hPa 0,0 mm 1,3 km/h (1 Bft) SO 138 0 min 0,000 mm 0,7 UV-I 72 W/m 12,8 C 3,2 km/h (1 Bft)
04.08.2016 18:54 23,8 C 23,9 C 52 % 1007,5 hPa 0,0 mm 1,4 km/h (1 Bft) SO 138 0 min 0,000 mm 0,7 UV-I 74 W/m 13,3 C 3,2 km/h (1 Bft)
04.08.2016 18:55 23,8 C 23,8 C 51 % 1007,4 hPa 0,0 mm 0,8 km/h (0 Bft) SO 138 0 min 0,000 mm 0,7 UV-I 77 W/m 13,0 C 1,6 km/h (1 Bft)
04.08.2016 18:56 23,8 C 23,8 C 51 % 1007,4 hPa 0,0 mm 0,3 km/h (0 Bft) SO 138 0 min 0,000 mm 0,7 UV-I 81 W/m 13,0 C 1,6 km/h (1 Bft)
04.08.2016 18:57 23,8 C 23,8 C 51 % 1007,5 hPa 0,0 mm 2,2 km/h (1 Bft) SO 138 0 min 0,000 mm 0,7 UV-I 83 W/m 13,0 C 3,2 km/h (1 Bft)
04.08.2016 18:58 23,7 C 23,8 C 53 % 1007,4 hPa 0,0 mm 1,1 km/h (1 Bft) SO 138 0 min 0,000 mm 0,7 UV-I 81 W/m 13,5 C 1,6 km/h (1 Bft)
04.08.2016 18:59 23,7 C 23,7 C 53 % 1007,4 hPa 0,0 mm 1,4 km/h (1 Bft) SO 138 0 min 0,000 mm 0,7 UV-I 81 W/m 13,5 C 1,6 km/h (1 Bft)
04.08.2016 19:00 23,6 C 23,7 C 55 % 1007,4 hPa 0,0 mm 1,4 km/h (1 Bft) SO 138 0 min 0,077 mm 0,7 UV-I 81 W/m 14,0 C 1,6 km/h (1 Bft)
04.08.2016 19:01 23,6 C 23,6 C 53 % 1007,4 hPa 0,0 mm 1,7 km/h (1 Bft) SO 138 0 min 0,000 mm 0,7 UV-I 83 W/m 13,4 C 3,2 km/h (1 Bft)
04.08.2016 19:02 23,6 C 23,6 C 53 % 1007,3 hPa 0,0 mm 1,3 km/h (1 Bft) SO 138 0 min 0,000 mm 0,7 UV-I 83 W/m 13,4 C 1,6 km/h (1 Bft)
04.08.2016 19:03 23,6 C 23,6 C 55 % 1007,3 hPa 0,0 mm 0,0 km/h (0 Bft) SO 138 0 min 0,000 mm 0,7 UV-I 84 W/m 14,0 C 0,0 km/h (0 Bft)
04.08.2016 19:04 23,5 C 23,6 C 55 % 1007,3 hPa 0,0 mm 0,5 km/h (0 Bft) SO 138 0 min 0,000 mm 0,6 UV-I 90 W/m 13,9 C 1,6 km/h (1 Bft)
04.08.2016 19:05 23,4 C 23,5 C 55 % 1007,4 hPa 0,0 mm 0,7 km/h (0 Bft) SO 138 0 min 0,000 mm 0,6 UV-I 83 W/m 13,8 C 1,6 km/h (1 Bft)
04.08.2016 19:06 23,4 C 23,4 C 54 % 1007,3 hPa 0,0 mm 1,0 km/h (0 Bft) SO 138 0 min 0,000 mm 0,6 UV-I 83 W/m 13,6 C 1,6 km/h (1 Bft)
04.08.2016 19:07 23,4 C 23,4 C 56 % 1007,3 hPa 0,0 mm 0,4 km/h (0 Bft) SO 138 0 min 0,000 mm 0,6 UV-I 83 W/m 14,1 C 1,6 km/h (1 Bft)
04.08.2016 19:08 23,2 C 23,4 C 65 % 1007,3 hPa 0,0 mm 0,3 km/h (0 Bft) SO 138 0 min 0,000 mm 0,6 UV-I 84 W/m 16,2 C 1,6 km/h (1 Bft)
04.08.2016 19:09 22,9 C 23,2 C 63 % 1007,3 hPa 0,0 mm 0,4 km/h (0 Bft) SO 138 0 min 0,000 mm 0,6 UV-I 91 W/m 15,5 C 1,6 km/h (1 Bft)
04.08.2016 19:10 22,8 C 22,9 C 65 % 1007,2 hPa 0,0 mm 1,0 km/h (0 Bft) SO 138 0 min 0,000 mm 0,6 UV-I 113 W/m 15,9 C 1,6 km/h (1 Bft)
04.08.2016 19:11 22,6 C 22,8 C 68 % 1007,2 hPa 0,0 mm 1,2 km/h (1 Bft) SO 138 0 min 0,000 mm 0,6 UV-I 91 W/m 16,4 C 3,2 km/h (1 Bft)
04.08.2016 19:12 22,5 C 22,6 C 65 % 1007,2 hPa 0,0 mm 0,7 km/h (0 Bft) SO 138 0 min 0,000 mm 0,6 UV-I 91 W/m 15,6 C 1,6 km/h (1 Bft)
04.08.2016 19:13 22,6 C 22,6 C 63 % 1007,1 hPa 0,0 mm 0,1 km/h (0 Bft) SO 138 0 min 0,000 mm 0,6 UV-I 93 W/m 15,2 C 1,6 km/h (1 Bft)
04.08.2016 19:14 22,6 C 22,6 C 61 % 1007,1 hPa 0,0 mm 0,7 km/h (0 Bft) SO 138 0 min 0,000 mm 0,6 UV-I 93 W/m 14,7 C 1,6 km/h (1 Bft)
04.08.2016 19:15 22,7 C 22,7 C 57 % 1007,1 hPa 0,0 mm 0,1 km/h (0 Bft) SO 138 0 min 0,000 mm 0,6 UV-I 93 W/m 13,7 C 1,6 km/h (1 Bft)
04.08.2016 19:16 22,8 C 22,8 C 57 % 1007,1 hPa 0,0 mm 0,8 km/h (0 Bft) SO 138 0 min 0,000 mm 0,6 UV-I 93 W/m 13,8 C 1,6 km/h (1 Bft)
04.08.2016 19:17 23,0 C 23,0 C 56 % 1007,1 hPa 0,0 mm 1,3 km/h (1 Bft) SO 138 0 min 0,000 mm 0,6 UV-I 90 W/m 13,7 C 3,2 km/h (1 Bft)
04.08.2016 19:18 23,1 C 23,1 C 57 % 1007,1 hPa 0,0 mm 1,3 km/h (1 Bft) SO 138 0 min 0,000 mm 0,6 UV-I 86 W/m 14,1 C 1,6 km/h (1 Bft)
04.08.2016 19:19 23,1 C 23,1 C 59 % 1007,1 hPa 0,0 mm 1,1 km/h (1 Bft) SO 138 0 min 0,000 mm 0,6 UV-I 83 W/m 14,6 C 1,6 km/h (1 Bft)
04.08.2016 19:20 23,1 C 23,1 C 58 % 1007,0 hPa 0,0 mm 1,5 km/h (1 Bft) SO 138 0 min 0,000 mm 0,5 UV-I 77 W/m 14,4 C 3,2 km/h (1 Bft)
04.08.2016 19:21 23,1 C 23,1 C 57 % 1007,0 hPa 0,0 mm 1,3 km/h (1 Bft) SO 138 0 min 0,000 mm 0,5 UV-I 74 W/m 14,1 C 1,6 km/h (1 Bft)
04.08.2016 19:22 23,1 C 23,1 C 56 % 1007,0 hPa 0,0 mm 0,7 km/h (0 Bft) SO 138 0 min 0,000 mm 0,5 UV-I 67 W/m 13,8 C 1,6 km/h (1 Bft)
04.08.2016 19:23 23,1 C 23,1 C 58 % 1007,0 hPa 0,0 mm 1,5 km/h (1 Bft) SO 138 0 min 0,000 mm 0,5 UV-I 63 W/m 14,4 C 3,2 km/h (1 Bft)
04.08.2016 19:24 23,2 C 23,2 C 60 % 1007,0 hPa 0,0 mm 1,6 km/h (1 Bft) SO 138 0 min 0,000 mm 0,5 UV-I 62 W/m 15,0 C 1,6 km/h (1 Bft)
04.08.2016 19:25 23,1 C 23,2 C 58 % 1007,0 hPa 0,0 mm 1,9 km/h (1 Bft) SO 138 0 min 0,000 mm 0,5 UV-I 62 W/m 14,4 C 3,2 km/h (1 Bft)
04.08.2016 19:26 23,1 C 23,1 C 61 % 1007,0 hPa 0,0 mm 1,6 km/h (1 Bft) SO 138 0 min 0,000 mm 0,5 UV-I 60 W/m 15,2 C 3,2 km/h (1 Bft)
04.08.2016 19:27 22,9 C 23,1 C 57 % 1007,0 hPa 0,0 mm 0,9 km/h (0 Bft) SO 138 0 min 0,000 mm 0,5 UV-I 56 W/m 13,9 C 3,2 km/h (1 Bft)
04.08.2016 19:28 22,9 C 22,9 C 58 % 1006,9 hPa 0,0 mm 1,3 km/h (1 Bft) SO 138 0 min 0,000 mm 0,0 UV-I 53 W/m 14,2 C 3,2 km/h (1 Bft)
04.08.2016 19:29 22,9 C 22,9 C 57 % 1006,9 hPa 0,0 mm 1,7 km/h (1 Bft) SO 138 0 min 0,000 mm 0,0 UV-I 53 W/m 13,9 C 3,2 km/h (1 Bft)
04.08.2016 19:30 22,9 C 22,9 C 59 % 1006,9 hPa 0,0 mm 2,0 km/h (1 Bft) SO 138 0 min 0,000 mm 0,0 UV-I 49 W/m 14,5 C 3,2 km/h (1 Bft)
04.08.2016 19:31 22,8 C 22,9 C 58 % 1006,9 hPa 0,0 mm 1,9 km/h (1 Bft) O-SO 119 0 min 0,000 mm 0,0 UV-I 47 W/m 14,1 C 3,2 km/h (1 Bft)
04.08.2016 19:32 22,8 C 22,8 C 60 % 1006,9 hPa 0,0 mm 1,1 km/h (1 Bft) O-SO 119 0 min 0,000 mm 0,0 UV-I 46 W/m 14,6 C 1,6 km/h (1 Bft)
04.08.2016 19:33 22,7 C 22,8 C 59 % 1006,9 hPa 0,0 mm 1,4 km/h (1 Bft) O-SO 119 0 min 0,000 mm 0,0 UV-I 44 W/m 14,3 C 3,2 km/h (1 Bft)
04.08.2016 19:34 22,6 C 22,7 C 59 % 1006,9 hPa 0,0 mm 1,9 km/h (1 Bft) SO 125 0 min 0,000 mm 0,0 UV-I 40 W/m 14,2 C 4,8 km/h (1 Bft)
04.08.2016 19:35 22,6 C 22,7 C 61 % 1006,9 hPa 0,0 mm 1,3 km/h (1 Bft) O-NO 78 0 min 0,000 mm 0,0 UV-I 40 W/m 14,7 C 3,2 km/h (1 Bft)
04.08.2016 19:36 22,6 C 22,6 C 60 % 1006,9 hPa 0,0 mm 2,1 km/h (1 Bft) O-SO 103 0 min 0,000 mm 0,0 UV-I 39 W/m 14,4 C 4,8 km/h (1 Bft)
04.08.2016 19:37 22,6 C 22,6 C 58 % 1006,9 hPa 0,0 mm 0,7 km/h (0 Bft) SO 127 0 min 0,000 mm 0,0 UV-I 42 W/m 13,9 C 1,6 km/h (1 Bft)
04.08.2016 19:38 22,7 C 22,7 C 62 % 1006,9 hPa 0,0 mm 2,7 km/h (1 Bft) SO 128 0 min 0,000 mm 0,0 UV-I 40 W/m 15,0 C 4,8 km/h (1 Bft)
04.08.2016 19:39 22,6 C 22,7 C 62 % 1006,9 hPa 0,0 mm 3,3 km/h (1 Bft) O-SO 117 0 min 0,000 mm 0,0 UV-I 44 W/m 14,9 C 6,4 km/h (2 Bft)
04.08.2016 19:40 22,6 C 22,6 C 58 % 1006,9 hPa 0,0 mm 2,0 km/h (1 Bft) SO 146 0 min 0,000 mm 0,0 UV-I 39 W/m 13,9 C 3,2 km/h (1 Bft)
04.08.2016 19:41 22,6 C 22,6 C 59 % 1006,9 hPa 0,0 mm 1,3 km/h (1 Bft) SO 146 0 min 0,000 mm 0,0 UV-I 40 W/m 14,2 C 3,2 km/h (1 Bft)
04.08.2016 19:42 22,6 C 22,6 C 59 % 1006,8 hPa 0,0 mm 1,3 km/h (1 Bft) SO 146 0 min 0,000 mm 0,0 UV-I 49 W/m 14,2 C 1,6 km/h (1 Bft)
04.08.2016 19:43 22,6 C 22,6 C 63 % 1006,9 hPa 0,0 mm 1,8 km/h (1 Bft) SO 146 0 min 0,000 mm 0,0 UV-I 51 W/m 15,2 C 3,2 km/h (1 Bft)
04.08.2016 19:44 22,6 C 22,6 C 61 % 1006,8 hPa 0,0 mm 1,4 km/h (1 Bft) O 88 0 min 0,000 mm 0,0 UV-I 54 W/m 14,7 C 3,2 km/h (1 Bft)
04.08.2016 19:45 22,6 C 22,6 C 60 % 1006,8 hPa 0,0 mm 1,1 km/h (1 Bft) O 88 0 min 0,000 mm 0,0 UV-I 54 W/m 14,4 C 3,2 km/h (1 Bft)
04.08.2016 19:46 22,6 C 22,6 C 62 % 1006,8 hPa 0,0 mm 1,6 km/h (1 Bft) S-SO 157 0 min 0,000 mm 0,0 UV-I 54 W/m 14,9 C 3,2 km/h (1 Bft)
04.08.2016 19:47 22,6 C 22,6 C 59 % 1006,8 hPa 0,0 mm 1,7 km/h (1 Bft) NO 48 0 min 0,000 mm 0,0 UV-I 54 W/m 14,2 C 4,8 km/h (1 Bft)
04.08.2016 19:48 22,6 C 22,7 C 64 % 1006,8 hPa 0,0 mm 5,3 km/h (1 Bft) O-NO 71 0 min 0,000 mm 0,0 UV-I 54 W/m 15,4 C 8,0 km/h (2 Bft)
04.08.2016 19:49 22,6 C 22,6 C 63 % 1006,7 hPa 0,0 mm 4,2 km/h (1 Bft) O 79 0 min 0,000 mm 0,0 UV-I 56 W/m 15,2 C 4,8 km/h (1 Bft)
04.08.2016 19:50 22,6 C 22,6 C 61 % 1006,7 hPa 0,0 mm 2,3 km/h (1 Bft) O 80 0 min 0,000 mm 0,0 UV-I 58 W/m 14,7 C 4,8 km/h (1 Bft)
04.08.2016 19:51 22,6 C 22,6 C 62 % 1006,7 hPa 0,0 mm 3,4 km/h (1 Bft) NO 49 0 min 0,000 mm 0,0 UV-I 58 W/m 14,9 C 6,4 km/h (2 Bft)
04.08.2016 19:52 22,7 C 22,7 C 60 % 1006,7 hPa 0,0 mm 1,3 km/h (1 Bft) NO 52 0 min 0,000 mm 0,0 UV-I 53 W/m 14,5 C 3,2 km/h (1 Bft)
04.08.2016 19:53 22,7 C 22,7 C 61 % 1006,6 hPa 0,0 mm 2,2 km/h (1 Bft) O 90 0 min 0,000 mm 0,0 UV-I 42 W/m 14,8 C 4,8 km/h (1 Bft)
04.08.2016 19:54 22,7 C 22,7 C 62 % 1006,6 hPa 0,0 mm 2,2 km/h (1 Bft) O-NO 72 0 min 0,000 mm 0,0 UV-I 35 W/m 15,0 C 4,8 km/h (1 Bft)
04.08.2016 19:55 22,8 C 22,8 C 61 % 1006,5 hPa 0,0 mm 3,0 km/h (1 Bft) O 87 0 min 0,000 mm 0,0 UV-I 33 W/m 14,9 C 6,4 km/h (2 Bft)
04.08.2016 19:56 22,7 C 22,8 C 64 % 1006,5 hPa 0,0 mm 3,2 km/h (1 Bft) SO 125 0 min 0,000 mm 0,0 UV-I 32 W/m 15,5 C 6,4 km/h (2 Bft)
04.08.2016 19:57 22,7 C 22,7 C 60 % 1006,5 hPa 0,0 mm 2,9 km/h (1 Bft) SO 125 0 min 0,000 mm 0,0 UV-I 28 W/m 14,5 C 6,4 km/h (2 Bft)
04.08.2016 19:58 22,7 C 22,7 C 61 % 1006,4 hPa 0,0 mm 4,7 km/h (1 Bft) O-NO 73 0 min 0,000 mm 0,0 UV-I 26 W/m 14,8 C 12,9 km/h (3 Bft)
04.08.2016 19:59 22,6 C 22,7 C 61 % 1006,4 hPa 0,0 mm 7,5 km/h (2 Bft) SO 132 0 min 0,000 mm 0,0 UV-I 26 W/m 14,7 C 14,5 km/h (3 Bft)
04.08.2016 20:00 22,6 C 22,7 C 61 % 1006,4 hPa 0,0 mm 4,8 km/h (1 Bft) O-NO 61 0 min 0,050 mm 0,0 UV-I 28 W/m 14,7 C 6,4 km/h (2 Bft)
04.08.2016 20:01 22,6 C 22,6 C 62 % 1006,3 hPa 0,0 mm 3,6 km/h (1 Bft) O 96 0 min 0,000 mm 0,0 UV-I 28 W/m 14,9 C 6,4 km/h (2 Bft)
04.08.2016 20:02 22,6 C 22,6 C 61 % 1006,3 hPa 0,0 mm 3,0 km/h (1 Bft) O 101 0 min 0,000 mm 0,0 UV-I 30 W/m 14,7 C 4,8 km/h (1 Bft)
04.08.2016 20:03 22,6 C 22,6 C 60 % 1006,3 hPa 0,0 mm 4,8 km/h (1 Bft) O-SO 119 0 min 0,000 mm 0,0 UV-I 28 W/m 14,4 C 9,7 km/h (2 Bft)
04.08.2016 20:04 22,6 C 22,6 C 61 % 1006,3 hPa 0,0 mm 4,0 km/h (1 Bft) S-SW 195 0 min 0,000 mm 0,0 UV-I 26 W/m 14,7 C 12,9 km/h (3 Bft)
04.08.2016 20:05 22,6 C 22,6 C 59 % 1006,3 hPa 0,0 mm 2,5 km/h (1 Bft) S-SO 167 0 min 0,000 mm 0,0 UV-I 26 W/m 14,2 C 4,8 km/h (1 Bft)
04.08.2016 20:06 22,6 C 22,6 C 60 % 1006,4 hPa 0,0 mm 2,2 km/h (1 Bft) O-NO 58 0 min 0,000 mm 0,0 UV-I 26 W/m 14,4 C 4,8 km/h (1 Bft)
04.08.2016 20:07 22,6 C 22,6 C 60 % 1006,4 hPa 0,0 mm 2,5 km/h (1 Bft) SO 135 0 min 0,000 mm 0,0 UV-I 25 W/m 14,4 C 4,8 km/h (1 Bft)
04.08.2016 20:08 22,6 C 22,7 C 61 % 1006,4 hPa 0,0 mm 2,5 km/h (1 Bft) SO 124 0 min 0,000 mm 0,0 UV-I 25 W/m 14,7 C 4,8 km/h (1 Bft)
04.08.2016 20:09 22,5 C 22,6 C 63 % 1006,4 hPa 0,0 mm 2,5 km/h (1 Bft) SO 124 0 min 0,000 mm 0,0 UV-I 25 W/m 15,1 C 3,2 km/h (1 Bft)
04.08.2016 20:10 22,4 C 22,5 C 62 % 1006,4 hPa 0,0 mm 3,1 km/h (1 Bft) O 90 0 min 0,000 mm 0,0 UV-I 25 W/m 14,8 C 4,8 km/h (1 Bft)
04.08.2016 20:11 22,3 C 22,4 C 63 % 1006,3 hPa 0,0 mm 2,8 km/h (1 Bft) O-SO 122 0 min 0,000 mm 0,0 UV-I 25 W/m 14,9 C 4,8 km/h (1 Bft)
04.08.2016 20:12 22,3 C 22,3 C 61 % 1006,4 hPa 0,0 mm 3,8 km/h (1 Bft) O 100 0 min 0,000 mm 0,0 UV-I 25 W/m 14,4 C 4,8 km/h (1 Bft)
04.08.2016 20:13 22,3 C 22,3 C 61 % 1006,4 hPa 0,0 mm 1,6 km/h (1 Bft) O 100 0 min 0,000 mm 0,0 UV-I 25 W/m 14,4 C 3,2 km/h (1 Bft)
04.08.2016 20:14 22,3 C 22,3 C 62 % 1006,4 hPa 0,0 mm 2,5 km/h (1 Bft) O-NO 67 0 min 0,000 mm 0,0 UV-I 25 W/m 14,7 C 3,2 km/h (1 Bft)
04.08.2016 20:15 22,3 C 22,3 C 62 % 1006,4 hPa 0,0 mm 1,5 km/h (1 Bft) O-NO 73 0 min 0,000 mm 0,0 UV-I 23 W/m 14,7 C 3,2 km/h (1 Bft)
04.08.2016 20:16 22,3 C 22,3 C 63 % 1006,4 hPa 0,0 mm 2,1 km/h (1 Bft) O-NO 75 0 min 0,000 mm 0,0 UV-I 23 W/m 14,9 C 3,2 km/h (1 Bft)
04.08.2016 20:17 22,1 C 22,3 C 65 % 1006,4 hPa 0,0 mm 1,9 km/h (1 Bft) O-SO 105 0 min 0,000 mm 0,0 UV-I 21 W/m 15,2 C 3,2 km/h (1 Bft)
04.08.2016 20:18 22,0 C 22,1 C 63 % 1006,4 hPa 0,0 mm 2,3 km/h (1 Bft) O-SO 105 0 min 0,000 mm 0,0 UV-I 21 W/m 14,6 C 4,8 km/h (1 Bft)
04.08.2016 20:19 22,0 C 22,0 C 64 % 1006,3 hPa 0,0 mm 2,3 km/h (1 Bft) O-SO 104 0 min 0,000 mm 0,0 UV-I 21 W/m 14,9 C 3,2 km/h (1 Bft)
04.08.2016 20:20 22,0 C 22,0 C 62 % 1006,3 hPa 0,0 mm 2,7 km/h (1 Bft) O 96 0 min 0,000 mm 0,0 UV-I 19 W/m 14,4 C 4,8 km/h (1 Bft)
04.08.2016 20:21 22,0 C 22,0 C 63 % 1006,3 hPa 0,0 mm 1,3 km/h (1 Bft) SO 132 0 min 0,000 mm 0,0 UV-I 18 W/m 14,6 C 3,2 km/h (1 Bft)
04.08.2016 20:22 22,0 C 22,1 C 64 % 1006,3 hPa 0,0 mm 1,5 km/h (1 Bft) SO 132 0 min 0,000 mm 0,0 UV-I 18 W/m 14,9 C 3,2 km/h (1 Bft)
04.08.2016 20:23 22,0 C 22,1 C 62 % 1006,3 hPa 0,0 mm 2,7 km/h (1 Bft) O-SO 108 0 min 0,000 mm 0,0 UV-I 16 W/m 14,4 C 6,4 km/h (2 Bft)
04.08.2016 20:24 21,9 C 22,0 C 65 % 1006,2 hPa 0,0 mm 4,6 km/h (1 Bft) O 89 0 min 0,000 mm 0,0 UV-I 16 W/m 15,0 C 11,3 km/h (2 Bft)
04.08.2016 20:25 21,8 C 21,9 C 65 % 1006,2 hPa 0,0 mm 3,8 km/h (1 Bft) O-SO 115 0 min 0,000 mm 0,0 UV-I 16 W/m 14,9 C 4,8 km/h (1 Bft)
04.08.2016 20:26 21,7 C 21,8 C 62 % 1006,2 hPa 0,0 mm 4,5 km/h (1 Bft) O-SO 117 0 min 0,000 mm 0,0 UV-I 12 W/m 14,1 C 6,4 km/h (2 Bft)
04.08.2016 20:27 21,8 C 21,8 C 63 % 1006,2 hPa 0,0 mm 2,5 km/h (1 Bft) O-SO 109 0 min 0,000 mm 0,0 UV-I 11 W/m 14,4 C 4,8 km/h (1 Bft)
04.08.2016 20:28 21,8 C 21,8 C 62 % 1006,1 hPa 0,0 mm 1,3 km/h (1 Bft) O-SO 109 0 min 0,000 mm 0,0 UV-I 11 W/m 14,2 C 3,2 km/h (1 Bft)
04.08.2016 20:29 21,9 C 21,9 C 62 % 1006,1 hPa 0,0 mm 1,8 km/h (1 Bft) O-SO 110 0 min 0,000 mm 0,0 UV-I 9 W/m 14,3 C 3,2 km/h (1 Bft)
04.08.2016 20:30 21,9 C 21,9 C 63 % 1006,2 hPa 0,0 mm 3,2 km/h (1 Bft) S-SO 155 0 min 0,000 mm 0,0 UV-I 9 W/m 14,5 C 6,4 km/h (2 Bft)
04.08.2016 20:31 21,8 C 21,9 C 63 % 1006,2 hPa 0,0 mm 8,5 km/h (2 Bft) O-SO 111 0 min 0,000 mm 0,0 UV-I 9 W/m 14,4 C 14,5 km/h (3 Bft)
04.08.2016 20:32 21,8 C 21,8 C 63 % 1006,1 hPa 0,0 mm 3,8 km/h (1 Bft) SO 146 0 min 0,000 mm 0,0 UV-I 7 W/m 14,4 C 9,7 km/h (2 Bft)
04.08.2016 20:33 21,8 C 21,8 C 63 % 1006,1 hPa 0,0 mm 3,2 km/h (1 Bft) O-SO 113 0 min 0,000 mm 0,0 UV-I 7 W/m 14,4 C 4,8 km/h (1 Bft)
04.08.2016 20:34 21,7 C 21,8 C 64 % 1006,1 hPa 0,0 mm 1,9 km/h (1 Bft) O-SO 113 0 min 0,000 mm 0,0 UV-I 5 W/m 14,6 C 3,2 km/h (1 Bft)
04.08.2016 20:35 21,8 C 21,8 C 61 % 1006,2 hPa 0,0 mm 1,6 km/h (1 Bft) O-SO 115 0 min 0,000 mm 0,0 UV-I 5 W/m 13,9 C 4,8 km/h (1 Bft)
04.08.2016 20:36 21,8 C 21,8 C 63 % 1006,1 hPa 0,0 mm 2,2 km/h (1 Bft) O 95 0 min 0,000 mm 0,0 UV-I 5 W/m 14,4 C 4,8 km/h (1 Bft)
04.08.2016 20:37 21,8 C 21,8 C 63 % 1006,1 hPa 0,0 mm 3,2 km/h (1 Bft) O 97 0 min 0,000 mm 0,0 UV-I 5 W/m 14,4 C 4,8 km/h (1 Bft)
04.08.2016 20:38 21,7 C 21,8 C 62 % 1006,1 hPa 0,0 mm 2,6 km/h (1 Bft) O-SO 113 0 min 0,000 mm 0,0 UV-I 5 W/m 14,1 C 6,4 km/h (2 Bft)
04.08.2016 20:39 21,7 C 21,8 C 61 % 1006,1 hPa 0,0 mm 1,9 km/h (1 Bft) O-SO 113 0 min 0,000 mm 0,0 UV-I 0 W/m 13,8 C 3,2 km/h (1 Bft)
04.08.2016 20:40 21,7 C 21,7 C 61 % 1006,1 hPa 0,0 mm 2,3 km/h (1 Bft) O-SO 113 0 min 0,000 mm 0,0 UV-I 0 W/m 13,8 C 3,2 km/h (1 Bft)
04.08.2016 20:41 21,6 C 21,7 C 64 % 1006,0 hPa 0,0 mm 1,9 km/h (1 Bft) O-SO 113 0 min 0,000 mm 0,0 UV-I 0 W/m 14,5 C 3,2 km/h (1 Bft)
04.08.2016 20:42 21,3 C 21,6 C 64 % 1006,0 hPa 0,0 mm 2,0 km/h (1 Bft) O 100 0 min 0,000 mm 0,0 UV-I 0 W/m 14,2 C 3,2 km/h (1 Bft)
04.08.2016 20:43 21,2 C 21,3 C 65 % 1006,0 hPa 0,0 mm 5,6 km/h (1 Bft) S 180 0 min 0,000 mm 0,0 UV-I 0 W/m 14,4 C 9,7 km/h (2 Bft)
04.08.2016 20:44 21,2 C 21,2 C 64 % 1005,9 hPa 0,0 mm 4,0 km/h (1 Bft) O-SO 121 0 min 0,000 mm 0,0 UV-I 0 W/m 14,1 C 6,4 km/h (2 Bft)
04.08.2016 20:45 21,2 C 21,2 C 64 % 1005,9 hPa 0,0 mm 2,1 km/h (1 Bft) O-SO 121 0 min 0,000 mm 0,0 UV-I 0 W/m 14,1 C 6,4 km/h (2 Bft)
04.08.2016 20:46 21,2 C 21,2 C 63 % 1005,9 hPa 0,0 mm 5,6 km/h (1 Bft) O-SO 115 0 min 0,000 mm 0,0 UV-I 0 W/m 13,9 C 11,3 km/h (2 Bft)
04.08.2016 20:47 21,2 C 21,2 C 63 % 1005,9 hPa 0,0 mm 3,6 km/h (1 Bft) O 91 0 min 0,000 mm 0,0 UV-I 0 W/m 13,9 C 4,8 km/h (1 Bft)
04.08.2016 20:48 21,3 C 21,3 C 64 % 1005,8 hPa 0,0 mm 3,6 km/h (1 Bft) SO 132 0 min 0,000 mm 0,0 UV-I 0 W/m 14,2 C 6,4 km/h (2 Bft)
04.08.2016 20:49 21,3 C 21,3 C 62 % 1005,8 hPa 0,0 mm 4,4 km/h (1 Bft) O-NO 77 0 min 0,000 mm 0,0 UV-I 0 W/m 13,7 C 6,4 km/h (2 Bft)
04.08.2016 20:50 21,4 C 21,4 C 62 % 1005,9 hPa 0,0 mm 2,1 km/h (1 Bft) O-NO 77 0 min 0,000 mm 0,0 UV-I 0 W/m 13,8 C 4,8 km/h (1 Bft)
04.08.2016 20:51 21,6 C 21,6 C 62 % 1006,0 hPa 0,0 mm 1,9 km/h (1 Bft) O-NO 77 0 min 0,000 mm 0,0 UV-I 0 W/m 14,0 C 3,2 km/h (1 Bft)
04.08.2016 20:52 21,6 C 21,6 C 62 % 1006,0 hPa 0,0 mm 0,2 km/h (0 Bft) O-NO 77 0 min 0,000 mm 0,0 UV-I 0 W/m 14,0 C 1,6 km/h (1 Bft)
04.08.2016 20:53 21,6 C 21,6 C 62 % 1006,0 hPa 0,0 mm 0,4 km/h (0 Bft) O-NO 77 0 min 0,000 mm 0,0 UV-I 0 W/m 14,0 C 1,6 km/h (1 Bft)
04.08.2016 20:54 21,4 C 21,6 C 61 % 1006,0 hPa 0,0 mm 1,2 km/h (1 Bft) O-NO 77 0 min 0,000 mm 0,0 UV-I 0 W/m 13,6 C 3,2 km/h (1 Bft)
04.08.2016 20:55 21,5 C 21,5 C 61 % 1006,0 hPa 0,0 mm 0,8 km/h (0 Bft) O-NO 77 0 min 0,000 mm 0,0 UV-I 0 W/m 13,7 C 1,6 km/h (1 Bft)
04.08.2016 20:56 21,6 C 21,6 C 62 % 1006,0 hPa 0,0 mm 0,6 km/h (0 Bft) O-NO 77 0 min 0,000 mm 0,0 UV-I 0 W/m 14,0 C 1,6 km/h (1 Bft)
04.08.2016 20:57 21,4 C 21,6 C 62 % 1006,0 hPa 0,0 mm 1,3 km/h (1 Bft) O-NO 77 0 min 0,000 mm 0,0 UV-I 0 W/m 13,8 C 3,2 km/h (1 Bft)
04.08.2016 20:58 21,3 C 21,4 C 63 % 1006,0 hPa 0,0 mm 2,3 km/h (1 Bft) S-SO 161 0 min 0,000 mm 0,0 UV-I 0 W/m 14,0 C 3,2 km/h (1 Bft)
04.08.2016 20:59 21,3 C 21,3 C 62 % 1006,0 hPa 0,0 mm 1,7 km/h (1 Bft) SO 146 0 min 0,000 mm 0,0 UV-I 0 W/m 13,7 C 3,2 km/h (1 Bft)
04.08.2016 21:00 21,3 C 21,4 C 63 % 1006,0 hPa 0,0 mm 0,4 km/h (0 Bft) SO 146 0 min 0,000 mm 0,0 UV-I 0 W/m 14,0 C 1,6 km/h (1 Bft)
04.08.2016 21:01 21,3 C 21,3 C 64 % 1006,0 hPa 0,0 mm 0,9 km/h (0 Bft) SO 146 0 min 0,025 mm 0,0 UV-I 0 W/m 14,2 C 3,2 km/h (1 Bft)
04.08.2016 21:02 21,2 C 21,3 C 63 % 1006,0 hPa 0,0 mm 0,7 km/h (0 Bft) SO 146 0 min 0,001 mm 0,0 UV-I 0 W/m 13,9 C 1,6 km/h (1 Bft)
04.08.2016 21:03 21,1 C 21,2 C 64 % 1006,0 hPa 0,0 mm 1,1 km/h (1 Bft) SO 146 0 min 0,000 mm 0,0 UV-I 0 W/m 14,0 C 1,6 km/h (1 Bft)
04.08.2016 21:04 20,9 C 21,1 C 65 % 1005,9 hPa 0,0 mm 0,6 km/h (0 Bft) SO 146 0 min 0,000 mm 0,0 UV-I 0 W/m 14,1 C 1,6 km/h (1 Bft)
04.08.2016 21:05 20,8 C 20,9 C 65 % 1006,0 hPa 0,0 mm 0,6 km/h (0 Bft) SO 146 0 min 0,000 mm 0,0 UV-I 0 W/m 14,0 C 1,6 km/h (1 Bft)
04.08.2016 21:06 20,7 C 20,8 C 65 % 1006,0 hPa 0,0 mm 0,4 km/h (0 Bft) SO 146 0 min 0,000 mm 0,0 UV-I 0 W/m 13,9 C 1,6 km/h (1 Bft)
04.08.2016 21:07 20,7 C 20,7 C 66 % 1005,9 hPa 0,0 mm 0,0 km/h (0 Bft) SO 146 0 min 0,000 mm 0,0 UV-I 0 W/m 14,1 C 0,0 km/h (0 Bft)
04.08.2016 21:08 20,6 C 20,7 C 66 % 1006,0 hPa 0,0 mm 0,3 km/h (0 Bft) SO 146 0 min 0,000 mm 0,0 UV-I 0 W/m 14,0 C 1,6 km/h (1 Bft)
04.08.2016 21:09 20,4 C 20,6 C 67 % 1006,0 hPa 0,0 mm 1,2 km/h (1 Bft) SO 146 0 min 0,000 mm 0,0 UV-I 0 W/m 14,1 C 1,6 km/h (1 Bft)
04.08.2016 21:10 20,4 C 20,4 C 67 % 1006,0 hPa 0,0 mm 0,3 km/h (0 Bft) SO 146 0 min 0,000 mm 0,0 UV-I 0 W/m 14,1 C 1,6 km/h (1 Bft)
04.08.2016 21:11 20,3 C 20,4 C 67 % 1006,0 hPa 0,0 mm 1,7 km/h (1 Bft) SO 146 0 min 0,000 mm 0,0 UV-I 0 W/m 14,0 C 3,2 km/h (1 Bft)
04.08.2016 21:12 20,2 C 20,3 C 68 % 1006,0 hPa 0,0 mm 1,3 km/h (1 Bft) SO 146 0 min 0,000 mm 0,0 UV-I 0 W/m 14,1 C 3,2 km/h (1 Bft)
04.08.2016 21:13 20,1 C 20,2 C 68 % 1006,0 hPa 0,0 mm 2,6 km/h (1 Bft) S-SO 148 0 min 0,000 mm 0,0 UV-I 0 W/m 14,0 C 4,8 km/h (1 Bft)
04.08.2016 21:14 20,1 C 20,1 C 69 % 1006,1 hPa 0,0 mm 1,1 km/h (1 Bft) S-SO 148 0 min 0,000 mm 0,0 UV-I 0 W/m 14,2 C 3,2 km/h (1 Bft)
04.08.2016 21:15 19,9 C 20,1 C 69 % 1006,2 hPa 0,0 mm 0,0 km/h (0 Bft) S-SO 148 0 min 0,000 mm 0,0 UV-I 0 W/m 14,0 C 0,0 km/h (0 Bft)
04.08.2016 21:16 19,8 C 19,9 C 70 % 1006,2 hPa 0,0 mm 1,2 km/h (1 Bft) S-SO 148 0 min 0,000 mm 0,0 UV-I 0 W/m 14,2 C 1,6 km/h (1 Bft)
04.08.2016 21:17 19,7 C 19,8 C 70 % 1006,2 hPa 0,0 mm 0,9 km/h (0 Bft) S-SO 148 0 min 0,000 mm 0,0 UV-I 0 W/m 14,1 C 1,6 km/h (1 Bft)
04.08.2016 21:18 19,6 C 19,7 C 70 % 1006,2 hPa 0,0 mm 1,1 km/h (1 Bft) S-SO 148 0 min 0,000 mm 0,0 UV-I 0 W/m 14,0 C 1,6 km/h (1 Bft)
04.08.2016 21:19 19,5 C 19,6 C 71 % 1006,3 hPa 0,0 mm 0,8 km/h (0 Bft) S-SO 148 0 min 0,000 mm 0,0 UV-I 0 W/m 14,1 C 1,6 km/h (1 Bft)
04.08.2016 21:20 19,4 C 19,5 C 71 % 1006,3 hPa 0,0 mm 1,4 km/h (1 Bft) S-SO 148 0 min 0,000 mm 0,0 UV-I 0 W/m 14,0 C 3,2 km/h (1 Bft)
04.08.2016 21:21 19,4 C 19,4 C 71 % 1006,2 hPa 0,0 mm 2,3 km/h (1 Bft) S-SO 148 0 min 0,000 mm 0,0 UV-I 0 W/m 14,0 C 4,8 km/h (1 Bft)
04.08.2016 21:22 19,3 C 19,4 C 71 % 1006,2 hPa 0,0 mm 0,8 km/h (0 Bft) S-SO 148 0 min 0,000 mm 0,0 UV-I 0 W/m 13,9 C 1,6 km/h (1 Bft)
04.08.2016 21:23 19,2 C 19,3 C 73 % 1006,2 hPa 0,0 mm 0,1 km/h (0 Bft) S-SO 148 0 min 0,000 mm 0,0 UV-I 0 W/m 14,2 C 1,6 km/h (1 Bft)
04.08.2016 21:24 19,1 C 19,2 C 74 % 1006,2 hPa 0,0 mm 0,0 km/h (0 Bft) S-SO 148 0 min 0,000 mm 0,0 UV-I 0 W/m 14,4 C 0,0 km/h (0 Bft)
04.08.2016 21:25 18,9 C 19,1 C 75 % 1006,2 hPa 0,0 mm 0,0 km/h (0 Bft) S-SO 148 0 min 0,000 mm 0,0 UV-I 0 W/m 14,4 C 0,0 km/h (0 Bft)
04.08.2016 21:26 18,8 C 18,9 C 75 % 1006,3 hPa 0,0 mm 0,0 km/h (0 Bft) S-SO 148 0 min 0,000 mm 0,0 UV-I 0 W/m 14,3 C 0,0 km/h (0 Bft)
04.08.2016 21:27 18,8 C 18,8 C 74 % 1006,2 hPa 0,0 mm 0,0 km/h (0 Bft) S-SO 148 0 min 0,000 mm 0,0 UV-I 0 W/m 14,1 C 0,0 km/h (0 Bft)
04.08.2016 21:28 18,9 C 18,9 C 74 % 1006,2 hPa 0,0 mm 0,3 km/h (0 Bft) S-SO 148 0 min 0,000 mm 0,0 UV-I 0 W/m 14,2 C 1,6 km/h (1 Bft)
04.08.2016 21:29 18,9 C 18,9 C 74 % 1006,3 hPa 0,0 mm 1,3 km/h (1 Bft) S-SO 148 0 min 0,000 mm 0,0 UV-I 0 W/m 14,2 C 3,2 km/h (1 Bft)
04.08.2016 21:30 18,9 C 18,9 C 75 % 1006,3 hPa 0,0 mm 3,3 km/h (1 Bft) S-SO 155 0 min 0,000 mm 0,0 UV-I 0 W/m 14,4 C 4,8 km/h (1 Bft)
04.08.2016 21:31 18,9 C 18,9 C 75 % 1006,3 hPa 0,0 mm 3,6 km/h (1 Bft) S-SO 155 0 min 0,000 mm 0,0 UV-I 0 W/m 14,4 C 4,8 km/h (1 Bft)
04.08.2016 21:32 18,9 C 18,9 C 76 % 1006,3 hPa 0,0 mm 3,8 km/h (1 Bft) S-SO 155 0 min 0,000 mm 0,0 UV-I 0 W/m 14,6 C 4,8 km/h (1 Bft)
04.08.2016 21:33 18,8 C 18,9 C 76 % 1006,3 hPa 0,0 mm 2,7 km/h (1 Bft) S-SO 155 0 min 0,000 mm 0,0 UV-I 0 W/m 14,5 C 4,8 km/h (1 Bft)
04.08.2016 21:34 18,9 C 18,9 C 75 % 1006,3 hPa 0,0 mm 1,3 km/h (1 Bft) S-SO 155 0 min 0,000 mm 0,0 UV-I 0 W/m 14,4 C 3,2 km/h (1 Bft)
04.08.2016 21:35 18,8 C 18,9 C 76 % 1006,4 hPa 0,0 mm 0,0 km/h (0 Bft) S-SO 155 0 min 0,000 mm 0,0 UV-I 0 W/m 14,5 C 0,0 km/h (0 Bft)
04.08.2016 21:36 18,8 C 18,8 C 77 % 1006,4 hPa 0,0 mm 0,0 km/h (0 Bft) S-SO 155 0 min 0,000 mm 0,0 UV-I 0 W/m 14,7 C 0,0 km/h (0 Bft)
04.08.2016 21:37 18,8 C 18,8 C 77 % 1006,4 hPa 0,0 mm 0,0 km/h (0 Bft) S-SO 155 0 min 0,000 mm 0,0 UV-I 0 W/m 14,7 C 0,0 km/h (0 Bft)
04.08.2016 21:38 18,8 C 18,8 C 76 % 1006,4 hPa 0,0 mm 0,0 km/h (0 Bft) S-SO 155 0 min 0,000 mm 0,0 UV-I 0 W/m 14,5 C 0,0 km/h (0 Bft)
04.08.2016 21:39 18,8 C 18,8 C 77 % 1006,5 hPa 0,0 mm 0,0 km/h (0 Bft) S-SO 155 0 min 0,000 mm 0,0 UV-I 0 W/m 14,7 C 0,0 km/h (0 Bft)
04.08.2016 21:40 18,8 C 18,8 C 76 % 1006,5 hPa 0,0 mm 0,2 km/h (0 Bft) S-SO 155 0 min 0,000 mm 0,0 UV-I 0 W/m 14,5 C 1,6 km/h (1 Bft)
04.08.2016 21:41 18,8 C 18,8 C 75 % 1006,6 hPa 0,0 mm 0,5 km/h (0 Bft) S-SO 155 0 min 0,000 mm 0,0 UV-I 0 W/m 14,3 C 1,6 km/h (1 Bft)
04.08.2016 21:42 18,8 C 18,8 C 74 % 1006,6 hPa 0,0 mm 0,7 km/h (0 Bft) S-SO 155 0 min 0,000 mm 0,0 UV-I 0 W/m 14,1 C 1,6 km/h (1 Bft)
04.08.2016 21:43 18,9 C 18,9 C 74 % 1006,6 hPa 0,0 mm 0,9 km/h (0 Bft) S-SO 155 0 min 0,000 mm 0,0 UV-I 0 W/m 14,2 C 3,2 km/h (1 Bft)
04.08.2016 21:44 19,1 C 19,1 C 74 % 1006,6 hPa 0,0 mm 1,7 km/h (1 Bft) S-SO 155 0 min 0,000 mm 0,0 UV-I 0 W/m 14,4 C 3,2 km/h (1 Bft)
04.08.2016 21:45 19,2 C 19,2 C 73 % 1006,7 hPa 0,0 mm 1,5 km/h (1 Bft) S-SO 155 0 min 0,000 mm 0,0 UV-I 0 W/m 14,2 C 3,2 km/h (1 Bft)
04.08.2016 21:46 19,3 C 19,3 C 73 % 1006,7 hPa 0,0 mm 0,4 km/h (0 Bft) S-SO 155 0 min 0,000 mm 0,0 UV-I 0 W/m 14,3 C 1,6 km/h (1 Bft)
04.08.2016 21:47 19,5 C 19,5 C 72 % 1006,7 hPa 0,0 mm 0,5 km/h (0 Bft) S-SO 155 0 min 0,000 mm 0,0 UV-I 0 W/m 14,3 C 1,6 km/h (1 Bft)
04.08.2016 21:48 19,6 C 19,6 C 72 % 1006,9 hPa 0,0 mm 0,0 km/h (0 Bft) S-SO 155 0 min 0,000 mm 0,0 UV-I 0 W/m 14,4 C 0,0 km/h (0 Bft)
04.08.2016 21:49 19,7 C 19,7 C 73 % 1006,9 hPa 0,0 mm 0,0 km/h (0 Bft) S-SO 155 0 min 0,000 mm 0,0 UV-I 0 W/m 14,7 C 0,0 km/h (0 Bft)
04.08.2016 21:50 19,7 C 19,7 C 73 % 1006,9 hPa 0,0 mm 0,0 km/h (0 Bft) S-SO 155 0 min 0,000 mm 0,0 UV-I 0 W/m 14,7 C 0,0 km/h (0 Bft)
04.08.2016 21:51 19,6 C 19,7 C 76 % 1006,9 hPa 0,0 mm 0,0 km/h (0 Bft) S-SO 155 0 min 0,000 mm 0,0 UV-I 0 W/m 15,2 C 0,0 km/h (0 Bft)
04.08.2016 21:52 19,4 C 19,6 C 75 % 1007,0 hPa 0,0 mm 0,1 km/h (0 Bft) S-SO 155 0 min 0,000 mm 0,0 UV-I 0 W/m 14,8 C 1,6 km/h (1 Bft)
04.08.2016 21:53 19,4 C 19,4 C 75 % 1006,9 hPa 0,0 mm 0,3 km/h (0 Bft) S-SO 155 0 min 0,000 mm 0,0 UV-I 0 W/m 14,8 C 1,6 km/h (1 Bft)
04.08.2016 21:54 19,4 C 19,4 C 75 % 1007,0 hPa 0,0 mm 0,8 km/h (0 Bft) S-SO 155 0 min 0,000 mm 0,0 UV-I 0 W/m 14,8 C 1,6 km/h (1 Bft)
04.08.2016 21:55 19,4 C 19,4 C 75 % 1007,0 hPa 0,0 mm 1,3 km/h (1 Bft) S-SO 155 0 min 0,000 mm 0,0 UV-I 0 W/m 14,8 C 1,6 km/h (1 Bft)
04.08.2016 21:56 19,4 C 19,4 C 74 % 1007,2 hPa 0,0 mm 3,4 km/h (1 Bft) W-SW 247 0 min 0,000 mm 0,0 UV-I 0 W/m 14,6 C 4,8 km/h (1 Bft)
04.08.2016 21:57 19,4 C 19,4 C 74 % 1007,5 hPa 0,0 mm 3,4 km/h (1 Bft) W 272 0 min 0,000 mm 0,0 UV-I 0 W/m 14,6 C 4,8 km/h (1 Bft)
04.08.2016 21:58 19,4 C 19,4 C 78 % 1007,5 hPa 0,0 mm 3,8 km/h (1 Bft) W 281 0 min 0,000 mm 0,0 UV-I 0 W/m 15,5 C 4,8 km/h (1 Bft)
04.08.2016 21:59 19,3 C 19,4 C 79 % 1007,7 hPa 0,0 mm 6,0 km/h (2 Bft) W-SW 257 0 min 0,000 mm 0,0 UV-I 0 W/m 15,6 C 12,9 km/h (3 Bft)
04.08.2016 22:00 19,2 C 19,3 C 79 % 1007,9 hPa 0,0 mm 7,3 km/h (2 Bft) W 276 0 min 0,000 mm 0,0 UV-I 0 W/m 15,5 C 12,9 km/h (3 Bft)
04.08.2016 22:01 19,1 C 19,2 C 79 % 1008,1 hPa 0,0 mm 10,1 km/h (2 Bft) W 265 0 min 0,025 mm 0,0 UV-I 0 W/m 15,4 C 16,1 km/h (3 Bft)
04.08.2016 22:02 18,9 C 19,1 C 79 % 1008,2 hPa 0,0 mm 10,8 km/h (2 Bft) W 277 0 min 0,000 mm 0,0 UV-I 0 W/m 15,2 C 14,5 km/h (3 Bft)
04.08.2016 22:03 19,0 C 19,1 C 79 % 1008,3 hPa 0,0 mm 6,7 km/h (2 Bft) NW 312 0 min 0,000 mm 0,0 UV-I 0 W/m 15,3 C 9,7 km/h (2 Bft)
04.08.2016 22:04 19,1 C 19,1 C 79 % 1008,3 hPa 0,0 mm 11,8 km/h (2 Bft) W 273 0 min 0,000 mm 0,0 UV-I 0 W/m 15,4 C 19,3 km/h (3 Bft)
04.08.2016 22:05 19,1 C 19,1 C 78 % 1008,5 hPa 0,0 mm 14,9 km/h (3 Bft) NW 313 0 min 0,000 mm 0,0 UV-I 0 W/m 15,2 C 27,4 km/h (4 Bft)
04.08.2016 22:06 19,2 C 19,2 C 77 % 1008,6 hPa 0,0 mm 11,3 km/h (2 Bft) W-NW 302 0 min 0,000 mm 0,0 UV-I 0 W/m 15,1 C 17,7 km/h (3 Bft)
04.08.2016 22:07 19,2 C 19,2 C 77 % 1008,5 hPa 0,0 mm 15,4 km/h (3 Bft) W-NW 288 0 min 0,000 mm 0,0 UV-I 0 W/m 15,1 C 25,7 km/h (4 Bft)
04.08.2016 22:08 19,2 C 19,2 C 76 % 1008,5 hPa 0,0 mm 10,6 km/h (2 Bft) W-NW 301 0 min 0,000 mm 0,0 UV-I 0 W/m 14,9 C 16,1 km/h (3 Bft)
04.08.2016 22:09 19,2 C 19,3 C 76 % 1008,5 hPa 0,2 mm 13,4 km/h (3 Bft) W-NW 301 0 min 0,000 mm 0,0 UV-I 0 W/m 14,9 C 20,9 km/h (4 Bft)
04.08.2016 22:10 19,2 C 19,2 C 78 % 1008,5 hPa 0,2 mm 12,7 km/h (3 Bft) W-SW 256 0 min 0,000 mm 0,0 UV-I 0 W/m 15,3 C 17,7 km/h (3 Bft)
04.08.2016 22:11 19,1 C 19,2 C 79 % 1008,7 hPa 0,2 mm 11,3 km/h (2 Bft) W-SW 250 0 min 0,000 mm 0,0 UV-I 0 W/m 15,4 C 16,1 km/h (3 Bft)
04.08.2016 22:12 19,1 C 19,1 C 79 % 1008,9 hPa 0,2 mm 16,4 km/h (3 Bft) SW 236 0 min 0,000 mm 0,0 UV-I 0 W/m 15,4 C 24,1 km/h (4 Bft)
04.08.2016 22:13 18,9 C 19,1 C 79 % 1009,1 hPa 0,0 mm 16,2 km/h (3 Bft) W 271 0 min 0,000 mm 0,0 UV-I 0 W/m 15,2 C 30,6 km/h (5 Bft)
04.08.2016 22:14 18,8 C 18,9 C 78 % 1009,2 hPa 0,0 mm 18,8 km/h (3 Bft) NW 316 0 min 0,000 mm 0,0 UV-I 0 W/m 14,9 C 25,7 km/h (4 Bft)
04.08.2016 22:15 18,6 C 18,8 C 78 % 1009,2 hPa 0,0 mm 13,5 km/h (3 Bft) W-NW 296 0 min 0,000 mm 0,0 UV-I 0 W/m 14,7 C 25,7 km/h (4 Bft)
04.08.2016 22:16 18,5 C 18,6 C 79 % 1009,3 hPa 0,2 mm 13,0 km/h (3 Bft) NW 307 0 min 0,000 mm 0,0 UV-I 0 W/m 14,8 C 25,7 km/h (4 Bft)
04.08.2016 22:17 18,4 C 18,5 C 78 % 1009,3 hPa 0,0 mm 12,9 km/h (3 Bft) W 277 0 min 0,000 mm 0,0 UV-I 0 W/m 14,5 C 20,9 km/h (4 Bft)
04.08.2016 22:18 18,3 C 18,4 C 79 % 1009,4 hPa 0,0 mm 12,2 km/h (2 Bft) SW 236 0 min 0,000 mm 0,0 UV-I 0 W/m 14,6 C 16,1 km/h (3 Bft)
04.08.2016 22:19 18,2 C 18,3 C 79 % 1009,6 hPa 0,0 mm 15,9 km/h (3 Bft) W 268 0 min 0,000 mm 0,0 UV-I 0 W/m 14,5 C 20,9 km/h (4 Bft)
04.08.2016 22:20 18,1 C 18,2 C 80 % 1009,7 hPa 0,0 mm 16,4 km/h (3 Bft) SW 235 0 min 0,000 mm 0,0 UV-I 0 W/m 14,6 C 22,5 km/h (4 Bft)
04.08.2016 22:21 17,9 C 18,1 C 80 % 1009,8 hPa 0,0 mm 18,9 km/h (3 Bft) W-NW 284 0 min 0,000 mm 0,0 UV-I 0 W/m 14,4 C 25,7 km/h (4 Bft)
04.08.2016 22:22 17,8 C 17,9 C 81 % 1009,8 hPa 0,0 mm 18,5 km/h (3 Bft) W-SW 249 0 min 0,000 mm 0,0 UV-I 0 W/m 14,5 C 29,0 km/h (5 Bft)
04.08.2016 22:23 17,7 C 17,8 C 80 % 1009,8 hPa 0,0 mm 17,2 km/h (3 Bft) W-SW 257 0 min 0,000 mm 0,0 UV-I 0 W/m 14,2 C 22,5 km/h (4 Bft)
04.08.2016 22:24 17,7 C 17,7 C 81 % 1009,8 hPa 0,0 mm 13,5 km/h (3 Bft) W-SW 256 0 min 0,000 mm 0,0 UV-I 0 W/m 14,4 C 22,5 km/h (4 Bft)
04.08.2016 22:25 17,6 C 17,7 C 81 % 1009,8 hPa 0,0 mm 11,1 km/h (2 Bft) W-SW 242 0 min 0,000 mm 0,0 UV-I 0 W/m 14,3 C 19,3 km/h (3 Bft)
04.08.2016 22:26 17,5 C 17,6 C 80 % 1009,9 hPa 0,0 mm 16,5 km/h (3 Bft) W 265 0 min 0,000 mm 0,0 UV-I 0 W/m 14,0 C 22,5 km/h (4 Bft)
04.08.2016 22:27 17,4 C 17,5 C 81 % 1009,9 hPa 0,0 mm 17,9 km/h (3 Bft) W 281 0 min 0,000 mm 0,0 UV-I 0 W/m 14,1 C 22,5 km/h (4 Bft)
04.08.2016 22:28 17,4 C 17,4 C 81 % 1009,9 hPa 0,0 mm 15,1 km/h (3 Bft) S-SW 211 0 min 0,000 mm 0,0 UV-I 0 W/m 14,1 C 24,1 km/h (4 Bft)
04.08.2016 22:29 17,3 C 17,4 C 80 % 1009,8 hPa 0,0 mm 17,6 km/h (3 Bft) W-NW 290 0 min 0,000 mm 0,0 UV-I 0 W/m 13,8 C 30,6 km/h (5 Bft)
04.08.2016 22:30 17,3 C 17,3 C 81 % 1009,9 hPa 0,0 mm 15,4 km/h (3 Bft) SW 232 0 min 0,000 mm 0,0 UV-I 0 W/m 14,0 C 20,9 km/h (4 Bft)
04.08.2016 22:31 17,2 C 17,3 C 81 % 1009,9 hPa 0,0 mm 14,5 km/h (3 Bft) W 264 0 min 0,000 mm 0,0 UV-I 0 W/m 13,9 C 27,4 km/h (4 Bft)
04.08.2016 22:32 17,2 C 17,2 C 81 % 1009,9 hPa 0,0 mm 14,9 km/h (3 Bft) W 275 0 min 0,000 mm 0,0 UV-I 0 W/m 13,9 C 24,1 km/h (4 Bft)
04.08.2016 22:33 17,2 C 17,2 C 82 % 1010,0 hPa 0,0 mm 10,7 km/h (2 Bft) W-SW 250 0 min 0,000 mm 0,0 UV-I 0 W/m 14,1 C 16,1 km/h (3 Bft)
04.08.2016 22:34 17,1 C 17,2 C 82 % 1010,0 hPa 0,0 mm 11,7 km/h (2 Bft) SW 230 0 min 0,000 mm 0,0 UV-I 0 W/m 14,0 C 19,3 km/h (3 Bft)
04.08.2016 22:35 17,1 C 17,1 C 82 % 1010,0 hPa 0,0 mm 9,9 km/h (2 Bft) W-NW 302 0 min 0,000 mm 0,0 UV-I 0 W/m 14,0 C 14,5 km/h (3 Bft)
04.08.2016 22:36 17,0 C 17,1 C 81 % 1010,0 hPa 0,0 mm 12,8 km/h (3 Bft) W 281 0 min 0,000 mm 0,0 UV-I 0 W/m 13,7 C 19,3 km/h (3 Bft)
04.08.2016 22:37 17,0 C 17,1 C 81 % 1010,1 hPa 0,0 mm 9,3 km/h (2 Bft) W 267 0 min 0,000 mm 0,0 UV-I 0 W/m 13,7 C 14,5 km/h (3 Bft)
04.08.2016 22:38 16,9 C 17,0 C 82 % 1010,1 hPa 0,0 mm 8,3 km/h (2 Bft) W 277 0 min 0,000 mm 0,0 UV-I 0 W/m 13,8 C 17,7 km/h (3 Bft)
04.08.2016 22:39 16,9 C 17,0 C 82 % 1010,2 hPa 0,0 mm 13,9 km/h (3 Bft) W 269 0 min 0,000 mm 0,0 UV-I 0 W/m 13,8 C 16,1 km/h (3 Bft)
04.08.2016 22:40 16,9 C 17,0 C 82 % 1010,3 hPa 0,0 mm 11,5 km/h (2 Bft) W-SW 251 0 min 0,000 mm 0,0 UV-I 0 W/m 13,8 C 17,7 km/h (3 Bft)
04.08.2016 22:41 16,9 C 16,9 C 82 % 1010,3 hPa 0,0 mm 9,3 km/h (2 Bft) W-SW 251 0 min 0,000 mm 0,0 UV-I 0 W/m 13,8 C 14,5 km/h (3 Bft)
04.08.2016 22:42 16,9 C 16,9 C 82 % 1010,4 hPa 0,0 mm 11,0 km/h (2 Bft) S-SW 212 0 min 0,000 mm 0,0 UV-I 0 W/m 13,8 C 16,1 km/h (3 Bft)
04.08.2016 22:43 16,9 C 16,9 C 82 % 1010,5 hPa 0,0 mm 12,5 km/h (3 Bft) W 278 0 min 0,000 mm 0,0 UV-I 0 W/m 13,8 C 20,9 km/h (4 Bft)
04.08.2016 22:44 16,9 C 16,9 C 82 % 1010,6 hPa 0,0 mm 13,6 km/h (3 Bft) W 265 0 min 0,000 mm 0,0 UV-I 0 W/m 13,8 C 17,7 km/h (3 Bft)
04.08.2016 22:45 16,8 C 16,9 C 82 % 1010,5 hPa 0,0 mm 15,3 km/h (3 Bft) W-NW 290 0 min 0,000 mm 0,0 UV-I 0 W/m 13,7 C 24,1 km/h (4 Bft)
04.08.2016 22:46 16,8 C 16,8 C 82 % 1010,5 hPa 0,0 mm 19,7 km/h (3 Bft) W-SW 252 0 min 0,000 mm 0,0 UV-I 0 W/m 13,7 C 27,4 km/h (4 Bft)
04.08.2016 22:47 16,8 C 16,8 C 82 % 1010,4 hPa 0,0 mm 18,5 km/h (3 Bft) W 262 0 min 0,000 mm 0,0 UV-I 0 W/m 13,7 C 27,4 km/h (4 Bft)
04.08.2016 22:48 16,8 C 16,8 C 81 % 1010,5 hPa 0,0 mm 16,1 km/h (3 Bft) W 273 0 min 0,000 mm 0,0 UV-I 0 W/m 13,5 C 27,4 km/h (4 Bft)
04.08.2016 22:49 16,8 C 16,8 C 82 % 1010,5 hPa 0,0 mm 11,6 km/h (2 Bft) W-NW 290 0 min 0,000 mm 0,0 UV-I 0 W/m 13,7 C 17,7 km/h (3 Bft)
04.08.2016 22:50 16,7 C 16,8 C 82 % 1010,5 hPa 0,0 mm 12,0 km/h (2 Bft) W-SW 237 0 min 0,000 mm 0,0 UV-I 0 W/m 13,6 C 19,3 km/h (3 Bft)
04.08.2016 22:51 16,7 C 16,7 C 82 % 1010,6 hPa 0,0 mm 15,0 km/h (3 Bft) W-NW 293 0 min 0,000 mm 0,0 UV-I 0 W/m 13,6 C 25,7 km/h (4 Bft)
04.08.2016 22:52 16,6 C 16,7 C 83 % 1010,5 hPa 0,0 mm 12,0 km/h (2 Bft) W 270 0 min 0,000 mm 0,0 UV-I 0 W/m 13,7 C 17,7 km/h (3 Bft)
04.08.2016 22:53 16,6 C 16,6 C 83 % 1010,5 hPa 0,0 mm 12,6 km/h (3 Bft) SW 229 0 min 0,000 mm 0,0 UV-I 0 W/m 13,7 C 16,1 km/h (3 Bft)
04.08.2016 22:54 16,5 C 16,6 C 83 % 1010,6 hPa 0,0 mm 13,3 km/h (3 Bft) W-NW 290 0 min 0,000 mm 0,0 UV-I 0 W/m 13,6 C 16,1 km/h (3 Bft)
04.08.2016 22:55 16,5 C 16,5 C 83 % 1010,5 hPa 0,0 mm 11,4 km/h (2 Bft) W-NW 295 0 min 0,000 mm 0,0 UV-I 0 W/m 13,6 C 19,3 km/h (3 Bft)
04.08.2016 22:56 16,4 C 16,5 C 83 % 1010,6 hPa 0,0 mm 19,8 km/h (3 Bft) W-SW 239 0 min 0,000 mm 0,0 UV-I 0 W/m 13,5 C 29,0 km/h (5 Bft)
04.08.2016 22:57 16,4 C 16,4 C 84 % 1010,6 hPa 0,0 mm 17,0 km/h (3 Bft) W 269 0 min 0,000 mm 0,0 UV-I 0 W/m 13,7 C 27,4 km/h (4 Bft)
04.08.2016 22:58 16,3 C 16,4 C 84 % 1010,6 hPa 0,0 mm 13,1 km/h (3 Bft) W 261 0 min 0,000 mm 0,0 UV-I 0 W/m 13,6 C 22,5 km/h (4 Bft)
04.08.2016 22:59 16,2 C 16,3 C 84 % 1010,7 hPa 0,0 mm 18,2 km/h (3 Bft) W 267 0 min 0,000 mm 0,0 UV-I 0 W/m 13,5 C 27,4 km/h (4 Bft)
04.08.2016 23:00 16,1 C 16,2 C 85 % 1010,8 hPa 0,0 mm 10,3 km/h (2 Bft) W-NW 290 0 min 0,051 mm 0,0 UV-I 0 W/m 13,6 C 14,5 km/h (3 Bft)
04.08.2016 23:01 16,1 C 16,1 C 85 % 1010,9 hPa 0,0 mm 14,4 km/h (3 Bft) W-NW 283 0 min 0,000 mm 0,0 UV-I 0 W/m 13,6 C 22,5 km/h (4 Bft)
04.08.2016 23:02 15,9 C 16,1 C 85 % 1011,0 hPa 0,0 mm 12,5 km/h (3 Bft) W-SW 248 0 min 0,000 mm 0,0 UV-I 0 W/m 13,4 C 20,9 km/h (4 Bft)
04.08.2016 23:03 15,9 C 15,9 C 86 % 1011,0 hPa 0,0 mm 10,0 km/h (2 Bft) W 276 0 min 0,000 mm 0,0 UV-I 0 W/m 13,6 C 14,5 km/h (3 Bft)
04.08.2016 23:04 15,8 C 15,9 C 86 % 1011,1 hPa 0,0 mm 6,0 km/h (2 Bft) W-NW 284 0 min 0,000 mm 0,0 UV-I 0 W/m 13,5 C 14,5 km/h (3 Bft)
04.08.2016 23:05 15,7 C 15,8 C 86 % 1011,1 hPa 0,0 mm 8,6 km/h (2 Bft) W 268 0 min 0,000 mm 0,0 UV-I 0 W/m 13,4 C 14,5 km/h (3 Bft)
04.08.2016 23:06 15,7 C 15,7 C 87 % 1011,1 hPa 0,0 mm 5,8 km/h (2 Bft) W-NW 286 0 min 0,000 mm 0,0 UV-I 0 W/m 13,5 C 11,3 km/h (2 Bft)
04.08.2016 23:07 15,6 C 15,7 C 87 % 1011,2 hPa 0,0 mm 11,1 km/h (2 Bft) NW 312 0 min 0,000 mm 0,0 UV-I 0 W/m 13,4 C 16,1 km/h (3 Bft)
04.08.2016 23:08 15,6 C 15,6 C 86 % 1011,2 hPa 0,0 mm 9,0 km/h (2 Bft) W-SW 251 0 min 0,000 mm 0,0 UV-I 0 W/m 13,3 C 12,9 km/h (3 Bft)
04.08.2016 23:09 15,5 C 15,6 C 87 % 1011,1 hPa 0,0 mm 5,0 km/h (1 Bft) W-NW 293 0 min 0,000 mm 0,0 UV-I 0 W/m 13,3 C 9,7 km/h (2 Bft)
04.08.2016 23:10 15,4 C 15,5 C 87 % 1011,2 hPa 0,0 mm 9,9 km/h (2 Bft) W-NW 293 0 min 0,000 mm 0,0 UV-I 0 W/m 13,2 C 14,5 km/h (3 Bft)
04.08.2016 23:11 15,4 C 15,4 C 87 % 1011,2 hPa 0,0 mm 9,4 km/h (2 Bft) W 263 0 min 0,000 mm 0,0 UV-I 0 W/m 13,2 C 14,5 km/h (3 Bft)
04.08.2016 23:12 15,4 C 15,4 C 88 % 1011,3 hPa 0,0 mm 5,9 km/h (2 Bft) W-NW 302 0 min 0,000 mm 0,0 UV-I 0 W/m 13,4 C 11,3 km/h (2 Bft)
04.08.2016 23:13 15,3 C 15,4 C 88 % 1011,3 hPa 0,0 mm 6,7 km/h (2 Bft) W 279 0 min 0,000 mm 0,0 UV-I 0 W/m 13,3 C 11,3 km/h (2 Bft)
04.08.2016 23:14 15,3 C 15,4 C 88 % 1011,4 hPa 0,0 mm 7,4 km/h (2 Bft) W 260 0 min 0,000 mm 0,0 UV-I 0 W/m 13,3 C 12,9 km/h (3 Bft)
04.08.2016 23:15 15,3 C 15,3 C 89 % 1011,4 hPa 0,0 mm 10,5 km/h (2 Bft) W 274 0 min 0,000 mm 0,0 UV-I 0 W/m 13,5 C 14,5 km/h (3 Bft)
04.08.2016 23:16 15,3 C 15,3 C 89 % 1011,5 hPa 0,0 mm 10,1 km/h (2 Bft) W-NW 298 0 min 0,000 mm 0,0 UV-I 0 W/m 13,5 C 12,9 km/h (3 Bft)
04.08.2016 23:17 15,3 C 15,3 C 89 % 1011,6 hPa 0,0 mm 14,2 km/h (3 Bft) W 273 0 min 0,000 mm 0,0 UV-I 0 W/m 13,5 C 20,9 km/h (4 Bft)
04.08.2016 23:18 15,3 C 15,3 C 89 % 1011,6 hPa 0,0 mm 10,6 km/h (2 Bft) W-NW 285 0 min 0,000 mm 0,0 UV-I 0 W/m 13,5 C 14,5 km/h (3 Bft)
04.08.2016 23:19 15,3 C 15,3 C 88 % 1011,6 hPa 0,0 mm 10,6 km/h (2 Bft) W-NW 282 0 min 0,000 mm 0,0 UV-I 0 W/m 13,3 C 16,1 km/h (3 Bft)
04.08.2016 23:20 15,3 C 15,3 C 88 % 1011,8 hPa 0,0 mm 13,7 km/h (3 Bft) W 261 0 min 0,000 mm 0,0 UV-I 0 W/m 13,3 C 20,9 km/h (4 Bft)
04.08.2016 23:21 15,3 C 15,3 C 88 % 1011,8 hPa 0,0 mm 18,5 km/h (3 Bft) W-SW 257 0 min 0,000 mm 0,0 UV-I 0 W/m 13,3 C 25,7 km/h (4 Bft)
04.08.2016 23:22 15,3 C 15,3 C 88 % 1011,8 hPa 0,0 mm 16,0 km/h (3 Bft) W-SW 242 0 min 0,000 mm 0,0 UV-I 0 W/m 13,3 C 22,5 km/h (4 Bft)
04.08.2016 23:23 15,3 C 15,3 C 88 % 1011,8 hPa 0,0 mm 14,2 km/h (3 Bft) W 269 0 min 0,000 mm 0,0 UV-I 0 W/m 13,3 C 20,9 km/h (4 Bft)
04.08.2016 23:24 15,3 C 15,3 C 87 % 1011,8 hPa 0,0 mm 11,1 km/h (2 Bft) W-SW 257 0 min 0,000 mm 0,0 UV-I 0 W/m 13,1 C 16,1 km/h (3 Bft)
04.08.2016 23:25 15,2 C 15,3 C 87 % 1011,7 hPa 0,0 mm 15,0 km/h (3 Bft) W 273 0 min 0,000 mm 0,0 UV-I 0 W/m 13,0 C 22,5 km/h (4 Bft)
04.08.2016 23:26 15,2 C 15,2 C 86 % 1011,8 hPa 0,0 mm 11,9 km/h (2 Bft) NW 321 0 min 0,000 mm 0,0 UV-I 0 W/m 12,9 C 20,9 km/h (4 Bft)
04.08.2016 23:27 15,2 C 15,2 C 87 % 1011,8 hPa 0,0 mm 11,4 km/h (2 Bft) W 277 0 min 0,000 mm 0,0 UV-I 0 W/m 13,0 C 14,5 km/h (3 Bft)
04.08.2016 23:28 15,2 C 15,2 C 87 % 1011,8 hPa 0,0 mm 10,5 km/h (2 Bft) NW 315 0 min 0,000 mm 0,0 UV-I 0 W/m 13,0 C 16,1 km/h (3 Bft)
04.08.2016 23:29 15,1 C 15,2 C 87 % 1011,6 hPa 0,0 mm 11,6 km/h (2 Bft) W-NW 297 0 min 0,000 mm 0,0 UV-I 0 W/m 13,0 C 20,9 km/h (4 Bft)
04.08.2016 23:30 15,1 C 15,1 C 87 % 1011,6 hPa 0,0 mm 7,4 km/h (2 Bft) NW 304 0 min 0,000 mm 0,0 UV-I 0 W/m 13,0 C 12,9 km/h (3 Bft)
04.08.2016 23:31 15,1 C 15,1 C 87 % 1011,6 hPa 0,0 mm 10,9 km/h (2 Bft) W-NW 298 0 min 0,000 mm 0,0 UV-I 0 W/m 13,0 C 14,5 km/h (3 Bft)
04.08.2016 23:32 15,1 C 15,1 C 87 % 1011,6 hPa 0,0 mm 8,7 km/h (2 Bft) W 279 0 min 0,000 mm 0,0 UV-I 0 W/m 13,0 C 14,5 km/h (3 Bft)
04.08.2016 23:33 15,0 C 15,1 C 87 % 1011,5 hPa 0,0 mm 9,8 km/h (2 Bft) W-NW 301 0 min 0,000 mm 0,0 UV-I 0 W/m 12,9 C 12,9 km/h (3 Bft)
04.08.2016 23:34 15,0 C 15,0 C 87 % 1011,5 hPa 0,0 mm 5,4 km/h (1 Bft) W-SW 251 0 min 0,000 mm 0,0 UV-I 0 W/m 12,9 C 12,9 km/h (3 Bft)
04.08.2016 23:35 14,9 C 15,0 C 88 % 1011,5 hPa 0,0 mm 6,6 km/h (2 Bft) W 272 0 min 0,000 mm 0,0 UV-I 0 W/m 12,9 C 11,3 km/h (2 Bft)
04.08.2016 23:36 14,9 C 14,9 C 88 % 1011,5 hPa 0,0 mm 5,7 km/h (1 Bft) W 260 0 min 0,000 mm 0,0 UV-I 0 W/m 12,9 C 9,7 km/h (2 Bft)
04.08.2016 23:37 14,9 C 14,9 C 88 % 1011,4 hPa 0,0 mm 5,9 km/h (2 Bft) W 259 0 min 0,000 mm 0,0 UV-I 0 W/m 12,9 C 9,7 km/h (2 Bft)
04.08.2016 23:38 14,9 C 14,9 C 89 % 1011,4 hPa 0,0 mm 7,7 km/h (2 Bft) W-NW 298 0 min 0,000 mm 0,0 UV-I 0 W/m 13,1 C 12,9 km/h (3 Bft)
04.08.2016 23:39 14,8 C 14,9 C 89 % 1011,4 hPa 0,0 mm 4,6 km/h (1 Bft) W-SW 240 0 min 0,000 mm 0,0 UV-I 0 W/m 13,0 C 9,7 km/h (2 Bft)
04.08.2016 23:40 14,8 C 14,8 C 89 % 1011,4 hPa 0,0 mm 6,8 km/h (2 Bft) SW 220 0 min 0,000 mm 0,0 UV-I 0 W/m 13,0 C 9,7 km/h (2 Bft)
04.08.2016 23:41 14,8 C 14,8 C 89 % 1011,4 hPa 0,0 mm 7,0 km/h (2 Bft) W-SW 247 0 min 0,000 mm 0,0 UV-I 0 W/m 13,0 C 11,3 km/h (2 Bft)
04.08.2016 23:42 14,8 C 14,8 C 89 % 1011,4 hPa 0,2 mm 5,0 km/h (1 Bft) W 260 0 min 0,000 mm 0,0 UV-I 0 W/m 13,0 C 6,4 km/h (2 Bft)
04.08.2016 23:43 14,8 C 14,8 C 89 % 1011,4 hPa 0,0 mm 5,0 km/h (1 Bft) W-SW 251 0 min 0,000 mm 0,0 UV-I 0 W/m 13,0 C 9,7 km/h (2 Bft)
04.08.2016 23:44 14,8 C 14,8 C 89 % 1011,4 hPa 0,0 mm 2,5 km/h (1 Bft) W-SW 240 0 min 0,000 mm 0,0 UV-I 0 W/m 13,0 C 4,8 km/h (1 Bft)
04.08.2016 23:45 14,8 C 14,8 C 89 % 1011,5 hPa 0,0 mm 5,3 km/h (1 Bft) SW 222 0 min 0,000 mm 0,0 UV-I 0 W/m 13,0 C 6,4 km/h (2 Bft)
04.08.2016 23:46 14,8 C 14,8 C 89 % 1011,6 hPa 0,2 mm 1,8 km/h (1 Bft) S-SW 205 0 min 0,000 mm 0,0 UV-I 0 W/m 13,0 C 3,2 km/h (1 Bft)
04.08.2016 23:47 14,8 C 14,8 C 90 % 1011,6 hPa 0,0 mm 2,2 km/h (1 Bft) S-SW 200 0 min 0,000 mm 0,0 UV-I 0 W/m 13,2 C 3,2 km/h (1 Bft)
04.08.2016 23:48 14,7 C 14,8 C 90 % 1011,7 hPa 0,0 mm 0,8 km/h (0 Bft) S-SW 200 0 min 0,000 mm 0,0 UV-I 0 W/m 13,1 C 1,6 km/h (1 Bft)
04.08.2016 23:49 14,7 C 14,7 C 90 % 1011,7 hPa 0,2 mm 1,7 km/h (1 Bft) S-SW 200 0 min 0,000 mm 0,0 UV-I 0 W/m 13,1 C 4,8 km/h (1 Bft)
04.08.2016 23:50 14,7 C 14,7 C 90 % 1011,7 hPa 0,2 mm 0,6 km/h (0 Bft) S-SW 200 0 min 0,000 mm 0,0 UV-I 0 W/m 13,1 C 1,6 km/h (1 Bft)
04.08.2016 23:51 14,7 C 14,7 C 90 % 1011,6 hPa 0,2 mm 0,3 km/h (0 Bft) S-SW 200 0 min 0,000 mm 0,0 UV-I 0 W/m 13,1 C 1,6 km/h (1 Bft)
04.08.2016 23:52 14,7 C 14,7 C 91 % 1011,6 hPa 0,2 mm 0,0 km/h (0 Bft) S-SW 200 0 min 0,000 mm 0,0 UV-I 0 W/m 13,2 C 0,0 km/h (0 Bft)
04.08.2016 23:53 14,7 C 14,7 C 91 % 1011,6 hPa 0,2 mm 0,2 km/h (0 Bft) S-SW 200 0 min 0,000 mm 0,0 UV-I 0 W/m 13,2 C 1,6 km/h (1 Bft)
04.08.2016 23:54 14,7 C 14,7 C 91 % 1011,6 hPa 0,2 mm 1,9 km/h (1 Bft) S-SW 200 0 min 0,000 mm 0,0 UV-I 0 W/m 13,2 C 4,8 km/h (1 Bft)
04.08.2016 23:55 14,6 C 14,7 C 91 % 1011,5 hPa 0,0 mm 1,7 km/h (1 Bft) W-SW 250 0 min 0,000 mm 0,0 UV-I 0 W/m 13,1 C 4,8 km/h (1 Bft)
04.08.2016 23:56 14,6 C 14,6 C 91 % 1011,6 hPa 0,2 mm 3,8 km/h (1 Bft) W-SW 246 0 min 0,000 mm 0,0 UV-I 0 W/m 13,1 C 6,4 km/h (2 Bft)
04.08.2016 23:57 14,6 C 14,6 C 91 % 1011,6 hPa 0,2 mm 0,2 km/h (0 Bft) W-SW 245 0 min 0,000 mm 0,0 UV-I 0 W/m 13,1 C 1,6 km/h (1 Bft)
04.08.2016 23:58 14,6 C 14,6 C 91 % 1011,5 hPa 0,0 mm 0,1 km/h (0 Bft) W-SW 238 0 min 0,000 mm 0,0 UV-I 0 W/m 13,1 C 1,6 km/h (1 Bft)
04.08.2016 23:59 14,6 C 14,6 C 91 % 1011,5 hPa 0,0 mm 3,6 km/h (1 Bft) W-SW 252 0 min 0,000 mm 0,0 UV-I 0 W/m 13,1 C 11,3 km/h (2 Bft)
_ Min-Zeit 06:31 06:30 18:09 20:49 - 23:52 - - - - - - 06:29 23:52
Minimum _ 12,9 C 12,9 C 43 % 1005,8 hPa - 0,0 km/h (0 Bft) - - - - - - 11,0 C 0,0 km/h (0 Bft)
_ Max-Zeit 14:51 14:52 23:59 01:04 23:56 22:56 - - 16:15 15:00 13:27 13:36 13:41 22:29
Maximum _ 26,9 C 26,9 C 91 % 1014,0 hPa 0,2 mm 19,8 km/h
W-SW (3 Bft)
- - 1 min 0,559 mm 7,4 UV-I 1000 W/m 18,1 C 30,6 km/h
W (5 Bft)
Durchschnitt _ 20,0 C 20,0 C 70 % 1011,1 hPa #3,0 mm 2,6 km/h (1 Bft) O-NO - #8:30 h #4,064 mm 4,1 UV-I 244 W/m 13,8 C 4,5 km/h (1 Bft)